<?xml version="1.0" encoding="UTF-8" standalone="no" ?>
<gpx xmlns="http://www.topografix.com/GPX/1/1" xmlns:xsi="http://www.w3.org/2001/XMLSchema-instance" xsi:schemaLocation="http://www.topografix.com/GPX/1/1 http://www.topografix.com/GPX/1/1/gpx.xsd" version="1.1" creator="VisuGPX - https://www.visugpx.com">
  <metadata>
    <name>Montrieux le jeune</name>
    <desc><![CDATA[boucle au départ de Montrieux le jeune via Montrieux le vieux]]></desc>
  </metadata>
  <trk>
    <name><![CDATA[2019-05-12 Montrieux le jeune]]></name>
    <desc><![CDATA[Luc Jean-Jacques Frédéric]]></desc>
    <trkseg>
      <trkpt lat="43.2632" lon="5.96343">
        <ele>231.171875</ele>
        <time>2019-05-12T07:07:35Z</time>
      </trkpt>
      <trkpt lat="43.26321" lon="5.96343">
        <ele>231.26171875</ele>
        <time>2019-05-12T07:07:55Z</time>
      </trkpt>
      <trkpt lat="43.26319" lon="5.96344">
        <ele>231.2109375</ele>
        <time>2019-05-12T07:08:12Z</time>
      </trkpt>
      <trkpt lat="43.26317" lon="5.96343">
        <ele>231.109375</ele>
        <time>2019-05-12T07:08:22Z</time>
      </trkpt>
      <trkpt lat="43.26319" lon="5.96341">
        <ele>230.90234375</ele>
        <time>2019-05-12T07:08:23Z</time>
      </trkpt>
      <trkpt lat="43.26319" lon="5.96338">
        <ele>230.5234375</ele>
        <time>2019-05-12T07:08:24Z</time>
      </trkpt>
      <trkpt lat="43.26315" lon="5.96335">
        <ele>229.9296875</ele>
        <time>2019-05-12T07:08:45Z</time>
      </trkpt>
      <trkpt lat="43.26314" lon="5.96333">
        <ele>229.671875</ele>
        <time>2019-05-12T07:08:55Z</time>
      </trkpt>
      <trkpt lat="43.2631" lon="5.96331">
        <ele>229.16796875</ele>
        <time>2019-05-12T07:09:14Z</time>
      </trkpt>
      <trkpt lat="43.2631" lon="5.96331">
        <ele>229.171875</ele>
        <time>2019-05-12T07:09:16Z</time>
      </trkpt>
      <trkpt lat="43.2631" lon="5.96325">
        <ele>229.56640625</ele>
        <time>2019-05-12T07:09:43Z</time>
      </trkpt>
      <trkpt lat="43.26311" lon="5.96333">
        <ele>229.44140625</ele>
        <time>2019-05-12T07:10:13Z</time>
      </trkpt>
      <trkpt lat="43.26314" lon="5.96331">
        <ele>229.4453125</ele>
        <time>2019-05-12T07:10:41Z</time>
      </trkpt>
      <trkpt lat="43.26313" lon="5.96331">
        <ele>229.3828125</ele>
        <time>2019-05-12T07:11:04Z</time>
      </trkpt>
      <trkpt lat="43.26312" lon="5.96334">
        <ele>229.609375</ele>
        <time>2019-05-12T07:11:18Z</time>
      </trkpt>
      <trkpt lat="43.26311" lon="5.96338">
        <ele>230.1875</ele>
        <time>2019-05-12T07:11:50Z</time>
      </trkpt>
      <trkpt lat="43.26311" lon="5.96339">
        <ele>230.22265625</ele>
        <time>2019-05-12T07:11:56Z</time>
      </trkpt>
      <trkpt lat="43.26313" lon="5.96344">
        <ele>231.05859375</ele>
        <time>2019-05-12T07:12:08Z</time>
      </trkpt>
      <trkpt lat="43.26315" lon="5.96347">
        <ele>231.5390625</ele>
        <time>2019-05-12T07:12:11Z</time>
      </trkpt>
      <trkpt lat="43.2632" lon="5.96345">
        <ele>231.3828125</ele>
        <time>2019-05-12T07:12:25Z</time>
      </trkpt>
      <trkpt lat="43.26318" lon="5.96345">
        <ele>231.39453125</ele>
        <time>2019-05-12T07:12:27Z</time>
      </trkpt>
      <trkpt lat="43.26313" lon="5.9635">
        <ele>231.765625</ele>
        <time>2019-05-12T07:12:31Z</time>
      </trkpt>
      <trkpt lat="43.26292" lon="5.96363">
        <ele>235.7265625</ele>
        <time>2019-05-12T07:12:45Z</time>
      </trkpt>
      <trkpt lat="43.26273" lon="5.96377">
        <ele>240.4296875</ele>
        <time>2019-05-12T07:12:54Z</time>
      </trkpt>
      <trkpt lat="43.26267" lon="5.96384">
        <ele>242.0390625</ele>
        <time>2019-05-12T07:12:59Z</time>
      </trkpt>
      <trkpt lat="43.26267" lon="5.96392">
        <ele>243.99609375</ele>
        <time>2019-05-12T07:13:02Z</time>
      </trkpt>
      <trkpt lat="43.26267" lon="5.96394">
        <ele>244.60546875</ele>
        <time>2019-05-12T07:13:03Z</time>
      </trkpt>
      <trkpt lat="43.26263" lon="5.96401">
        <ele>246.671875</ele>
        <time>2019-05-12T07:13:07Z</time>
      </trkpt>
      <trkpt lat="43.2626" lon="5.96403">
        <ele>247.2734375</ele>
        <time>2019-05-12T07:13:09Z</time>
      </trkpt>
      <trkpt lat="43.2626" lon="5.96405">
        <ele>247.75390625</ele>
        <time>2019-05-12T07:13:10Z</time>
      </trkpt>
      <trkpt lat="43.26246" lon="5.96422">
        <ele>250.70703125</ele>
        <time>2019-05-12T07:13:22Z</time>
      </trkpt>
      <trkpt lat="43.26233" lon="5.96433">
        <ele>251.46875</ele>
        <time>2019-05-12T07:13:28Z</time>
      </trkpt>
      <trkpt lat="43.26233" lon="5.96435">
        <ele>251.7109375</ele>
        <time>2019-05-12T07:13:29Z</time>
      </trkpt>
      <trkpt lat="43.26217" lon="5.96456">
        <ele>255.65234375</ele>
        <time>2019-05-12T07:13:43Z</time>
      </trkpt>
      <trkpt lat="43.26209" lon="5.96465">
        <ele>256.609375</ele>
        <time>2019-05-12T07:13:49Z</time>
      </trkpt>
      <trkpt lat="43.26207" lon="5.96471">
        <ele>257.265625</ele>
        <time>2019-05-12T07:13:51Z</time>
      </trkpt>
      <trkpt lat="43.26203" lon="5.96485">
        <ele>259.78515625</ele>
        <time>2019-05-12T07:13:58Z</time>
      </trkpt>
      <trkpt lat="43.26199" lon="5.96501">
        <ele>262.53125</ele>
        <time>2019-05-12T07:14:05Z</time>
      </trkpt>
      <trkpt lat="43.262" lon="5.96503">
        <ele>263.14453125</ele>
        <time>2019-05-12T07:14:06Z</time>
      </trkpt>
      <trkpt lat="43.26199" lon="5.96507">
        <ele>263.8203125</ele>
        <time>2019-05-12T07:14:08Z</time>
      </trkpt>
      <trkpt lat="43.26199" lon="5.96509">
        <ele>264.546875</ele>
        <time>2019-05-12T07:14:09Z</time>
      </trkpt>
      <trkpt lat="43.26201" lon="5.96529">
        <ele>270.734375</ele>
        <time>2019-05-12T07:14:18Z</time>
      </trkpt>
      <trkpt lat="43.26199" lon="5.96533">
        <ele>271.16015625</ele>
        <time>2019-05-12T07:14:20Z</time>
      </trkpt>
      <trkpt lat="43.26199" lon="5.96537">
        <ele>272.4609375</ele>
        <time>2019-05-12T07:14:22Z</time>
      </trkpt>
      <trkpt lat="43.26198" lon="5.96544">
        <ele>274.078125</ele>
        <time>2019-05-12T07:14:25Z</time>
      </trkpt>
      <trkpt lat="43.26196" lon="5.96547">
        <ele>274.69921875</ele>
        <time>2019-05-12T07:14:27Z</time>
      </trkpt>
      <trkpt lat="43.26195" lon="5.96552">
        <ele>276.0078125</ele>
        <time>2019-05-12T07:14:29Z</time>
      </trkpt>
      <trkpt lat="43.26195" lon="5.96556">
        <ele>276.9296875</ele>
        <time>2019-05-12T07:14:31Z</time>
      </trkpt>
      <trkpt lat="43.2619" lon="5.96559">
        <ele>276.7109375</ele>
        <time>2019-05-12T07:14:35Z</time>
      </trkpt>
      <trkpt lat="43.26197" lon="5.96581">
        <ele>285.0078125</ele>
        <time>2019-05-12T07:14:44Z</time>
      </trkpt>
      <trkpt lat="43.26194" lon="5.96586">
        <ele>285.76953125</ele>
        <time>2019-05-12T07:14:47Z</time>
      </trkpt>
      <trkpt lat="43.26177" lon="5.96584">
        <ele>280.9375</ele>
        <time>2019-05-12T07:14:55Z</time>
      </trkpt>
      <trkpt lat="43.26167" lon="5.96583">
        <ele>277.81640625</ele>
        <time>2019-05-12T07:14:59Z</time>
      </trkpt>
      <trkpt lat="43.26166" lon="5.96588">
        <ele>279.6640625</ele>
        <time>2019-05-12T07:15:02Z</time>
      </trkpt>
      <trkpt lat="43.26161" lon="5.96589">
        <ele>278.265625</ele>
        <time>2019-05-12T07:15:06Z</time>
      </trkpt>
      <trkpt lat="43.26158" lon="5.96589">
        <ele>277.60546875</ele>
        <time>2019-05-12T07:15:07Z</time>
      </trkpt>
      <trkpt lat="43.26154" lon="5.96589">
        <ele>276.26953125</ele>
        <time>2019-05-12T07:15:09Z</time>
      </trkpt>
      <trkpt lat="43.26153" lon="5.9659">
        <ele>276.19921875</ele>
        <time>2019-05-12T07:15:10Z</time>
      </trkpt>
      <trkpt lat="43.26153" lon="5.96591">
        <ele>276.34375</ele>
        <time>2019-05-12T07:15:11Z</time>
      </trkpt>
      <trkpt lat="43.26151" lon="5.96594">
        <ele>276.4375</ele>
        <time>2019-05-12T07:15:13Z</time>
      </trkpt>
      <trkpt lat="43.26143" lon="5.966">
        <ele>275.98046875</ele>
        <time>2019-05-12T07:15:18Z</time>
      </trkpt>
      <trkpt lat="43.26134" lon="5.96611">
        <ele>276.94921875</ele>
        <time>2019-05-12T07:15:26Z</time>
      </trkpt>
      <trkpt lat="43.26128" lon="5.96617">
        <ele>276.76171875</ele>
        <time>2019-05-12T07:15:30Z</time>
      </trkpt>
      <trkpt lat="43.26126" lon="5.96618">
        <ele>276.58203125</ele>
        <time>2019-05-12T07:15:31Z</time>
      </trkpt>
      <trkpt lat="43.26124" lon="5.9662">
        <ele>276.515625</ele>
        <time>2019-05-12T07:15:33Z</time>
      </trkpt>
      <trkpt lat="43.26116" lon="5.96629">
        <ele>276.05859375</ele>
        <time>2019-05-12T07:15:39Z</time>
      </trkpt>
      <trkpt lat="43.26115" lon="5.96637">
        <ele>277.25390625</ele>
        <time>2019-05-12T07:15:43Z</time>
      </trkpt>
      <trkpt lat="43.2611" lon="5.96642">
        <ele>276.765625</ele>
        <time>2019-05-12T07:15:46Z</time>
      </trkpt>
      <trkpt lat="43.26108" lon="5.96643">
        <ele>276.35546875</ele>
        <time>2019-05-12T07:15:47Z</time>
      </trkpt>
      <trkpt lat="43.26081" lon="5.9667">
        <ele>271.67578125</ele>
        <time>2019-05-12T07:16:00Z</time>
      </trkpt>
      <trkpt lat="43.26084" lon="5.96682">
        <ele>272.796875</ele>
        <time>2019-05-12T07:16:05Z</time>
      </trkpt>
      <trkpt lat="43.26078" lon="5.96713">
        <ele>275.16796875</ele>
        <time>2019-05-12T07:16:20Z</time>
      </trkpt>
      <trkpt lat="43.26076" lon="5.9672">
        <ele>275.5546875</ele>
        <time>2019-05-12T07:16:23Z</time>
      </trkpt>
      <trkpt lat="43.26077" lon="5.96723">
        <ele>275.73828125</ele>
        <time>2019-05-12T07:16:24Z</time>
      </trkpt>
      <trkpt lat="43.26077" lon="5.96728">
        <ele>275.96484375</ele>
        <time>2019-05-12T07:16:26Z</time>
      </trkpt>
      <trkpt lat="43.26073" lon="5.96749">
        <ele>276.11328125</ele>
        <time>2019-05-12T07:16:37Z</time>
      </trkpt>
      <trkpt lat="43.2607" lon="5.96773">
        <ele>276.7578125</ele>
        <time>2019-05-12T07:16:47Z</time>
      </trkpt>
      <trkpt lat="43.26069" lon="5.96775">
        <ele>276.67578125</ele>
        <time>2019-05-12T07:16:48Z</time>
      </trkpt>
      <trkpt lat="43.26069" lon="5.96778">
        <ele>276.8046875</ele>
        <time>2019-05-12T07:16:50Z</time>
      </trkpt>
      <trkpt lat="43.26069" lon="5.96786">
        <ele>277.28515625</ele>
        <time>2019-05-12T07:16:54Z</time>
      </trkpt>
      <trkpt lat="43.26069" lon="5.96789">
        <ele>277.6484375</ele>
        <time>2019-05-12T07:16:55Z</time>
      </trkpt>
      <trkpt lat="43.26072" lon="5.96803">
        <ele>279.45703125</ele>
        <time>2019-05-12T07:17:01Z</time>
      </trkpt>
      <trkpt lat="43.26073" lon="5.96812">
        <ele>280.41796875</ele>
        <time>2019-05-12T07:17:06Z</time>
      </trkpt>
      <trkpt lat="43.26071" lon="5.96816">
        <ele>280.203125</ele>
        <time>2019-05-12T07:17:09Z</time>
      </trkpt>
      <trkpt lat="43.26071" lon="5.96823">
        <ele>281</ele>
        <time>2019-05-12T07:17:11Z</time>
      </trkpt>
      <trkpt lat="43.26075" lon="5.96845">
        <ele>284.16015625</ele>
        <time>2019-05-12T07:17:21Z</time>
      </trkpt>
      <trkpt lat="43.26074" lon="5.96847">
        <ele>284.27734375</ele>
        <time>2019-05-12T07:17:22Z</time>
      </trkpt>
      <trkpt lat="43.26074" lon="5.96851">
        <ele>284.70703125</ele>
        <time>2019-05-12T07:17:24Z</time>
      </trkpt>
      <trkpt lat="43.26071" lon="5.96863">
        <ele>285.09765625</ele>
        <time>2019-05-12T07:17:31Z</time>
      </trkpt>
      <trkpt lat="43.26071" lon="5.96873">
        <ele>286.23046875</ele>
        <time>2019-05-12T07:17:36Z</time>
      </trkpt>
      <trkpt lat="43.26072" lon="5.96904">
        <ele>290.19140625</ele>
        <time>2019-05-12T07:17:51Z</time>
      </trkpt>
      <trkpt lat="43.26072" lon="5.96919">
        <ele>291.7109375</ele>
        <time>2019-05-12T07:17:59Z</time>
      </trkpt>
      <trkpt lat="43.26062" lon="5.96932">
        <ele>289.50390625</ele>
        <time>2019-05-12T07:18:08Z</time>
      </trkpt>
      <trkpt lat="43.26047" lon="5.96927">
        <ele>285.453125</ele>
        <time>2019-05-12T07:18:20Z</time>
      </trkpt>
      <trkpt lat="43.26034" lon="5.96918">
        <ele>281.9609375</ele>
        <time>2019-05-12T07:18:31Z</time>
      </trkpt>
      <trkpt lat="43.26015" lon="5.96907">
        <ele>282.25</ele>
        <time>2019-05-12T07:18:45Z</time>
      </trkpt>
      <trkpt lat="43.25999" lon="5.96893">
        <ele>282.828125</ele>
        <time>2019-05-12T07:18:58Z</time>
      </trkpt>
      <trkpt lat="43.25989" lon="5.96882">
        <ele>283.296875</ele>
        <time>2019-05-12T07:19:09Z</time>
      </trkpt>
      <trkpt lat="43.25978" lon="5.96862">
        <ele>282.234375</ele>
        <time>2019-05-12T07:19:21Z</time>
      </trkpt>
      <trkpt lat="43.25956" lon="5.96837">
        <ele>284.68359375</ele>
        <time>2019-05-12T07:19:35Z</time>
      </trkpt>
      <trkpt lat="43.25935" lon="5.9681">
        <ele>286.26953125</ele>
        <time>2019-05-12T07:19:44Z</time>
      </trkpt>
      <trkpt lat="43.25911" lon="5.96766">
        <ele>288.2578125</ele>
        <time>2019-05-12T07:19:55Z</time>
      </trkpt>
      <trkpt lat="43.25892" lon="5.96732">
        <ele>288.45703125</ele>
        <time>2019-05-12T07:20:06Z</time>
      </trkpt>
      <trkpt lat="43.25884" lon="5.9672">
        <ele>289.6875</ele>
        <time>2019-05-12T07:20:11Z</time>
      </trkpt>
      <trkpt lat="43.25882" lon="5.96718">
        <ele>290.01953125</ele>
        <time>2019-05-12T07:20:12Z</time>
      </trkpt>
      <trkpt lat="43.2588" lon="5.96715">
        <ele>290.3046875</ele>
        <time>2019-05-12T07:20:13Z</time>
      </trkpt>
      <trkpt lat="43.25878" lon="5.96712">
        <ele>290.54296875</ele>
        <time>2019-05-12T07:20:14Z</time>
      </trkpt>
      <trkpt lat="43.25876" lon="5.96709">
        <ele>290.765625</ele>
        <time>2019-05-12T07:20:15Z</time>
      </trkpt>
      <trkpt lat="43.25874" lon="5.96707">
        <ele>290.94140625</ele>
        <time>2019-05-12T07:20:16Z</time>
      </trkpt>
      <trkpt lat="43.25872" lon="5.96704">
        <ele>291.1015625</ele>
        <time>2019-05-12T07:20:17Z</time>
      </trkpt>
      <trkpt lat="43.2587" lon="5.96702">
        <ele>291.23046875</ele>
        <time>2019-05-12T07:20:18Z</time>
      </trkpt>
      <trkpt lat="43.25852" lon="5.9668">
        <ele>292.3515625</ele>
        <time>2019-05-12T07:20:27Z</time>
      </trkpt>
      <trkpt lat="43.25828" lon="5.96648">
        <ele>293.48046875</ele>
        <time>2019-05-12T07:20:38Z</time>
      </trkpt>
      <trkpt lat="43.25808" lon="5.96622">
        <ele>293.5</ele>
        <time>2019-05-12T07:20:45Z</time>
      </trkpt>
      <trkpt lat="43.2579" lon="5.96595">
        <ele>294.4921875</ele>
        <time>2019-05-12T07:20:54Z</time>
      </trkpt>
      <trkpt lat="43.25781" lon="5.96578">
        <ele>294.98046875</ele>
        <time>2019-05-12T07:21:01Z</time>
      </trkpt>
      <trkpt lat="43.25762" lon="5.96532">
        <ele>295.828125</ele>
        <time>2019-05-12T07:21:21Z</time>
      </trkpt>
      <trkpt lat="43.25752" lon="5.96502">
        <ele>296.94921875</ele>
        <time>2019-05-12T07:21:37Z</time>
      </trkpt>
      <trkpt lat="43.25736" lon="5.96487">
        <ele>298.50390625</ele>
        <time>2019-05-12T07:21:53Z</time>
      </trkpt>
      <trkpt lat="43.25715" lon="5.96474">
        <ele>300.87890625</ele>
        <time>2019-05-12T07:22:09Z</time>
      </trkpt>
      <trkpt lat="43.25693" lon="5.96451">
        <ele>305.1875</ele>
        <time>2019-05-12T07:22:26Z</time>
      </trkpt>
      <trkpt lat="43.2569" lon="5.96449">
        <ele>305.54296875</ele>
        <time>2019-05-12T07:22:28Z</time>
      </trkpt>
      <trkpt lat="43.25672" lon="5.96433">
        <ele>307.59765625</ele>
        <time>2019-05-12T07:22:42Z</time>
      </trkpt>
      <trkpt lat="43.25652" lon="5.96432">
        <ele>308.359375</ele>
        <time>2019-05-12T07:22:56Z</time>
      </trkpt>
      <trkpt lat="43.25629" lon="5.9645">
        <ele>308</ele>
        <time>2019-05-12T07:23:12Z</time>
      </trkpt>
      <trkpt lat="43.25612" lon="5.96467">
        <ele>308.45703125</ele>
        <time>2019-05-12T07:23:27Z</time>
      </trkpt>
      <trkpt lat="43.25605" lon="5.96475">
        <ele>309.2109375</ele>
        <time>2019-05-12T07:23:33Z</time>
      </trkpt>
      <trkpt lat="43.25604" lon="5.96476">
        <ele>309.3671875</ele>
        <time>2019-05-12T07:23:34Z</time>
      </trkpt>
      <trkpt lat="43.25603" lon="5.96477">
        <ele>309.41796875</ele>
        <time>2019-05-12T07:23:35Z</time>
      </trkpt>
      <trkpt lat="43.2559" lon="5.96492">
        <ele>310.7421875</ele>
        <time>2019-05-12T07:23:48Z</time>
      </trkpt>
      <trkpt lat="43.25585" lon="5.96496">
        <ele>311.29296875</ele>
        <time>2019-05-12T07:23:59Z</time>
      </trkpt>
      <trkpt lat="43.25584" lon="5.96499">
        <ele>311.2421875</ele>
        <time>2019-05-12T07:24:28Z</time>
      </trkpt>
      <trkpt lat="43.25584" lon="5.96495">
        <ele>311.453125</ele>
        <time>2019-05-12T07:25:08Z</time>
      </trkpt>
      <trkpt lat="43.25575" lon="5.96507">
        <ele>311.875</ele>
        <time>2019-05-12T07:25:27Z</time>
      </trkpt>
      <trkpt lat="43.25559" lon="5.96519">
        <ele>313.1875</ele>
        <time>2019-05-12T07:25:40Z</time>
      </trkpt>
      <trkpt lat="43.25537" lon="5.96527">
        <ele>316.2421875</ele>
        <time>2019-05-12T07:25:56Z</time>
      </trkpt>
      <trkpt lat="43.25536" lon="5.96528">
        <ele>316.46875</ele>
        <time>2019-05-12T07:25:57Z</time>
      </trkpt>
      <trkpt lat="43.25516" lon="5.96532">
        <ele>319.43359375</ele>
        <time>2019-05-12T07:26:12Z</time>
      </trkpt>
      <trkpt lat="43.2551" lon="5.96529">
        <ele>320.16015625</ele>
        <time>2019-05-12T07:26:17Z</time>
      </trkpt>
      <trkpt lat="43.25509" lon="5.96528">
        <ele>320.3359375</ele>
        <time>2019-05-12T07:26:18Z</time>
      </trkpt>
      <trkpt lat="43.25507" lon="5.96527">
        <ele>320.48046875</ele>
        <time>2019-05-12T07:26:19Z</time>
      </trkpt>
      <trkpt lat="43.25506" lon="5.96523">
        <ele>320.83203125</ele>
        <time>2019-05-12T07:26:22Z</time>
      </trkpt>
      <trkpt lat="43.25505" lon="5.96521">
        <ele>321.0390625</ele>
        <time>2019-05-12T07:26:23Z</time>
      </trkpt>
      <trkpt lat="43.25504" lon="5.9652">
        <ele>321.27734375</ele>
        <time>2019-05-12T07:26:24Z</time>
      </trkpt>
      <trkpt lat="43.25503" lon="5.96518">
        <ele>321.52734375</ele>
        <time>2019-05-12T07:26:25Z</time>
      </trkpt>
      <trkpt lat="43.25502" lon="5.96516">
        <ele>321.796875</ele>
        <time>2019-05-12T07:26:26Z</time>
      </trkpt>
      <trkpt lat="43.25502" lon="5.96515">
        <ele>322.02734375</ele>
        <time>2019-05-12T07:26:27Z</time>
      </trkpt>
      <trkpt lat="43.25501" lon="5.96513">
        <ele>322.2578125</ele>
        <time>2019-05-12T07:26:28Z</time>
      </trkpt>
      <trkpt lat="43.255" lon="5.96511">
        <ele>322.53125</ele>
        <time>2019-05-12T07:26:29Z</time>
      </trkpt>
      <trkpt lat="43.25489" lon="5.96484">
        <ele>325.58984375</ele>
        <time>2019-05-12T07:26:46Z</time>
      </trkpt>
      <trkpt lat="43.25478" lon="5.96464">
        <ele>327.921875</ele>
        <time>2019-05-12T07:26:58Z</time>
      </trkpt>
      <trkpt lat="43.25475" lon="5.96454">
        <ele>328.63671875</ele>
        <time>2019-05-12T07:27:05Z</time>
      </trkpt>
      <trkpt lat="43.25474" lon="5.96448">
        <ele>329.0390625</ele>
        <time>2019-05-12T07:27:08Z</time>
      </trkpt>
      <trkpt lat="43.25474" lon="5.96446">
        <ele>329.0625</ele>
        <time>2019-05-12T07:27:09Z</time>
      </trkpt>
      <trkpt lat="43.25475" lon="5.96444">
        <ele>329.12109375</ele>
        <time>2019-05-12T07:27:10Z</time>
      </trkpt>
      <trkpt lat="43.25475" lon="5.96442">
        <ele>329.19140625</ele>
        <time>2019-05-12T07:27:11Z</time>
      </trkpt>
      <trkpt lat="43.25475" lon="5.9644">
        <ele>329.24609375</ele>
        <time>2019-05-12T07:27:12Z</time>
      </trkpt>
      <trkpt lat="43.25475" lon="5.96437">
        <ele>329.21875</ele>
        <time>2019-05-12T07:27:13Z</time>
      </trkpt>
      <trkpt lat="43.25476" lon="5.96435">
        <ele>329.23828125</ele>
        <time>2019-05-12T07:27:14Z</time>
      </trkpt>
      <trkpt lat="43.25476" lon="5.96431">
        <ele>329.33984375</ele>
        <time>2019-05-12T07:27:16Z</time>
      </trkpt>
      <trkpt lat="43.25477" lon="5.96428">
        <ele>329.3515625</ele>
        <time>2019-05-12T07:27:17Z</time>
      </trkpt>
      <trkpt lat="43.25477" lon="5.96426">
        <ele>329.3984375</ele>
        <time>2019-05-12T07:27:18Z</time>
      </trkpt>
      <trkpt lat="43.25477" lon="5.96423">
        <ele>329.453125</ele>
        <time>2019-05-12T07:27:19Z</time>
      </trkpt>
      <trkpt lat="43.25478" lon="5.96421">
        <ele>329.48828125</ele>
        <time>2019-05-12T07:27:20Z</time>
      </trkpt>
      <trkpt lat="43.25478" lon="5.96418">
        <ele>329.53515625</ele>
        <time>2019-05-12T07:27:21Z</time>
      </trkpt>
      <trkpt lat="43.25478" lon="5.96416">
        <ele>329.5859375</ele>
        <time>2019-05-12T07:27:22Z</time>
      </trkpt>
      <trkpt lat="43.25478" lon="5.96413">
        <ele>329.63671875</ele>
        <time>2019-05-12T07:27:23Z</time>
      </trkpt>
      <trkpt lat="43.25479" lon="5.96411">
        <ele>329.61328125</ele>
        <time>2019-05-12T07:27:24Z</time>
      </trkpt>
      <trkpt lat="43.2548" lon="5.96409">
        <ele>329.6015625</ele>
        <time>2019-05-12T07:27:25Z</time>
      </trkpt>
      <trkpt lat="43.2548" lon="5.96407">
        <ele>329.5859375</ele>
        <time>2019-05-12T07:27:26Z</time>
      </trkpt>
      <trkpt lat="43.25481" lon="5.96361">
        <ele>330.93359375</ele>
        <time>2019-05-12T07:27:45Z</time>
      </trkpt>
      <trkpt lat="43.25481" lon="5.96356">
        <ele>331.28515625</ele>
        <time>2019-05-12T07:27:47Z</time>
      </trkpt>
      <trkpt lat="43.25481" lon="5.96336">
        <ele>332.46875</ele>
        <time>2019-05-12T07:27:56Z</time>
      </trkpt>
      <trkpt lat="43.25482" lon="5.96334">
        <ele>332.51953125</ele>
        <time>2019-05-12T07:27:57Z</time>
      </trkpt>
      <trkpt lat="43.25482" lon="5.96332">
        <ele>332.66015625</ele>
        <time>2019-05-12T07:27:58Z</time>
      </trkpt>
      <trkpt lat="43.25479" lon="5.96303">
        <ele>333.43359375</ele>
        <time>2019-05-12T07:28:11Z</time>
      </trkpt>
      <trkpt lat="43.25478" lon="5.96294">
        <ele>333.97265625</ele>
        <time>2019-05-12T07:28:15Z</time>
      </trkpt>
      <trkpt lat="43.25477" lon="5.96268">
        <ele>335.19140625</ele>
        <time>2019-05-12T07:28:28Z</time>
      </trkpt>
      <trkpt lat="43.25477" lon="5.96259">
        <ele>335.94921875</ele>
        <time>2019-05-12T07:28:32Z</time>
      </trkpt>
      <trkpt lat="43.25477" lon="5.96257">
        <ele>336.14453125</ele>
        <time>2019-05-12T07:28:33Z</time>
      </trkpt>
      <trkpt lat="43.25476" lon="5.96255">
        <ele>336.4140625</ele>
        <time>2019-05-12T07:28:34Z</time>
      </trkpt>
      <trkpt lat="43.25473" lon="5.96236">
        <ele>338.78515625</ele>
        <time>2019-05-12T07:28:43Z</time>
      </trkpt>
      <trkpt lat="43.25473" lon="5.96234">
        <ele>338.9921875</ele>
        <time>2019-05-12T07:28:44Z</time>
      </trkpt>
      <trkpt lat="43.25472" lon="5.96215">
        <ele>340.4140625</ele>
        <time>2019-05-12T07:28:53Z</time>
      </trkpt>
      <trkpt lat="43.25472" lon="5.96199">
        <ele>341.55859375</ele>
        <time>2019-05-12T07:29:00Z</time>
      </trkpt>
      <trkpt lat="43.25473" lon="5.96197">
        <ele>341.61328125</ele>
        <time>2019-05-12T07:29:01Z</time>
      </trkpt>
      <trkpt lat="43.25473" lon="5.96187">
        <ele>342.37890625</ele>
        <time>2019-05-12T07:29:06Z</time>
      </trkpt>
      <trkpt lat="43.25474" lon="5.96181">
        <ele>342.625</ele>
        <time>2019-05-12T07:29:09Z</time>
      </trkpt>
      <trkpt lat="43.25475" lon="5.96178">
        <ele>342.7421875</ele>
        <time>2019-05-12T07:29:10Z</time>
      </trkpt>
      <trkpt lat="43.25475" lon="5.96175">
        <ele>343.0859375</ele>
        <time>2019-05-12T07:29:11Z</time>
      </trkpt>
      <trkpt lat="43.25475" lon="5.96173">
        <ele>343.25</ele>
        <time>2019-05-12T07:29:12Z</time>
      </trkpt>
      <trkpt lat="43.25475" lon="5.96171">
        <ele>343.38671875</ele>
        <time>2019-05-12T07:29:13Z</time>
      </trkpt>
      <trkpt lat="43.25476" lon="5.96168">
        <ele>343.5703125</ele>
        <time>2019-05-12T07:29:14Z</time>
      </trkpt>
      <trkpt lat="43.25477" lon="5.96159">
        <ele>344.93359375</ele>
        <time>2019-05-12T07:29:19Z</time>
      </trkpt>
      <trkpt lat="43.25484" lon="5.96141">
        <ele>347.84765625</ele>
        <time>2019-05-12T07:29:31Z</time>
      </trkpt>
      <trkpt lat="43.25487" lon="5.96136">
        <ele>348.71875</ele>
        <time>2019-05-12T07:29:34Z</time>
      </trkpt>
      <trkpt lat="43.25488" lon="5.96134">
        <ele>349.30859375</ele>
        <time>2019-05-12T07:29:35Z</time>
      </trkpt>
      <trkpt lat="43.25488" lon="5.96131">
        <ele>349.8984375</ele>
        <time>2019-05-12T07:29:36Z</time>
      </trkpt>
      <trkpt lat="43.25489" lon="5.96129">
        <ele>350.44140625</ele>
        <time>2019-05-12T07:29:37Z</time>
      </trkpt>
      <trkpt lat="43.25491" lon="5.96127">
        <ele>350.83984375</ele>
        <time>2019-05-12T07:29:38Z</time>
      </trkpt>
      <trkpt lat="43.25492" lon="5.96125">
        <ele>351.1875</ele>
        <time>2019-05-12T07:29:39Z</time>
      </trkpt>
      <trkpt lat="43.25504" lon="5.96113">
        <ele>353.98046875</ele>
        <time>2019-05-12T07:29:51Z</time>
      </trkpt>
      <trkpt lat="43.25517" lon="5.96103">
        <ele>355.703125</ele>
        <time>2019-05-12T07:30:03Z</time>
      </trkpt>
      <trkpt lat="43.25519" lon="5.96102">
        <ele>355.87890625</ele>
        <time>2019-05-12T07:30:04Z</time>
      </trkpt>
      <trkpt lat="43.2552" lon="5.96102">
        <ele>356.03125</ele>
        <time>2019-05-12T07:30:05Z</time>
      </trkpt>
      <trkpt lat="43.25533" lon="5.96095">
        <ele>357</ele>
        <time>2019-05-12T07:30:15Z</time>
      </trkpt>
      <trkpt lat="43.25534" lon="5.96094">
        <ele>357.171875</ele>
        <time>2019-05-12T07:30:16Z</time>
      </trkpt>
      <trkpt lat="43.25555" lon="5.96079">
        <ele>359.62890625</ele>
        <time>2019-05-12T07:30:31Z</time>
      </trkpt>
      <trkpt lat="43.25564" lon="5.96071">
        <ele>360.86328125</ele>
        <time>2019-05-12T07:30:38Z</time>
      </trkpt>
      <trkpt lat="43.25566" lon="5.9607">
        <ele>361.04296875</ele>
        <time>2019-05-12T07:30:39Z</time>
      </trkpt>
      <trkpt lat="43.25567" lon="5.96069">
        <ele>361.24609375</ele>
        <time>2019-05-12T07:30:40Z</time>
      </trkpt>
      <trkpt lat="43.25568" lon="5.96068">
        <ele>361.421875</ele>
        <time>2019-05-12T07:30:41Z</time>
      </trkpt>
      <trkpt lat="43.2557" lon="5.96065">
        <ele>361.96484375</ele>
        <time>2019-05-12T07:30:43Z</time>
      </trkpt>
      <trkpt lat="43.2557" lon="5.96063">
        <ele>362.2578125</ele>
        <time>2019-05-12T07:30:44Z</time>
      </trkpt>
      <trkpt lat="43.25571" lon="5.96062">
        <ele>362.53515625</ele>
        <time>2019-05-12T07:30:45Z</time>
      </trkpt>
      <trkpt lat="43.25568" lon="5.96038">
        <ele>366.06640625</ele>
        <time>2019-05-12T07:30:59Z</time>
      </trkpt>
      <trkpt lat="43.25564" lon="5.96021">
        <ele>368.33984375</ele>
        <time>2019-05-12T07:31:09Z</time>
      </trkpt>
      <trkpt lat="43.25563" lon="5.96019">
        <ele>368.5703125</ele>
        <time>2019-05-12T07:31:10Z</time>
      </trkpt>
      <trkpt lat="43.25562" lon="5.96017">
        <ele>368.80078125</ele>
        <time>2019-05-12T07:31:11Z</time>
      </trkpt>
      <trkpt lat="43.25558" lon="5.95993">
        <ele>371.58203125</ele>
        <time>2019-05-12T07:31:25Z</time>
      </trkpt>
      <trkpt lat="43.25558" lon="5.95985">
        <ele>372.54296875</ele>
        <time>2019-05-12T07:31:30Z</time>
      </trkpt>
      <trkpt lat="43.25559" lon="5.95955">
        <ele>376.1875</ele>
        <time>2019-05-12T07:31:46Z</time>
      </trkpt>
      <trkpt lat="43.25555" lon="5.95943">
        <ele>378.28125</ele>
        <time>2019-05-12T07:31:53Z</time>
      </trkpt>
      <trkpt lat="43.25542" lon="5.95943">
        <ele>379.1953125</ele>
        <time>2019-05-12T07:32:04Z</time>
      </trkpt>
      <trkpt lat="43.25541" lon="5.95944">
        <ele>379.1171875</ele>
        <time>2019-05-12T07:32:05Z</time>
      </trkpt>
      <trkpt lat="43.2554" lon="5.95945">
        <ele>379.02734375</ele>
        <time>2019-05-12T07:32:06Z</time>
      </trkpt>
      <trkpt lat="43.25532" lon="5.9597">
        <ele>376.921875</ele>
        <time>2019-05-12T07:32:21Z</time>
      </trkpt>
      <trkpt lat="43.25515" lon="5.95991">
        <ele>377.359375</ele>
        <time>2019-05-12T07:32:36Z</time>
      </trkpt>
      <trkpt lat="43.25502" lon="5.95979">
        <ele>380.1953125</ele>
        <time>2019-05-12T07:32:48Z</time>
      </trkpt>
      <trkpt lat="43.25502" lon="5.95977">
        <ele>380.421875</ele>
        <time>2019-05-12T07:32:49Z</time>
      </trkpt>
      <trkpt lat="43.255" lon="5.95974">
        <ele>380.90625</ele>
        <time>2019-05-12T07:32:51Z</time>
      </trkpt>
      <trkpt lat="43.255" lon="5.95973">
        <ele>381.11328125</ele>
        <time>2019-05-12T07:32:52Z</time>
      </trkpt>
      <trkpt lat="43.25499" lon="5.9597">
        <ele>381.5078125</ele>
        <time>2019-05-12T07:32:54Z</time>
      </trkpt>
      <trkpt lat="43.25499" lon="5.95968">
        <ele>381.69921875</ele>
        <time>2019-05-12T07:32:55Z</time>
      </trkpt>
      <trkpt lat="43.25495" lon="5.95944">
        <ele>385.0546875</ele>
        <time>2019-05-12T07:33:09Z</time>
      </trkpt>
      <trkpt lat="43.25495" lon="5.95942">
        <ele>385.234375</ele>
        <time>2019-05-12T07:33:10Z</time>
      </trkpt>
      <trkpt lat="43.25496" lon="5.9594">
        <ele>385.40234375</ele>
        <time>2019-05-12T07:33:11Z</time>
      </trkpt>
      <trkpt lat="43.25495" lon="5.95924">
        <ele>387.28125</ele>
        <time>2019-05-12T07:33:20Z</time>
      </trkpt>
      <trkpt lat="43.25496" lon="5.95917">
        <ele>387.85546875</ele>
        <time>2019-05-12T07:33:24Z</time>
      </trkpt>
      <trkpt lat="43.25497" lon="5.95908">
        <ele>388.93359375</ele>
        <time>2019-05-12T07:33:29Z</time>
      </trkpt>
      <trkpt lat="43.25498" lon="5.95907">
        <ele>389.02734375</ele>
        <time>2019-05-12T07:33:30Z</time>
      </trkpt>
      <trkpt lat="43.25498" lon="5.95905">
        <ele>389.1796875</ele>
        <time>2019-05-12T07:33:31Z</time>
      </trkpt>
      <trkpt lat="43.25499" lon="5.95904">
        <ele>389.2734375</ele>
        <time>2019-05-12T07:33:32Z</time>
      </trkpt>
      <trkpt lat="43.255" lon="5.95901">
        <ele>389.4453125</ele>
        <time>2019-05-12T07:33:34Z</time>
      </trkpt>
      <trkpt lat="43.25506" lon="5.95891">
        <ele>390.18359375</ele>
        <time>2019-05-12T07:33:41Z</time>
      </trkpt>
      <trkpt lat="43.25507" lon="5.95889">
        <ele>390.37109375</ele>
        <time>2019-05-12T07:33:42Z</time>
      </trkpt>
      <trkpt lat="43.25514" lon="5.95875">
        <ele>391.75390625</ele>
        <time>2019-05-12T07:33:51Z</time>
      </trkpt>
      <trkpt lat="43.25521" lon="5.95865">
        <ele>392.5078125</ele>
        <time>2019-05-12T07:33:58Z</time>
      </trkpt>
      <trkpt lat="43.25522" lon="5.95864">
        <ele>392.6640625</ele>
        <time>2019-05-12T07:33:59Z</time>
      </trkpt>
      <trkpt lat="43.25527" lon="5.9585">
        <ele>393.5703125</ele>
        <time>2019-05-12T07:34:05Z</time>
      </trkpt>
      <trkpt lat="43.25531" lon="5.95843">
        <ele>393.79296875</ele>
        <time>2019-05-12T07:34:09Z</time>
      </trkpt>
      <trkpt lat="43.25539" lon="5.95834">
        <ele>393.96484375</ele>
        <time>2019-05-12T07:34:15Z</time>
      </trkpt>
      <trkpt lat="43.2554" lon="5.95833">
        <ele>393.90625</ele>
        <time>2019-05-12T07:34:16Z</time>
      </trkpt>
      <trkpt lat="43.25541" lon="5.95832">
        <ele>393.890625</ele>
        <time>2019-05-12T07:34:17Z</time>
      </trkpt>
      <trkpt lat="43.25543" lon="5.9583">
        <ele>393.89453125</ele>
        <time>2019-05-12T07:34:18Z</time>
      </trkpt>
      <trkpt lat="43.25544" lon="5.95829">
        <ele>393.953125</ele>
        <time>2019-05-12T07:34:19Z</time>
      </trkpt>
      <trkpt lat="43.25545" lon="5.95827">
        <ele>393.984375</ele>
        <time>2019-05-12T07:34:20Z</time>
      </trkpt>
      <trkpt lat="43.25547" lon="5.95826">
        <ele>393.96484375</ele>
        <time>2019-05-12T07:34:21Z</time>
      </trkpt>
      <trkpt lat="43.25549" lon="5.95824">
        <ele>393.984375</ele>
        <time>2019-05-12T07:34:22Z</time>
      </trkpt>
      <trkpt lat="43.2555" lon="5.95823">
        <ele>394.00390625</ele>
        <time>2019-05-12T07:34:23Z</time>
      </trkpt>
      <trkpt lat="43.25552" lon="5.95821">
        <ele>394</ele>
        <time>2019-05-12T07:34:24Z</time>
      </trkpt>
      <trkpt lat="43.25572" lon="5.95791">
        <ele>394.69921875</ele>
        <time>2019-05-12T07:34:36Z</time>
      </trkpt>
      <trkpt lat="43.25594" lon="5.95761">
        <ele>394.3828125</ele>
        <time>2019-05-12T07:34:48Z</time>
      </trkpt>
      <trkpt lat="43.25606" lon="5.95714">
        <ele>397.72265625</ele>
        <time>2019-05-12T07:35:02Z</time>
      </trkpt>
      <trkpt lat="43.25629" lon="5.95682">
        <ele>397.35546875</ele>
        <time>2019-05-12T07:35:16Z</time>
      </trkpt>
      <trkpt lat="43.25638" lon="5.95666">
        <ele>397.75</ele>
        <time>2019-05-12T07:35:22Z</time>
      </trkpt>
      <trkpt lat="43.25639" lon="5.95662">
        <ele>398.05078125</ele>
        <time>2019-05-12T07:35:23Z</time>
      </trkpt>
      <trkpt lat="43.2565" lon="5.9563">
        <ele>398.66015625</ele>
        <time>2019-05-12T07:35:36Z</time>
      </trkpt>
      <trkpt lat="43.25665" lon="5.95607">
        <ele>397.87109375</ele>
        <time>2019-05-12T07:35:49Z</time>
      </trkpt>
      <trkpt lat="43.25678" lon="5.95576">
        <ele>398.83984375</ele>
        <time>2019-05-12T07:36:04Z</time>
      </trkpt>
      <trkpt lat="43.25687" lon="5.95537">
        <ele>402.04296875</ele>
        <time>2019-05-12T07:36:21Z</time>
      </trkpt>
      <trkpt lat="43.25691" lon="5.95505">
        <ele>405.140625</ele>
        <time>2019-05-12T07:36:33Z</time>
      </trkpt>
      <trkpt lat="43.25691" lon="5.95495">
        <ele>406.16796875</ele>
        <time>2019-05-12T07:36:37Z</time>
      </trkpt>
      <trkpt lat="43.25691" lon="5.95492">
        <ele>406.42578125</ele>
        <time>2019-05-12T07:36:38Z</time>
      </trkpt>
      <trkpt lat="43.25691" lon="5.95489">
        <ele>406.64453125</ele>
        <time>2019-05-12T07:36:39Z</time>
      </trkpt>
      <trkpt lat="43.25691" lon="5.95487">
        <ele>406.75</ele>
        <time>2019-05-12T07:36:40Z</time>
      </trkpt>
      <trkpt lat="43.25691" lon="5.95484">
        <ele>406.9609375</ele>
        <time>2019-05-12T07:36:41Z</time>
      </trkpt>
      <trkpt lat="43.25691" lon="5.95481">
        <ele>407.18359375</ele>
        <time>2019-05-12T07:36:42Z</time>
      </trkpt>
      <trkpt lat="43.25691" lon="5.95478">
        <ele>407.60546875</ele>
        <time>2019-05-12T07:36:43Z</time>
      </trkpt>
      <trkpt lat="43.25691" lon="5.95475">
        <ele>407.91015625</ele>
        <time>2019-05-12T07:36:44Z</time>
      </trkpt>
      <trkpt lat="43.25691" lon="5.95472">
        <ele>408.17578125</ele>
        <time>2019-05-12T07:36:45Z</time>
      </trkpt>
      <trkpt lat="43.25691" lon="5.95469">
        <ele>408.23828125</ele>
        <time>2019-05-12T07:36:46Z</time>
      </trkpt>
      <trkpt lat="43.25692" lon="5.95466">
        <ele>408.26953125</ele>
        <time>2019-05-12T07:36:47Z</time>
      </trkpt>
      <trkpt lat="43.25705" lon="5.95433">
        <ele>406.97265625</ele>
        <time>2019-05-12T07:36:58Z</time>
      </trkpt>
      <trkpt lat="43.25717" lon="5.95382">
        <ele>408.84375</ele>
        <time>2019-05-12T07:37:12Z</time>
      </trkpt>
      <trkpt lat="43.25724" lon="5.95345">
        <ele>411.9375</ele>
        <time>2019-05-12T07:37:25Z</time>
      </trkpt>
      <trkpt lat="43.25736" lon="5.95301">
        <ele>413.33203125</ele>
        <time>2019-05-12T07:37:40Z</time>
      </trkpt>
      <trkpt lat="43.25742" lon="5.95269">
        <ele>414.47265625</ele>
        <time>2019-05-12T07:37:53Z</time>
      </trkpt>
      <trkpt lat="43.25742" lon="5.95266">
        <ele>414.53515625</ele>
        <time>2019-05-12T07:37:54Z</time>
      </trkpt>
      <trkpt lat="43.25742" lon="5.95265">
        <ele>414.57421875</ele>
        <time>2019-05-12T07:37:55Z</time>
      </trkpt>
      <trkpt lat="43.25741" lon="5.95263">
        <ele>414.80859375</ele>
        <time>2019-05-12T07:38:12Z</time>
      </trkpt>
      <trkpt lat="43.25745" lon="5.9525">
        <ele>414.69140625</ele>
        <time>2019-05-12T07:38:24Z</time>
      </trkpt>
      <trkpt lat="43.25745" lon="5.95247">
        <ele>414.64453125</ele>
        <time>2019-05-12T07:38:25Z</time>
      </trkpt>
      <trkpt lat="43.25746" lon="5.95243">
        <ele>414.44140625</ele>
        <time>2019-05-12T07:38:26Z</time>
      </trkpt>
      <trkpt lat="43.25746" lon="5.95239">
        <ele>414.3203125</ele>
        <time>2019-05-12T07:38:27Z</time>
      </trkpt>
      <trkpt lat="43.25745" lon="5.95234">
        <ele>414.234375</ele>
        <time>2019-05-12T07:38:28Z</time>
      </trkpt>
      <trkpt lat="43.25741" lon="5.95202">
        <ele>414.03515625</ele>
        <time>2019-05-12T07:38:33Z</time>
      </trkpt>
      <trkpt lat="43.2574" lon="5.95194">
        <ele>413.859375</ele>
        <time>2019-05-12T07:38:34Z</time>
      </trkpt>
      <trkpt lat="43.2574" lon="5.95187">
        <ele>413.53515625</ele>
        <time>2019-05-12T07:38:35Z</time>
      </trkpt>
      <trkpt lat="43.25739" lon="5.9518">
        <ele>413.3984375</ele>
        <time>2019-05-12T07:38:36Z</time>
      </trkpt>
      <trkpt lat="43.25737" lon="5.95174">
        <ele>413.578125</ele>
        <time>2019-05-12T07:38:37Z</time>
      </trkpt>
      <trkpt lat="43.25734" lon="5.95168">
        <ele>414.0546875</ele>
        <time>2019-05-12T07:38:38Z</time>
      </trkpt>
      <trkpt lat="43.25731" lon="5.95162">
        <ele>414.515625</ele>
        <time>2019-05-12T07:38:39Z</time>
      </trkpt>
      <trkpt lat="43.25728" lon="5.95155">
        <ele>414.63671875</ele>
        <time>2019-05-12T07:38:40Z</time>
      </trkpt>
      <trkpt lat="43.25728" lon="5.95148">
        <ele>414.33203125</ele>
        <time>2019-05-12T07:38:41Z</time>
      </trkpt>
      <trkpt lat="43.25728" lon="5.9514">
        <ele>413.77734375</ele>
        <time>2019-05-12T07:38:42Z</time>
      </trkpt>
      <trkpt lat="43.25729" lon="5.95133">
        <ele>413.2734375</ele>
        <time>2019-05-12T07:38:43Z</time>
      </trkpt>
      <trkpt lat="43.2573" lon="5.95126">
        <ele>412.73828125</ele>
        <time>2019-05-12T07:38:44Z</time>
      </trkpt>
      <trkpt lat="43.25732" lon="5.9512">
        <ele>412.19921875</ele>
        <time>2019-05-12T07:38:45Z</time>
      </trkpt>
      <trkpt lat="43.25734" lon="5.95114">
        <ele>411.67578125</ele>
        <time>2019-05-12T07:38:46Z</time>
      </trkpt>
      <trkpt lat="43.25735" lon="5.95092">
        <ele>411.12109375</ele>
        <time>2019-05-12T07:38:50Z</time>
      </trkpt>
      <trkpt lat="43.25734" lon="5.95086">
        <ele>411.203125</ele>
        <time>2019-05-12T07:38:51Z</time>
      </trkpt>
      <trkpt lat="43.25733" lon="5.9508">
        <ele>411.28125</ele>
        <time>2019-05-12T07:38:52Z</time>
      </trkpt>
      <trkpt lat="43.25733" lon="5.95075">
        <ele>411.37890625</ele>
        <time>2019-05-12T07:38:53Z</time>
      </trkpt>
      <trkpt lat="43.25732" lon="5.95069">
        <ele>411.57421875</ele>
        <time>2019-05-12T07:38:54Z</time>
      </trkpt>
      <trkpt lat="43.25731" lon="5.95063">
        <ele>411.859375</ele>
        <time>2019-05-12T07:38:55Z</time>
      </trkpt>
      <trkpt lat="43.25729" lon="5.95058">
        <ele>412.19140625</ele>
        <time>2019-05-12T07:38:56Z</time>
      </trkpt>
      <trkpt lat="43.25731" lon="5.95031">
        <ele>411.921875</ele>
        <time>2019-05-12T07:39:02Z</time>
      </trkpt>
      <trkpt lat="43.25732" lon="5.95027">
        <ele>411.73046875</ele>
        <time>2019-05-12T07:39:03Z</time>
      </trkpt>
      <trkpt lat="43.25733" lon="5.95024">
        <ele>411.65234375</ele>
        <time>2019-05-12T07:39:04Z</time>
      </trkpt>
      <trkpt lat="43.25734" lon="5.95021">
        <ele>411.65234375</ele>
        <time>2019-05-12T07:39:05Z</time>
      </trkpt>
      <trkpt lat="43.25735" lon="5.95019">
        <ele>411.6015625</ele>
        <time>2019-05-12T07:39:06Z</time>
      </trkpt>
      <trkpt lat="43.25736" lon="5.95015">
        <ele>411.5859375</ele>
        <time>2019-05-12T07:39:07Z</time>
      </trkpt>
      <trkpt lat="43.25738" lon="5.95013">
        <ele>411.5234375</ele>
        <time>2019-05-12T07:39:08Z</time>
      </trkpt>
      <trkpt lat="43.25738" lon="5.95009">
        <ele>411.609375</ele>
        <time>2019-05-12T07:39:09Z</time>
      </trkpt>
      <trkpt lat="43.25746" lon="5.94985">
        <ele>412.55078125</ele>
        <time>2019-05-12T07:39:23Z</time>
      </trkpt>
      <trkpt lat="43.25754" lon="5.9496">
        <ele>414.51171875</ele>
        <time>2019-05-12T07:39:38Z</time>
      </trkpt>
      <trkpt lat="43.25757" lon="5.94953">
        <ele>415.2421875</ele>
        <time>2019-05-12T07:39:43Z</time>
      </trkpt>
      <trkpt lat="43.25757" lon="5.94951">
        <ele>415.54296875</ele>
        <time>2019-05-12T07:39:44Z</time>
      </trkpt>
      <trkpt lat="43.25758" lon="5.94949">
        <ele>415.7265625</ele>
        <time>2019-05-12T07:39:45Z</time>
      </trkpt>
      <trkpt lat="43.2576" lon="5.94945">
        <ele>416.23046875</ele>
        <time>2019-05-12T07:39:48Z</time>
      </trkpt>
      <trkpt lat="43.25761" lon="5.94943">
        <ele>416.42578125</ele>
        <time>2019-05-12T07:39:49Z</time>
      </trkpt>
      <trkpt lat="43.25774" lon="5.9492">
        <ele>419.39453125</ele>
        <time>2019-05-12T07:40:04Z</time>
      </trkpt>
      <trkpt lat="43.25787" lon="5.94895">
        <ele>422.98046875</ele>
        <time>2019-05-12T07:40:19Z</time>
      </trkpt>
      <trkpt lat="43.25791" lon="5.94888">
        <ele>423.7890625</ele>
        <time>2019-05-12T07:40:24Z</time>
      </trkpt>
      <trkpt lat="43.25804" lon="5.94877">
        <ele>424.73046875</ele>
        <time>2019-05-12T07:40:37Z</time>
      </trkpt>
      <trkpt lat="43.25805" lon="5.94877">
        <ele>424.73828125</ele>
        <time>2019-05-12T07:40:38Z</time>
      </trkpt>
      <trkpt lat="43.25811" lon="5.94873">
        <ele>424.52734375</ele>
        <time>2019-05-12T07:40:43Z</time>
      </trkpt>
      <trkpt lat="43.25813" lon="5.94874">
        <ele>424.1796875</ele>
        <time>2019-05-12T07:40:44Z</time>
      </trkpt>
      <trkpt lat="43.25817" lon="5.94873">
        <ele>423.359375</ele>
        <time>2019-05-12T07:40:47Z</time>
      </trkpt>
      <trkpt lat="43.25818" lon="5.94873">
        <ele>423.15625</ele>
        <time>2019-05-12T07:40:48Z</time>
      </trkpt>
      <trkpt lat="43.25835" lon="5.9487">
        <ele>420.0625</ele>
        <time>2019-05-12T07:41:03Z</time>
      </trkpt>
      <trkpt lat="43.25851" lon="5.94862">
        <ele>417.46875</ele>
        <time>2019-05-12T07:41:27Z</time>
      </trkpt>
      <trkpt lat="43.25882" lon="5.9483">
        <ele>413.94140625</ele>
        <time>2019-05-12T07:41:40Z</time>
      </trkpt>
      <trkpt lat="43.25906" lon="5.94787">
        <ele>418.25390625</ele>
        <time>2019-05-12T07:41:52Z</time>
      </trkpt>
      <trkpt lat="43.25936" lon="5.9474">
        <ele>423.40625</ele>
        <time>2019-05-12T07:42:08Z</time>
      </trkpt>
      <trkpt lat="43.25952" lon="5.94711">
        <ele>426.265625</ele>
        <time>2019-05-12T07:42:21Z</time>
      </trkpt>
      <trkpt lat="43.25964" lon="5.94678">
        <ele>429.33203125</ele>
        <time>2019-05-12T07:42:35Z</time>
      </trkpt>
      <trkpt lat="43.2597" lon="5.94641">
        <ele>431.84375</ele>
        <time>2019-05-12T07:42:48Z</time>
      </trkpt>
      <trkpt lat="43.2597" lon="5.94604">
        <ele>433.6796875</ele>
        <time>2019-05-12T07:43:02Z</time>
      </trkpt>
      <trkpt lat="43.25945" lon="5.9457">
        <ele>439.28125</ele>
        <time>2019-05-12T07:43:18Z</time>
      </trkpt>
      <trkpt lat="43.25929" lon="5.94532">
        <ele>441.15625</ele>
        <time>2019-05-12T07:43:32Z</time>
      </trkpt>
      <trkpt lat="43.25923" lon="5.94506">
        <ele>443.07421875</ele>
        <time>2019-05-12T07:43:39Z</time>
      </trkpt>
      <trkpt lat="43.25924" lon="5.94501">
        <ele>443.09765625</ele>
        <time>2019-05-12T07:43:40Z</time>
      </trkpt>
      <trkpt lat="43.25926" lon="5.94497">
        <ele>442.92578125</ele>
        <time>2019-05-12T07:43:41Z</time>
      </trkpt>
      <trkpt lat="43.25929" lon="5.94493">
        <ele>442.70703125</ele>
        <time>2019-05-12T07:43:42Z</time>
      </trkpt>
      <trkpt lat="43.25931" lon="5.94489">
        <ele>442.421875</ele>
        <time>2019-05-12T07:43:43Z</time>
      </trkpt>
      <trkpt lat="43.25935" lon="5.94486">
        <ele>442.01171875</ele>
        <time>2019-05-12T07:43:44Z</time>
      </trkpt>
      <trkpt lat="43.25938" lon="5.94484">
        <ele>441.640625</ele>
        <time>2019-05-12T07:43:45Z</time>
      </trkpt>
      <trkpt lat="43.25969" lon="5.94444">
        <ele>440.6796875</ele>
        <time>2019-05-12T07:43:57Z</time>
      </trkpt>
      <trkpt lat="43.25988" lon="5.94422">
        <ele>438.95703125</ele>
        <time>2019-05-12T07:44:03Z</time>
      </trkpt>
      <trkpt lat="43.25991" lon="5.94417">
        <ele>438.74609375</ele>
        <time>2019-05-12T07:44:04Z</time>
      </trkpt>
      <trkpt lat="43.26005" lon="5.94387">
        <ele>438.734375</ele>
        <time>2019-05-12T07:44:09Z</time>
      </trkpt>
      <trkpt lat="43.26055" lon="5.94336">
        <ele>437.10546875</ele>
        <time>2019-05-12T07:44:23Z</time>
      </trkpt>
      <trkpt lat="43.26074" lon="5.94312">
        <ele>436.6171875</ele>
        <time>2019-05-12T07:44:28Z</time>
      </trkpt>
      <trkpt lat="43.26078" lon="5.94306">
        <ele>436.53125</ele>
        <time>2019-05-12T07:44:29Z</time>
      </trkpt>
      <trkpt lat="43.26083" lon="5.943">
        <ele>436.26953125</ele>
        <time>2019-05-12T07:44:30Z</time>
      </trkpt>
      <trkpt lat="43.26113" lon="5.9426">
        <ele>434.65234375</ele>
        <time>2019-05-12T07:44:37Z</time>
      </trkpt>
      <trkpt lat="43.26161" lon="5.94183">
        <ele>427.81640625</ele>
        <time>2019-05-12T07:44:49Z</time>
      </trkpt>
      <trkpt lat="43.26174" lon="5.94153">
        <ele>424.83203125</ele>
        <time>2019-05-12T07:44:54Z</time>
      </trkpt>
      <trkpt lat="43.26179" lon="5.94134">
        <ele>423.90234375</ele>
        <time>2019-05-12T07:44:57Z</time>
      </trkpt>
      <trkpt lat="43.2619" lon="5.94051">
        <ele>422.79296875</ele>
        <time>2019-05-12T07:45:09Z</time>
      </trkpt>
      <trkpt lat="43.2619" lon="5.94043">
        <ele>422.80859375</ele>
        <time>2019-05-12T07:45:10Z</time>
      </trkpt>
      <trkpt lat="43.26189" lon="5.94027">
        <ele>423.13671875</ele>
        <time>2019-05-12T07:45:12Z</time>
      </trkpt>
      <trkpt lat="43.26187" lon="5.94019">
        <ele>423.47265625</ele>
        <time>2019-05-12T07:45:13Z</time>
      </trkpt>
      <trkpt lat="43.26184" lon="5.94011">
        <ele>424.05859375</ele>
        <time>2019-05-12T07:45:14Z</time>
      </trkpt>
      <trkpt lat="43.26181" lon="5.94003">
        <ele>424.64453125</ele>
        <time>2019-05-12T07:45:15Z</time>
      </trkpt>
      <trkpt lat="43.2618" lon="5.93995">
        <ele>424.828125</ele>
        <time>2019-05-12T07:45:16Z</time>
      </trkpt>
      <trkpt lat="43.26181" lon="5.93987">
        <ele>424.5625</ele>
        <time>2019-05-12T07:45:17Z</time>
      </trkpt>
      <trkpt lat="43.26184" lon="5.9398">
        <ele>423.93359375</ele>
        <time>2019-05-12T07:45:18Z</time>
      </trkpt>
      <trkpt lat="43.26188" lon="5.93973">
        <ele>423.12109375</ele>
        <time>2019-05-12T07:45:19Z</time>
      </trkpt>
      <trkpt lat="43.26192" lon="5.93966">
        <ele>422.4453125</ele>
        <time>2019-05-12T07:45:20Z</time>
      </trkpt>
      <trkpt lat="43.26206" lon="5.93938">
        <ele>420.3515625</ele>
        <time>2019-05-12T07:45:24Z</time>
      </trkpt>
      <trkpt lat="43.26209" lon="5.9393">
        <ele>419.84765625</ele>
        <time>2019-05-12T07:45:25Z</time>
      </trkpt>
      <trkpt lat="43.26211" lon="5.93923">
        <ele>419.45703125</ele>
        <time>2019-05-12T07:45:26Z</time>
      </trkpt>
      <trkpt lat="43.26213" lon="5.93915">
        <ele>419.171875</ele>
        <time>2019-05-12T07:45:27Z</time>
      </trkpt>
      <trkpt lat="43.26214" lon="5.93908">
        <ele>418.9921875</ele>
        <time>2019-05-12T07:45:28Z</time>
      </trkpt>
      <trkpt lat="43.26226" lon="5.93859">
        <ele>417.84765625</ele>
        <time>2019-05-12T07:45:38Z</time>
      </trkpt>
      <trkpt lat="43.26228" lon="5.93858">
        <ele>417.52734375</ele>
        <time>2019-05-12T07:45:48Z</time>
      </trkpt>
      <trkpt lat="43.26227" lon="5.93858">
        <ele>417.7734375</ele>
        <time>2019-05-12T07:46:08Z</time>
      </trkpt>
      <trkpt lat="43.26226" lon="5.93856">
        <ele>418.0546875</ele>
        <time>2019-05-12T07:46:36Z</time>
      </trkpt>
      <trkpt lat="43.26226" lon="5.93857">
        <ele>418.01953125</ele>
        <time>2019-05-12T07:47:03Z</time>
      </trkpt>
      <trkpt lat="43.26226" lon="5.93857">
        <ele>417.91796875</ele>
        <time>2019-05-12T07:47:10Z</time>
      </trkpt>
      <trkpt lat="43.26228" lon="5.93857">
        <ele>417.51953125</ele>
        <time>2019-05-12T07:47:38Z</time>
      </trkpt>
      <trkpt lat="43.26227" lon="5.93857">
        <ele>417.640625</ele>
        <time>2019-05-12T07:48:05Z</time>
      </trkpt>
      <trkpt lat="43.26227" lon="5.93856">
        <ele>417.8046875</ele>
        <time>2019-05-12T07:48:32Z</time>
      </trkpt>
      <trkpt lat="43.26228" lon="5.93858">
        <ele>417.57421875</ele>
        <time>2019-05-12T07:49:00Z</time>
      </trkpt>
      <trkpt lat="43.26228" lon="5.93859">
        <ele>417.41015625</ele>
        <time>2019-05-12T07:49:01Z</time>
      </trkpt>
      <trkpt lat="43.26228" lon="5.93861">
        <ele>417.30859375</ele>
        <time>2019-05-12T07:49:02Z</time>
      </trkpt>
      <trkpt lat="43.26228" lon="5.93864">
        <ele>417.234375</ele>
        <time>2019-05-12T07:49:03Z</time>
      </trkpt>
      <trkpt lat="43.26228" lon="5.93866">
        <ele>417.1015625</ele>
        <time>2019-05-12T07:49:04Z</time>
      </trkpt>
      <trkpt lat="43.26231" lon="5.93908">
        <ele>414.9921875</ele>
        <time>2019-05-12T07:49:13Z</time>
      </trkpt>
      <trkpt lat="43.2624" lon="5.93946">
        <ele>411.62109375</ele>
        <time>2019-05-12T07:49:20Z</time>
      </trkpt>
      <trkpt lat="43.26239" lon="5.93952">
        <ele>411.7109375</ele>
        <time>2019-05-12T07:49:21Z</time>
      </trkpt>
      <trkpt lat="43.2623" lon="5.93972">
        <ele>413.5</ele>
        <time>2019-05-12T07:49:25Z</time>
      </trkpt>
      <trkpt lat="43.26217" lon="5.94015">
        <ele>416.1171875</ele>
        <time>2019-05-12T07:49:34Z</time>
      </trkpt>
      <trkpt lat="43.26213" lon="5.94031">
        <ele>416.92578125</ele>
        <time>2019-05-12T07:49:39Z</time>
      </trkpt>
      <trkpt lat="43.26208" lon="5.94059">
        <ele>417.58984375</ele>
        <time>2019-05-12T07:49:52Z</time>
      </trkpt>
      <trkpt lat="43.26209" lon="5.94065">
        <ele>417.109375</ele>
        <time>2019-05-12T07:50:04Z</time>
      </trkpt>
      <trkpt lat="43.26208" lon="5.94083">
        <ele>416.14453125</ele>
        <time>2019-05-12T07:50:16Z</time>
      </trkpt>
      <trkpt lat="43.26204" lon="5.9409">
        <ele>417.09375</ele>
        <time>2019-05-12T07:50:19Z</time>
      </trkpt>
      <trkpt lat="43.26192" lon="5.94114">
        <ele>420.69140625</ele>
        <time>2019-05-12T07:50:32Z</time>
      </trkpt>
      <trkpt lat="43.26188" lon="5.94121">
        <ele>421.66015625</ele>
        <time>2019-05-12T07:50:37Z</time>
      </trkpt>
      <trkpt lat="43.26184" lon="5.94138">
        <ele>421.78515625</ele>
        <time>2019-05-12T07:50:52Z</time>
      </trkpt>
      <trkpt lat="43.26183" lon="5.94144">
        <ele>421.90625</ele>
        <time>2019-05-12T07:51:06Z</time>
      </trkpt>
      <trkpt lat="43.26177" lon="5.94179">
        <ele>423.2578125</ele>
        <time>2019-05-12T07:51:21Z</time>
      </trkpt>
      <trkpt lat="43.26163" lon="5.94212">
        <ele>427.30078125</ele>
        <time>2019-05-12T07:51:32Z</time>
      </trkpt>
      <trkpt lat="43.26152" lon="5.94234">
        <ele>429.25</ele>
        <time>2019-05-12T07:51:39Z</time>
      </trkpt>
      <trkpt lat="43.26149" lon="5.94236">
        <ele>429.6953125</ele>
        <time>2019-05-12T07:51:40Z</time>
      </trkpt>
      <trkpt lat="43.26148" lon="5.94239">
        <ele>429.95703125</ele>
        <time>2019-05-12T07:51:41Z</time>
      </trkpt>
      <trkpt lat="43.26147" lon="5.94242">
        <ele>430.07421875</ele>
        <time>2019-05-12T07:51:42Z</time>
      </trkpt>
      <trkpt lat="43.26146" lon="5.94246">
        <ele>430.17578125</ele>
        <time>2019-05-12T07:51:43Z</time>
      </trkpt>
      <trkpt lat="43.26146" lon="5.94249">
        <ele>430.28125</ele>
        <time>2019-05-12T07:51:44Z</time>
      </trkpt>
      <trkpt lat="43.26146" lon="5.94265">
        <ele>430.3828125</ele>
        <time>2019-05-12T07:51:49Z</time>
      </trkpt>
      <trkpt lat="43.26141" lon="5.94295">
        <ele>431.75</ele>
        <time>2019-05-12T07:51:57Z</time>
      </trkpt>
      <trkpt lat="43.26135" lon="5.94306">
        <ele>432.42578125</ele>
        <time>2019-05-12T07:52:00Z</time>
      </trkpt>
      <trkpt lat="43.26135" lon="5.94311">
        <ele>432.28125</ele>
        <time>2019-05-12T07:52:01Z</time>
      </trkpt>
      <trkpt lat="43.26136" lon="5.94315">
        <ele>432.05078125</ele>
        <time>2019-05-12T07:52:02Z</time>
      </trkpt>
      <trkpt lat="43.26141" lon="5.94345">
        <ele>430.609375</ele>
        <time>2019-05-12T07:52:08Z</time>
      </trkpt>
      <trkpt lat="43.26141" lon="5.94351">
        <ele>430.3984375</ele>
        <time>2019-05-12T07:52:09Z</time>
      </trkpt>
      <trkpt lat="43.26141" lon="5.94357">
        <ele>430.18359375</ele>
        <time>2019-05-12T07:52:10Z</time>
      </trkpt>
      <trkpt lat="43.2614" lon="5.94363">
        <ele>430.1953125</ele>
        <time>2019-05-12T07:52:11Z</time>
      </trkpt>
      <trkpt lat="43.2614" lon="5.94369">
        <ele>430.2421875</ele>
        <time>2019-05-12T07:52:12Z</time>
      </trkpt>
      <trkpt lat="43.2614" lon="5.94376">
        <ele>430.19921875</ele>
        <time>2019-05-12T07:52:13Z</time>
      </trkpt>
      <trkpt lat="43.2614" lon="5.94382">
        <ele>430.1953125</ele>
        <time>2019-05-12T07:52:14Z</time>
      </trkpt>
      <trkpt lat="43.26139" lon="5.94396">
        <ele>430.57421875</ele>
        <time>2019-05-12T07:52:17Z</time>
      </trkpt>
      <trkpt lat="43.26113" lon="5.94424">
        <ele>432.98828125</ele>
        <time>2019-05-12T07:52:25Z</time>
      </trkpt>
      <trkpt lat="43.26109" lon="5.94426">
        <ele>432.93359375</ele>
        <time>2019-05-12T07:52:26Z</time>
      </trkpt>
      <trkpt lat="43.26106" lon="5.94429">
        <ele>432.859375</ele>
        <time>2019-05-12T07:52:27Z</time>
      </trkpt>
      <trkpt lat="43.26097" lon="5.94434">
        <ele>432.5703125</ele>
        <time>2019-05-12T07:52:30Z</time>
      </trkpt>
      <trkpt lat="43.26087" lon="5.94441">
        <ele>432.109375</ele>
        <time>2019-05-12T07:52:33Z</time>
      </trkpt>
      <trkpt lat="43.26085" lon="5.94445">
        <ele>431.94140625</ele>
        <time>2019-05-12T07:52:34Z</time>
      </trkpt>
      <trkpt lat="43.26073" lon="5.9446">
        <ele>431.09375</ele>
        <time>2019-05-12T07:52:39Z</time>
      </trkpt>
      <trkpt lat="43.26075" lon="5.94466">
        <ele>430.828125</ele>
        <time>2019-05-12T07:52:41Z</time>
      </trkpt>
      <trkpt lat="43.26078" lon="5.9447">
        <ele>430.75390625</ele>
        <time>2019-05-12T07:52:42Z</time>
      </trkpt>
      <trkpt lat="43.26081" lon="5.94472">
        <ele>430.74609375</ele>
        <time>2019-05-12T07:52:43Z</time>
      </trkpt>
      <trkpt lat="43.26086" lon="5.94479">
        <ele>430.703125</ele>
        <time>2019-05-12T07:52:45Z</time>
      </trkpt>
      <trkpt lat="43.2609" lon="5.94486">
        <ele>430.97265625</ele>
        <time>2019-05-12T07:52:47Z</time>
      </trkpt>
      <trkpt lat="43.26093" lon="5.94493">
        <ele>431.0703125</ele>
        <time>2019-05-12T07:52:49Z</time>
      </trkpt>
      <trkpt lat="43.26091" lon="5.94518">
        <ele>429.86328125</ele>
        <time>2019-05-12T07:52:52Z</time>
      </trkpt>
      <trkpt lat="43.26087" lon="5.94533">
        <ele>428.5546875</ele>
        <time>2019-05-12T07:52:54Z</time>
      </trkpt>
      <trkpt lat="43.26084" lon="5.94541">
        <ele>427.7109375</ele>
        <time>2019-05-12T07:52:55Z</time>
      </trkpt>
      <trkpt lat="43.26082" lon="5.94547">
        <ele>426.84765625</ele>
        <time>2019-05-12T07:52:56Z</time>
      </trkpt>
      <trkpt lat="43.26079" lon="5.94553">
        <ele>426.0703125</ele>
        <time>2019-05-12T07:52:57Z</time>
      </trkpt>
      <trkpt lat="43.26076" lon="5.94559">
        <ele>425.14453125</ele>
        <time>2019-05-12T07:52:58Z</time>
      </trkpt>
      <trkpt lat="43.26069" lon="5.94574">
        <ele>423.1171875</ele>
        <time>2019-05-12T07:53:00Z</time>
      </trkpt>
      <trkpt lat="43.26067" lon="5.94596">
        <ele>420.73828125</ele>
        <time>2019-05-12T07:53:04Z</time>
      </trkpt>
      <trkpt lat="43.26061" lon="5.94621">
        <ele>417.55859375</ele>
        <time>2019-05-12T07:53:13Z</time>
      </trkpt>
      <trkpt lat="43.26061" lon="5.94621">
        <ele>417.45703125</ele>
        <time>2019-05-12T07:53:18Z</time>
      </trkpt>
      <trkpt lat="43.26058" lon="5.94633">
        <ele>416.296875</ele>
        <time>2019-05-12T07:53:23Z</time>
      </trkpt>
      <trkpt lat="43.26048" lon="5.94683">
        <ele>411.13671875</ele>
        <time>2019-05-12T07:53:34Z</time>
      </trkpt>
      <trkpt lat="43.26047" lon="5.94687">
        <ele>410.7265625</ele>
        <time>2019-05-12T07:53:35Z</time>
      </trkpt>
      <trkpt lat="43.26038" lon="5.94709">
        <ele>408.6953125</ele>
        <time>2019-05-12T07:53:41Z</time>
      </trkpt>
      <trkpt lat="43.2603" lon="5.94724">
        <ele>407.85546875</ele>
        <time>2019-05-12T07:53:45Z</time>
      </trkpt>
      <trkpt lat="43.26026" lon="5.94728">
        <ele>408.3671875</ele>
        <time>2019-05-12T07:53:47Z</time>
      </trkpt>
      <trkpt lat="43.26025" lon="5.94731">
        <ele>408.19140625</ele>
        <time>2019-05-12T07:53:48Z</time>
      </trkpt>
      <trkpt lat="43.26025" lon="5.94734">
        <ele>407.9296875</ele>
        <time>2019-05-12T07:53:49Z</time>
      </trkpt>
      <trkpt lat="43.26023" lon="5.94736">
        <ele>408</ele>
        <time>2019-05-12T07:53:50Z</time>
      </trkpt>
      <trkpt lat="43.26021" lon="5.94738">
        <ele>408.171875</ele>
        <time>2019-05-12T07:53:51Z</time>
      </trkpt>
      <trkpt lat="43.26019" lon="5.9474">
        <ele>408.26171875</ele>
        <time>2019-05-12T07:53:52Z</time>
      </trkpt>
      <trkpt lat="43.26017" lon="5.94744">
        <ele>408.30078125</ele>
        <time>2019-05-12T07:53:53Z</time>
      </trkpt>
      <trkpt lat="43.26013" lon="5.94747">
        <ele>408.40625</ele>
        <time>2019-05-12T07:53:54Z</time>
      </trkpt>
      <trkpt lat="43.2601" lon="5.9475">
        <ele>408.5625</ele>
        <time>2019-05-12T07:53:55Z</time>
      </trkpt>
      <trkpt lat="43.26006" lon="5.94753">
        <ele>408.6328125</ele>
        <time>2019-05-12T07:53:56Z</time>
      </trkpt>
      <trkpt lat="43.25998" lon="5.94763">
        <ele>408.41796875</ele>
        <time>2019-05-12T07:53:59Z</time>
      </trkpt>
      <trkpt lat="43.25978" lon="5.94774">
        <ele>409.2890625</ele>
        <time>2019-05-12T07:54:05Z</time>
      </trkpt>
      <trkpt lat="43.25973" lon="5.94773">
        <ele>409.8828125</ele>
        <time>2019-05-12T07:54:07Z</time>
      </trkpt>
      <trkpt lat="43.25968" lon="5.94778">
        <ele>409.2890625</ele>
        <time>2019-05-12T07:54:12Z</time>
      </trkpt>
      <trkpt lat="43.25965" lon="5.94782">
        <ele>408.44140625</ele>
        <time>2019-05-12T07:54:14Z</time>
      </trkpt>
      <trkpt lat="43.2596" lon="5.94793">
        <ele>405.9375</ele>
        <time>2019-05-12T07:54:16Z</time>
      </trkpt>
      <trkpt lat="43.25958" lon="5.94799">
        <ele>404.64453125</ele>
        <time>2019-05-12T07:54:17Z</time>
      </trkpt>
      <trkpt lat="43.25956" lon="5.94805">
        <ele>403.1640625</ele>
        <time>2019-05-12T07:54:18Z</time>
      </trkpt>
      <trkpt lat="43.25947" lon="5.9483">
        <ele>398.3984375</ele>
        <time>2019-05-12T07:54:27Z</time>
      </trkpt>
      <trkpt lat="43.25942" lon="5.94847">
        <ele>396.375</ele>
        <time>2019-05-12T07:54:33Z</time>
      </trkpt>
      <trkpt lat="43.2594" lon="5.9485">
        <ele>396.1953125</ele>
        <time>2019-05-12T07:54:34Z</time>
      </trkpt>
      <trkpt lat="43.25938" lon="5.94853">
        <ele>395.84765625</ele>
        <time>2019-05-12T07:54:35Z</time>
      </trkpt>
      <trkpt lat="43.25936" lon="5.94858">
        <ele>395.44140625</ele>
        <time>2019-05-12T07:54:36Z</time>
      </trkpt>
      <trkpt lat="43.25933" lon="5.94861">
        <ele>395.45703125</ele>
        <time>2019-05-12T07:54:37Z</time>
      </trkpt>
      <trkpt lat="43.2593" lon="5.94864">
        <ele>395.83203125</ele>
        <time>2019-05-12T07:54:38Z</time>
      </trkpt>
      <trkpt lat="43.25927" lon="5.94867">
        <ele>396.05078125</ele>
        <time>2019-05-12T07:54:39Z</time>
      </trkpt>
      <trkpt lat="43.25925" lon="5.94871">
        <ele>395.90625</ele>
        <time>2019-05-12T07:54:40Z</time>
      </trkpt>
      <trkpt lat="43.25923" lon="5.94875">
        <ele>395.75</ele>
        <time>2019-05-12T07:54:41Z</time>
      </trkpt>
      <trkpt lat="43.25922" lon="5.94878">
        <ele>395.71484375</ele>
        <time>2019-05-12T07:54:42Z</time>
      </trkpt>
      <trkpt lat="43.25918" lon="5.94884">
        <ele>395.69921875</ele>
        <time>2019-05-12T07:54:43Z</time>
      </trkpt>
      <trkpt lat="43.25915" lon="5.94889">
        <ele>395.90234375</ele>
        <time>2019-05-12T07:54:44Z</time>
      </trkpt>
      <trkpt lat="43.25912" lon="5.94894">
        <ele>396.25390625</ele>
        <time>2019-05-12T07:54:45Z</time>
      </trkpt>
      <trkpt lat="43.25909" lon="5.949">
        <ele>396.33984375</ele>
        <time>2019-05-12T07:54:46Z</time>
      </trkpt>
      <trkpt lat="43.25906" lon="5.94906">
        <ele>396.23046875</ele>
        <time>2019-05-12T07:54:47Z</time>
      </trkpt>
      <trkpt lat="43.25905" lon="5.94913">
        <ele>395.99609375</ele>
        <time>2019-05-12T07:54:48Z</time>
      </trkpt>
      <trkpt lat="43.25902" lon="5.94919">
        <ele>396.16796875</ele>
        <time>2019-05-12T07:54:49Z</time>
      </trkpt>
      <trkpt lat="43.259" lon="5.94925">
        <ele>396.48046875</ele>
        <time>2019-05-12T07:54:50Z</time>
      </trkpt>
      <trkpt lat="43.25898" lon="5.94931">
        <ele>396.57421875</ele>
        <time>2019-05-12T07:54:51Z</time>
      </trkpt>
      <trkpt lat="43.25896" lon="5.94946">
        <ele>396.42578125</ele>
        <time>2019-05-12T07:54:59Z</time>
      </trkpt>
      <trkpt lat="43.25897" lon="5.94953">
        <ele>396.16796875</ele>
        <time>2019-05-12T07:55:23Z</time>
      </trkpt>
      <trkpt lat="43.25896" lon="5.94955">
        <ele>396.19140625</ele>
        <time>2019-05-12T07:55:44Z</time>
      </trkpt>
      <trkpt lat="43.25896" lon="5.94956">
        <ele>396.21484375</ele>
        <time>2019-05-12T07:56:10Z</time>
      </trkpt>
      <trkpt lat="43.25894" lon="5.94953">
        <ele>396.421875</ele>
        <time>2019-05-12T07:56:40Z</time>
      </trkpt>
      <trkpt lat="43.25892" lon="5.94955">
        <ele>396.5390625</ele>
        <time>2019-05-12T07:57:06Z</time>
      </trkpt>
      <trkpt lat="43.25895" lon="5.94956">
        <ele>396.23046875</ele>
        <time>2019-05-12T07:57:14Z</time>
      </trkpt>
      <trkpt lat="43.259" lon="5.94953">
        <ele>395.8515625</ele>
        <time>2019-05-12T07:57:17Z</time>
      </trkpt>
      <trkpt lat="43.25904" lon="5.94956">
        <ele>395.48046875</ele>
        <time>2019-05-12T07:57:19Z</time>
      </trkpt>
      <trkpt lat="43.25907" lon="5.94962">
        <ele>395.07421875</ele>
        <time>2019-05-12T07:57:21Z</time>
      </trkpt>
      <trkpt lat="43.2591" lon="5.94963">
        <ele>394.84765625</ele>
        <time>2019-05-12T07:57:22Z</time>
      </trkpt>
      <trkpt lat="43.25924" lon="5.94958">
        <ele>393.5078125</ele>
        <time>2019-05-12T07:57:26Z</time>
      </trkpt>
      <trkpt lat="43.25937" lon="5.94956">
        <ele>392.13671875</ele>
        <time>2019-05-12T07:57:29Z</time>
      </trkpt>
      <trkpt lat="43.25943" lon="5.9495">
        <ele>391.4921875</ele>
        <time>2019-05-12T07:57:31Z</time>
      </trkpt>
      <trkpt lat="43.25964" lon="5.94945">
        <ele>389.859375</ele>
        <time>2019-05-12T07:57:38Z</time>
      </trkpt>
      <trkpt lat="43.25977" lon="5.94941">
        <ele>388.484375</ele>
        <time>2019-05-12T07:57:41Z</time>
      </trkpt>
      <trkpt lat="43.25999" lon="5.94927">
        <ele>382.984375</ele>
        <time>2019-05-12T07:57:46Z</time>
      </trkpt>
      <trkpt lat="43.26012" lon="5.94925">
        <ele>379.375</ele>
        <time>2019-05-12T07:57:53Z</time>
      </trkpt>
      <trkpt lat="43.26017" lon="5.94923">
        <ele>377.375</ele>
        <time>2019-05-12T07:57:57Z</time>
      </trkpt>
      <trkpt lat="43.26018" lon="5.94923">
        <ele>377.04296875</ele>
        <time>2019-05-12T07:57:58Z</time>
      </trkpt>
      <trkpt lat="43.2603" lon="5.9493">
        <ele>374.38671875</ele>
        <time>2019-05-12T07:58:03Z</time>
      </trkpt>
      <trkpt lat="43.26033" lon="5.94936">
        <ele>373.59765625</ele>
        <time>2019-05-12T07:58:05Z</time>
      </trkpt>
      <trkpt lat="43.26052" lon="5.9494">
        <ele>364.390625</ele>
        <time>2019-05-12T07:58:12Z</time>
      </trkpt>
      <trkpt lat="43.26057" lon="5.94939">
        <ele>361.6875</ele>
        <time>2019-05-12T07:58:13Z</time>
      </trkpt>
      <trkpt lat="43.2607" lon="5.94938">
        <ele>353.42578125</ele>
        <time>2019-05-12T07:58:26Z</time>
      </trkpt>
      <trkpt lat="43.26078" lon="5.94938">
        <ele>348.703125</ele>
        <time>2019-05-12T07:58:40Z</time>
      </trkpt>
      <trkpt lat="43.26085" lon="5.94941">
        <ele>344.73828125</ele>
        <time>2019-05-12T07:58:53Z</time>
      </trkpt>
      <trkpt lat="43.26089" lon="5.94944">
        <ele>342.51171875</ele>
        <time>2019-05-12T07:59:05Z</time>
      </trkpt>
      <trkpt lat="43.26091" lon="5.94951">
        <ele>341.96875</ele>
        <time>2019-05-12T07:59:18Z</time>
      </trkpt>
      <trkpt lat="43.26093" lon="5.94955">
        <ele>341.04296875</ele>
        <time>2019-05-12T07:59:29Z</time>
      </trkpt>
      <trkpt lat="43.26094" lon="5.94957">
        <ele>340.4375</ele>
        <time>2019-05-12T07:59:33Z</time>
      </trkpt>
      <trkpt lat="43.26098" lon="5.94958">
        <ele>337.93359375</ele>
        <time>2019-05-12T07:59:45Z</time>
      </trkpt>
      <trkpt lat="43.26098" lon="5.9496">
        <ele>337.69921875</ele>
        <time>2019-05-12T07:59:49Z</time>
      </trkpt>
      <trkpt lat="43.26099" lon="5.94966">
        <ele>336.60546875</ele>
        <time>2019-05-12T07:59:55Z</time>
      </trkpt>
      <trkpt lat="43.26102" lon="5.94966">
        <ele>334.52734375</ele>
        <time>2019-05-12T08:00:04Z</time>
      </trkpt>
      <trkpt lat="43.26103" lon="5.94963">
        <ele>334.24609375</ele>
        <time>2019-05-12T08:00:15Z</time>
      </trkpt>
      <trkpt lat="43.26109" lon="5.9496">
        <ele>330.3984375</ele>
        <time>2019-05-12T08:00:29Z</time>
      </trkpt>
      <trkpt lat="43.26109" lon="5.9496">
        <ele>330.46484375</ele>
        <time>2019-05-12T08:00:33Z</time>
      </trkpt>
      <trkpt lat="43.26112" lon="5.94962">
        <ele>328.24609375</ele>
        <time>2019-05-12T08:00:37Z</time>
      </trkpt>
      <trkpt lat="43.26119" lon="5.94972">
        <ele>322.953125</ele>
        <time>2019-05-12T08:00:48Z</time>
      </trkpt>
      <trkpt lat="43.26126" lon="5.94973">
        <ele>318.9765625</ele>
        <time>2019-05-12T08:01:00Z</time>
      </trkpt>
      <trkpt lat="43.26128" lon="5.94969">
        <ele>318.08984375</ele>
        <time>2019-05-12T08:01:14Z</time>
      </trkpt>
      <trkpt lat="43.26132" lon="5.94967">
        <ele>316.6015625</ele>
        <time>2019-05-12T08:01:30Z</time>
      </trkpt>
      <trkpt lat="43.26133" lon="5.9497">
        <ele>315.4453125</ele>
        <time>2019-05-12T08:01:40Z</time>
      </trkpt>
      <trkpt lat="43.26136" lon="5.94976">
        <ele>313.09375</ele>
        <time>2019-05-12T08:01:46Z</time>
      </trkpt>
      <trkpt lat="43.26142" lon="5.9498">
        <ele>309.3203125</ele>
        <time>2019-05-12T08:01:58Z</time>
      </trkpt>
      <trkpt lat="43.26144" lon="5.94982">
        <ele>308.3671875</ele>
        <time>2019-05-12T08:02:02Z</time>
      </trkpt>
      <trkpt lat="43.26149" lon="5.94986">
        <ele>305.68359375</ele>
        <time>2019-05-12T08:02:24Z</time>
      </trkpt>
      <trkpt lat="43.2615" lon="5.94986">
        <ele>305.296875</ele>
        <time>2019-05-12T08:02:43Z</time>
      </trkpt>
      <trkpt lat="43.26151" lon="5.94985">
        <ele>304.80859375</ele>
        <time>2019-05-12T08:02:51Z</time>
      </trkpt>
      <trkpt lat="43.26154" lon="5.94995">
        <ele>302.23828125</ele>
        <time>2019-05-12T08:02:56Z</time>
      </trkpt>
      <trkpt lat="43.26157" lon="5.95014">
        <ele>299.140625</ele>
        <time>2019-05-12T08:03:01Z</time>
      </trkpt>
      <trkpt lat="43.2616" lon="5.95019">
        <ele>297.40234375</ele>
        <time>2019-05-12T08:03:04Z</time>
      </trkpt>
      <trkpt lat="43.26167" lon="5.95016">
        <ele>294.046875</ele>
        <time>2019-05-12T08:03:16Z</time>
      </trkpt>
      <trkpt lat="43.26168" lon="5.95018">
        <ele>293.4765625</ele>
        <time>2019-05-12T08:03:26Z</time>
      </trkpt>
      <trkpt lat="43.26166" lon="5.95014">
        <ele>294.96484375</ele>
        <time>2019-05-12T08:03:41Z</time>
      </trkpt>
      <trkpt lat="43.26164" lon="5.95011">
        <ele>296.1015625</ele>
        <time>2019-05-12T08:04:00Z</time>
      </trkpt>
      <trkpt lat="43.26163" lon="5.95011">
        <ele>296.5234375</ele>
        <time>2019-05-12T08:04:05Z</time>
      </trkpt>
      <trkpt lat="43.2616" lon="5.94998">
        <ele>298.796875</ele>
        <time>2019-05-12T08:04:18Z</time>
      </trkpt>
      <trkpt lat="43.2616" lon="5.94991">
        <ele>299.76953125</ele>
        <time>2019-05-12T08:04:26Z</time>
      </trkpt>
      <trkpt lat="43.26159" lon="5.94985">
        <ele>300.890625</ele>
        <time>2019-05-12T08:04:29Z</time>
      </trkpt>
      <trkpt lat="43.2617" lon="5.94969">
        <ele>298.42578125</ele>
        <time>2019-05-12T08:04:39Z</time>
      </trkpt>
      <trkpt lat="43.26172" lon="5.94966">
        <ele>298.41796875</ele>
        <time>2019-05-12T08:04:56Z</time>
      </trkpt>
      <trkpt lat="43.2618" lon="5.94965">
        <ele>296.20703125</ele>
        <time>2019-05-12T08:05:12Z</time>
      </trkpt>
      <trkpt lat="43.2619" lon="5.9496">
        <ele>294.17578125</ele>
        <time>2019-05-12T08:05:29Z</time>
      </trkpt>
      <trkpt lat="43.26195" lon="5.94957">
        <ele>293.23046875</ele>
        <time>2019-05-12T08:05:47Z</time>
      </trkpt>
      <trkpt lat="43.26202" lon="5.94951">
        <ele>292.60546875</ele>
        <time>2019-05-12T08:06:06Z</time>
      </trkpt>
      <trkpt lat="43.26203" lon="5.94949">
        <ele>292.76953125</ele>
        <time>2019-05-12T08:06:13Z</time>
      </trkpt>
      <trkpt lat="43.26214" lon="5.94925">
        <ele>295.57421875</ele>
        <time>2019-05-12T08:06:24Z</time>
      </trkpt>
      <trkpt lat="43.26216" lon="5.9492">
        <ele>296.3359375</ele>
        <time>2019-05-12T08:06:26Z</time>
      </trkpt>
      <trkpt lat="43.2622" lon="5.94913">
        <ele>296.38671875</ele>
        <time>2019-05-12T08:06:29Z</time>
      </trkpt>
      <trkpt lat="43.26228" lon="5.94899">
        <ele>297.08984375</ele>
        <time>2019-05-12T08:06:37Z</time>
      </trkpt>
      <trkpt lat="43.26238" lon="5.94876">
        <ele>298.28515625</ele>
        <time>2019-05-12T08:06:53Z</time>
      </trkpt>
      <trkpt lat="43.26238" lon="5.94877">
        <ele>298.06640625</ele>
        <time>2019-05-12T08:06:56Z</time>
      </trkpt>
      <trkpt lat="43.26238" lon="5.94877">
        <ele>298.04296875</ele>
        <time>2019-05-12T08:06:57Z</time>
      </trkpt>
      <trkpt lat="43.26238" lon="5.94877">
        <ele>297.78125</ele>
        <time>2019-05-12T08:07:01Z</time>
      </trkpt>
      <trkpt lat="43.26242" lon="5.94868">
        <ele>298.05859375</ele>
        <time>2019-05-12T08:07:18Z</time>
      </trkpt>
      <trkpt lat="43.26245" lon="5.94862">
        <ele>298.3203125</ele>
        <time>2019-05-12T08:07:35Z</time>
      </trkpt>
      <trkpt lat="43.26244" lon="5.94861">
        <ele>299</ele>
        <time>2019-05-12T08:08:03Z</time>
      </trkpt>
      <trkpt lat="43.26243" lon="5.9486">
        <ele>299.7265625</ele>
        <time>2019-05-12T08:08:42Z</time>
      </trkpt>
      <trkpt lat="43.26244" lon="5.94863">
        <ele>298.21875</ele>
        <time>2019-05-12T08:09:06Z</time>
      </trkpt>
      <trkpt lat="43.26244" lon="5.94868">
        <ele>297.28125</ele>
        <time>2019-05-12T08:09:36Z</time>
      </trkpt>
      <trkpt lat="43.26242" lon="5.94867">
        <ele>298.6875</ele>
        <time>2019-05-12T08:10:08Z</time>
      </trkpt>
      <trkpt lat="43.26241" lon="5.94867">
        <ele>299.02734375</ele>
        <time>2019-05-12T08:10:38Z</time>
      </trkpt>
      <trkpt lat="43.26244" lon="5.94864">
        <ele>298.2265625</ele>
        <time>2019-05-12T08:11:12Z</time>
      </trkpt>
      <trkpt lat="43.26244" lon="5.94865">
        <ele>298.17578125</ele>
        <time>2019-05-12T08:11:41Z</time>
      </trkpt>
      <trkpt lat="43.26245" lon="5.94866">
        <ele>297.3828125</ele>
        <time>2019-05-12T08:12:09Z</time>
      </trkpt>
      <trkpt lat="43.26243" lon="5.94867">
        <ele>297.98046875</ele>
        <time>2019-05-12T08:12:35Z</time>
      </trkpt>
      <trkpt lat="43.2624" lon="5.94871">
        <ele>298.5703125</ele>
        <time>2019-05-12T08:13:05Z</time>
      </trkpt>
      <trkpt lat="43.2624" lon="5.9487">
        <ele>298.82421875</ele>
        <time>2019-05-12T08:13:27Z</time>
      </trkpt>
      <trkpt lat="43.26245" lon="5.9486">
        <ele>298.953125</ele>
        <time>2019-05-12T08:13:38Z</time>
      </trkpt>
      <trkpt lat="43.26249" lon="5.94849">
        <ele>300.0078125</ele>
        <time>2019-05-12T08:13:54Z</time>
      </trkpt>
      <trkpt lat="43.26251" lon="5.94846">
        <ele>299.8515625</ele>
        <time>2019-05-12T08:14:05Z</time>
      </trkpt>
      <trkpt lat="43.26264" lon="5.94827">
        <ele>298.90625</ele>
        <time>2019-05-12T08:14:17Z</time>
      </trkpt>
      <trkpt lat="43.26274" lon="5.94814">
        <ele>297.0390625</ele>
        <time>2019-05-12T08:14:26Z</time>
      </trkpt>
      <trkpt lat="43.26282" lon="5.94799">
        <ele>296.5546875</ele>
        <time>2019-05-12T08:14:37Z</time>
      </trkpt>
      <trkpt lat="43.2629" lon="5.94794">
        <ele>293.9296875</ele>
        <time>2019-05-12T08:14:51Z</time>
      </trkpt>
      <trkpt lat="43.26292" lon="5.94787">
        <ele>294.58984375</ele>
        <time>2019-05-12T08:14:56Z</time>
      </trkpt>
      <trkpt lat="43.26293" lon="5.94784">
        <ele>295.08984375</ele>
        <time>2019-05-12T08:15:05Z</time>
      </trkpt>
      <trkpt lat="43.26295" lon="5.94784">
        <ele>294.10546875</ele>
        <time>2019-05-12T08:15:28Z</time>
      </trkpt>
      <trkpt lat="43.26295" lon="5.94784">
        <ele>294.06640625</ele>
        <time>2019-05-12T08:15:52Z</time>
      </trkpt>
      <trkpt lat="43.26294" lon="5.94783">
        <ele>294.421875</ele>
        <time>2019-05-12T08:15:58Z</time>
      </trkpt>
      <trkpt lat="43.26291" lon="5.94799">
        <ele>292.26953125</ele>
        <time>2019-05-12T08:16:05Z</time>
      </trkpt>
      <trkpt lat="43.26291" lon="5.94804">
        <ele>291.125</ele>
        <time>2019-05-12T08:16:07Z</time>
      </trkpt>
      <trkpt lat="43.26292" lon="5.9481">
        <ele>288.765625</ele>
        <time>2019-05-12T08:16:11Z</time>
      </trkpt>
      <trkpt lat="43.2629" lon="5.94823">
        <ele>287.359375</ele>
        <time>2019-05-12T08:16:15Z</time>
      </trkpt>
      <trkpt lat="43.26283" lon="5.94836">
        <ele>287.6484375</ele>
        <time>2019-05-12T08:16:20Z</time>
      </trkpt>
      <trkpt lat="43.26284" lon="5.94838">
        <ele>287.109375</ele>
        <time>2019-05-12T08:16:21Z</time>
      </trkpt>
      <trkpt lat="43.26289" lon="5.94847">
        <ele>282.2265625</ele>
        <time>2019-05-12T08:16:26Z</time>
      </trkpt>
      <trkpt lat="43.26289" lon="5.94849">
        <ele>281.81640625</ele>
        <time>2019-05-12T08:16:27Z</time>
      </trkpt>
      <trkpt lat="43.26287" lon="5.94853">
        <ele>281.6640625</ele>
        <time>2019-05-12T08:16:29Z</time>
      </trkpt>
      <trkpt lat="43.26286" lon="5.94858">
        <ele>280.94921875</ele>
        <time>2019-05-12T08:16:34Z</time>
      </trkpt>
      <trkpt lat="43.26276" lon="5.94886">
        <ele>279.55859375</ele>
        <time>2019-05-12T08:16:44Z</time>
      </trkpt>
      <trkpt lat="43.26272" lon="5.94894">
        <ele>279.34765625</ele>
        <time>2019-05-12T08:16:46Z</time>
      </trkpt>
      <trkpt lat="43.26266" lon="5.94912">
        <ele>278.31640625</ele>
        <time>2019-05-12T08:16:50Z</time>
      </trkpt>
      <trkpt lat="43.26262" lon="5.94937">
        <ele>275.55078125</ele>
        <time>2019-05-12T08:16:54Z</time>
      </trkpt>
      <trkpt lat="43.26266" lon="5.94953">
        <ele>271.9375</ele>
        <time>2019-05-12T08:16:58Z</time>
      </trkpt>
      <trkpt lat="43.26269" lon="5.94964">
        <ele>269.203125</ele>
        <time>2019-05-12T08:17:01Z</time>
      </trkpt>
      <trkpt lat="43.2627" lon="5.94967">
        <ele>268.578125</ele>
        <time>2019-05-12T08:17:02Z</time>
      </trkpt>
      <trkpt lat="43.26273" lon="5.94989">
        <ele>265.11328125</ele>
        <time>2019-05-12T08:17:13Z</time>
      </trkpt>
      <trkpt lat="43.26278" lon="5.94995">
        <ele>263.17578125</ele>
        <time>2019-05-12T08:17:32Z</time>
      </trkpt>
      <trkpt lat="43.26277" lon="5.95002">
        <ele>262.8359375</ele>
        <time>2019-05-12T08:18:03Z</time>
      </trkpt>
      <trkpt lat="43.2628" lon="5.95003">
        <ele>262.03515625</ele>
        <time>2019-05-12T08:18:29Z</time>
      </trkpt>
      <trkpt lat="43.2628" lon="5.95003">
        <ele>261.80078125</ele>
        <time>2019-05-12T08:18:30Z</time>
      </trkpt>
      <trkpt lat="43.26287" lon="5.94998">
        <ele>260.46484375</ele>
        <time>2019-05-12T08:18:35Z</time>
      </trkpt>
      <trkpt lat="43.26292" lon="5.94988">
        <ele>260.01171875</ele>
        <time>2019-05-12T08:18:39Z</time>
      </trkpt>
      <trkpt lat="43.26298" lon="5.94969">
        <ele>259.55078125</ele>
        <time>2019-05-12T08:18:51Z</time>
      </trkpt>
      <trkpt lat="43.26301" lon="5.94956">
        <ele>260.11328125</ele>
        <time>2019-05-12T08:19:06Z</time>
      </trkpt>
      <trkpt lat="43.26302" lon="5.94951">
        <ele>260.19921875</ele>
        <time>2019-05-12T08:19:13Z</time>
      </trkpt>
      <trkpt lat="43.26304" lon="5.94949">
        <ele>259.68359375</ele>
        <time>2019-05-12T08:19:15Z</time>
      </trkpt>
      <trkpt lat="43.26306" lon="5.94946">
        <ele>259.421875</ele>
        <time>2019-05-12T08:19:17Z</time>
      </trkpt>
      <trkpt lat="43.26318" lon="5.94935">
        <ele>257.328125</ele>
        <time>2019-05-12T08:19:29Z</time>
      </trkpt>
      <trkpt lat="43.26324" lon="5.94928">
        <ele>256.34375</ele>
        <time>2019-05-12T08:19:36Z</time>
      </trkpt>
      <trkpt lat="43.26328" lon="5.94924">
        <ele>255.79296875</ele>
        <time>2019-05-12T08:19:42Z</time>
      </trkpt>
      <trkpt lat="43.26331" lon="5.9492">
        <ele>255.2109375</ele>
        <time>2019-05-12T08:19:50Z</time>
      </trkpt>
      <trkpt lat="43.26338" lon="5.9492">
        <ele>253.3984375</ele>
        <time>2019-05-12T08:19:54Z</time>
      </trkpt>
      <trkpt lat="43.26341" lon="5.94921">
        <ele>252.80859375</ele>
        <time>2019-05-12T08:19:57Z</time>
      </trkpt>
      <trkpt lat="43.26344" lon="5.94926">
        <ele>251.984375</ele>
        <time>2019-05-12T08:20:00Z</time>
      </trkpt>
      <trkpt lat="43.26352" lon="5.94919">
        <ele>250.98046875</ele>
        <time>2019-05-12T08:20:17Z</time>
      </trkpt>
      <trkpt lat="43.26353" lon="5.94914">
        <ele>251.10546875</ele>
        <time>2019-05-12T08:20:48Z</time>
      </trkpt>
      <trkpt lat="43.26353" lon="5.94911">
        <ele>251.26953125</ele>
        <time>2019-05-12T08:20:54Z</time>
      </trkpt>
      <trkpt lat="43.26367" lon="5.94896">
        <ele>249.76171875</ele>
        <time>2019-05-12T08:21:05Z</time>
      </trkpt>
      <trkpt lat="43.26395" lon="5.94869">
        <ele>250.8671875</ele>
        <time>2019-05-12T08:21:17Z</time>
      </trkpt>
      <trkpt lat="43.26409" lon="5.94863">
        <ele>251.63671875</ele>
        <time>2019-05-12T08:21:21Z</time>
      </trkpt>
      <trkpt lat="43.26435" lon="5.94859">
        <ele>255.28515625</ele>
        <time>2019-05-12T08:21:28Z</time>
      </trkpt>
      <trkpt lat="43.2646" lon="5.94842">
        <ele>260.421875</ele>
        <time>2019-05-12T08:21:35Z</time>
      </trkpt>
      <trkpt lat="43.26463" lon="5.94836">
        <ele>260.6953125</ele>
        <time>2019-05-12T08:21:36Z</time>
      </trkpt>
      <trkpt lat="43.26467" lon="5.94832">
        <ele>260.85546875</ele>
        <time>2019-05-12T08:21:37Z</time>
      </trkpt>
      <trkpt lat="43.2647" lon="5.94827">
        <ele>261.3984375</ele>
        <time>2019-05-12T08:21:38Z</time>
      </trkpt>
      <trkpt lat="43.26473" lon="5.94823">
        <ele>261.67578125</ele>
        <time>2019-05-12T08:21:39Z</time>
      </trkpt>
      <trkpt lat="43.26498" lon="5.94789">
        <ele>263.94140625</ele>
        <time>2019-05-12T08:21:48Z</time>
      </trkpt>
      <trkpt lat="43.265" lon="5.94783">
        <ele>263.13671875</ele>
        <time>2019-05-12T08:21:49Z</time>
      </trkpt>
      <trkpt lat="43.26501" lon="5.94778">
        <ele>262.11328125</ele>
        <time>2019-05-12T08:21:50Z</time>
      </trkpt>
      <trkpt lat="43.26501" lon="5.94759">
        <ele>259.95703125</ele>
        <time>2019-05-12T08:21:53Z</time>
      </trkpt>
      <trkpt lat="43.26499" lon="5.94754">
        <ele>259.3828125</ele>
        <time>2019-05-12T08:21:54Z</time>
      </trkpt>
      <trkpt lat="43.26482" lon="5.9472">
        <ele>255.93359375</ele>
        <time>2019-05-12T08:22:03Z</time>
      </trkpt>
      <trkpt lat="43.26479" lon="5.94709">
        <ele>255.46875</ele>
        <time>2019-05-12T08:22:06Z</time>
      </trkpt>
      <trkpt lat="43.26482" lon="5.94695">
        <ele>254.59765625</ele>
        <time>2019-05-12T08:22:13Z</time>
      </trkpt>
      <trkpt lat="43.26496" lon="5.94664">
        <ele>252.44921875</ele>
        <time>2019-05-12T08:22:23Z</time>
      </trkpt>
      <trkpt lat="43.265" lon="5.94654">
        <ele>251.796875</ele>
        <time>2019-05-12T08:22:27Z</time>
      </trkpt>
      <trkpt lat="43.26501" lon="5.94652">
        <ele>251.6484375</ele>
        <time>2019-05-12T08:22:28Z</time>
      </trkpt>
      <trkpt lat="43.26502" lon="5.94649">
        <ele>251.48046875</ele>
        <time>2019-05-12T08:22:29Z</time>
      </trkpt>
      <trkpt lat="43.26514" lon="5.94624">
        <ele>251.5625</ele>
        <time>2019-05-12T08:22:38Z</time>
      </trkpt>
      <trkpt lat="43.26517" lon="5.94614">
        <ele>252.19921875</ele>
        <time>2019-05-12T08:22:42Z</time>
      </trkpt>
      <trkpt lat="43.26518" lon="5.94611">
        <ele>252.390625</ele>
        <time>2019-05-12T08:22:43Z</time>
      </trkpt>
      <trkpt lat="43.26518" lon="5.94608">
        <ele>252.58203125</ele>
        <time>2019-05-12T08:22:44Z</time>
      </trkpt>
      <trkpt lat="43.26519" lon="5.94605">
        <ele>252.78515625</ele>
        <time>2019-05-12T08:22:45Z</time>
      </trkpt>
      <trkpt lat="43.2652" lon="5.94602">
        <ele>252.9453125</ele>
        <time>2019-05-12T08:22:46Z</time>
      </trkpt>
      <trkpt lat="43.26521" lon="5.94599">
        <ele>253.12109375</ele>
        <time>2019-05-12T08:22:47Z</time>
      </trkpt>
      <trkpt lat="43.26522" lon="5.94595">
        <ele>253.33203125</ele>
        <time>2019-05-12T08:22:48Z</time>
      </trkpt>
      <trkpt lat="43.26525" lon="5.9458">
        <ele>253.890625</ele>
        <time>2019-05-12T08:22:52Z</time>
      </trkpt>
      <trkpt lat="43.26527" lon="5.94577">
        <ele>253.9453125</ele>
        <time>2019-05-12T08:22:53Z</time>
      </trkpt>
      <trkpt lat="43.26528" lon="5.94573">
        <ele>254.1015625</ele>
        <time>2019-05-12T08:22:54Z</time>
      </trkpt>
      <trkpt lat="43.26536" lon="5.94542">
        <ele>255.1328125</ele>
        <time>2019-05-12T08:23:04Z</time>
      </trkpt>
      <trkpt lat="43.26546" lon="5.94512">
        <ele>255.828125</ele>
        <time>2019-05-12T08:23:14Z</time>
      </trkpt>
      <trkpt lat="43.26562" lon="5.94489">
        <ele>254.86328125</ele>
        <time>2019-05-12T08:23:25Z</time>
      </trkpt>
      <trkpt lat="43.26595" lon="5.94459">
        <ele>255.12109375</ele>
        <time>2019-05-12T08:23:35Z</time>
      </trkpt>
      <trkpt lat="43.26597" lon="5.94458">
        <ele>255</ele>
        <time>2019-05-12T08:23:36Z</time>
      </trkpt>
      <trkpt lat="43.26614" lon="5.94439">
        <ele>254.4765625</ele>
        <time>2019-05-12T08:23:43Z</time>
      </trkpt>
      <trkpt lat="43.26631" lon="5.94423">
        <ele>254.6640625</ele>
        <time>2019-05-12T08:23:47Z</time>
      </trkpt>
      <trkpt lat="43.26672" lon="5.94394">
        <ele>254.3984375</ele>
        <time>2019-05-12T08:23:57Z</time>
      </trkpt>
      <trkpt lat="43.26676" lon="5.94391">
        <ele>254.30078125</ele>
        <time>2019-05-12T08:23:58Z</time>
      </trkpt>
      <trkpt lat="43.2668" lon="5.94389">
        <ele>254.2109375</ele>
        <time>2019-05-12T08:23:59Z</time>
      </trkpt>
      <trkpt lat="43.2672" lon="5.94361">
        <ele>256.046875</ele>
        <time>2019-05-12T08:24:10Z</time>
      </trkpt>
      <trkpt lat="43.26754" lon="5.94345">
        <ele>256.65234375</ele>
        <time>2019-05-12T08:24:20Z</time>
      </trkpt>
      <trkpt lat="43.26776" lon="5.94321">
        <ele>257.73828125</ele>
        <time>2019-05-12T08:24:33Z</time>
      </trkpt>
      <trkpt lat="43.2678" lon="5.94313">
        <ele>257.69140625</ele>
        <time>2019-05-12T08:24:36Z</time>
      </trkpt>
      <trkpt lat="43.26782" lon="5.94311">
        <ele>257.8125</ele>
        <time>2019-05-12T08:24:37Z</time>
      </trkpt>
      <trkpt lat="43.26815" lon="5.94269">
        <ele>259.42578125</ele>
        <time>2019-05-12T08:24:49Z</time>
      </trkpt>
      <trkpt lat="43.26833" lon="5.94246">
        <ele>259.34375</ele>
        <time>2019-05-12T08:24:54Z</time>
      </trkpt>
      <trkpt lat="43.26836" lon="5.94241">
        <ele>259.3125</ele>
        <time>2019-05-12T08:24:55Z</time>
      </trkpt>
      <trkpt lat="43.26839" lon="5.94232">
        <ele>259.765625</ele>
        <time>2019-05-12T08:24:56Z</time>
      </trkpt>
      <trkpt lat="43.26844" lon="5.94214">
        <ele>260.375</ele>
        <time>2019-05-12T08:24:58Z</time>
      </trkpt>
      <trkpt lat="43.26847" lon="5.94197">
        <ele>261.02734375</ele>
        <time>2019-05-12T08:25:00Z</time>
      </trkpt>
      <trkpt lat="43.2685" lon="5.94182">
        <ele>261.36328125</ele>
        <time>2019-05-12T08:25:03Z</time>
      </trkpt>
      <trkpt lat="43.26857" lon="5.94171">
        <ele>260.91015625</ele>
        <time>2019-05-12T08:25:07Z</time>
      </trkpt>
      <trkpt lat="43.26858" lon="5.94167">
        <ele>260.83203125</ele>
        <time>2019-05-12T08:25:09Z</time>
      </trkpt>
      <trkpt lat="43.26859" lon="5.94164">
        <ele>260.71875</ele>
        <time>2019-05-12T08:25:10Z</time>
      </trkpt>
      <trkpt lat="43.26861" lon="5.94162">
        <ele>260.50390625</ele>
        <time>2019-05-12T08:25:11Z</time>
      </trkpt>
      <trkpt lat="43.26863" lon="5.9416">
        <ele>260.23828125</ele>
        <time>2019-05-12T08:25:12Z</time>
      </trkpt>
      <trkpt lat="43.26872" lon="5.94157">
        <ele>259.6015625</ele>
        <time>2019-05-12T08:25:18Z</time>
      </trkpt>
      <trkpt lat="43.26874" lon="5.94157">
        <ele>259.4921875</ele>
        <time>2019-05-12T08:25:19Z</time>
      </trkpt>
      <trkpt lat="43.26876" lon="5.94156">
        <ele>259.29296875</ele>
        <time>2019-05-12T08:25:20Z</time>
      </trkpt>
      <trkpt lat="43.26878" lon="5.94156">
        <ele>259.1015625</ele>
        <time>2019-05-12T08:25:21Z</time>
      </trkpt>
      <trkpt lat="43.2688" lon="5.94155">
        <ele>258.95703125</ele>
        <time>2019-05-12T08:25:22Z</time>
      </trkpt>
      <trkpt lat="43.26886" lon="5.94151">
        <ele>258.5078125</ele>
        <time>2019-05-12T08:25:26Z</time>
      </trkpt>
      <trkpt lat="43.26894" lon="5.94138">
        <ele>258.26171875</ele>
        <time>2019-05-12T08:25:34Z</time>
      </trkpt>
      <trkpt lat="43.26894" lon="5.94136">
        <ele>258.265625</ele>
        <time>2019-05-12T08:25:35Z</time>
      </trkpt>
      <trkpt lat="43.26896" lon="5.94128">
        <ele>258.3671875</ele>
        <time>2019-05-12T08:25:39Z</time>
      </trkpt>
      <trkpt lat="43.26904" lon="5.94124">
        <ele>258.921875</ele>
        <time>2019-05-12T08:25:43Z</time>
      </trkpt>
      <trkpt lat="43.26918" lon="5.9412">
        <ele>259.61328125</ele>
        <time>2019-05-12T08:25:50Z</time>
      </trkpt>
      <trkpt lat="43.2693" lon="5.94119">
        <ele>260.2578125</ele>
        <time>2019-05-12T08:25:56Z</time>
      </trkpt>
      <trkpt lat="43.26933" lon="5.94116">
        <ele>260.109375</ele>
        <time>2019-05-12T08:26:02Z</time>
      </trkpt>
      <trkpt lat="43.26937" lon="5.94114">
        <ele>260.1328125</ele>
        <time>2019-05-12T08:26:20Z</time>
      </trkpt>
      <trkpt lat="43.26935" lon="5.94114">
        <ele>260.00390625</ele>
        <time>2019-05-12T08:26:22Z</time>
      </trkpt>
      <trkpt lat="43.26931" lon="5.94112">
        <ele>259.63671875</ele>
        <time>2019-05-12T08:26:25Z</time>
      </trkpt>
      <trkpt lat="43.26922" lon="5.94112">
        <ele>259.234375</ele>
        <time>2019-05-12T08:26:32Z</time>
      </trkpt>
      <trkpt lat="43.26919" lon="5.9411">
        <ele>259.00390625</ele>
        <time>2019-05-12T08:26:34Z</time>
      </trkpt>
      <trkpt lat="43.26917" lon="5.94107">
        <ele>258.921875</ele>
        <time>2019-05-12T08:26:36Z</time>
      </trkpt>
      <trkpt lat="43.26911" lon="5.94099">
        <ele>258.8359375</ele>
        <time>2019-05-12T08:26:42Z</time>
      </trkpt>
      <trkpt lat="43.26907" lon="5.94087">
        <ele>258.92578125</ele>
        <time>2019-05-12T08:26:47Z</time>
      </trkpt>
      <trkpt lat="43.26903" lon="5.94068">
        <ele>259.71875</ele>
        <time>2019-05-12T08:26:58Z</time>
      </trkpt>
      <trkpt lat="43.26906" lon="5.94052">
        <ele>260.8046875</ele>
        <time>2019-05-12T08:27:10Z</time>
      </trkpt>
      <trkpt lat="43.26907" lon="5.94041">
        <ele>262.10546875</ele>
        <time>2019-05-12T08:27:14Z</time>
      </trkpt>
      <trkpt lat="43.26903" lon="5.94007">
        <ele>265.66015625</ele>
        <time>2019-05-12T08:27:25Z</time>
      </trkpt>
      <trkpt lat="43.26891" lon="5.93958">
        <ele>268.8671875</ele>
        <time>2019-05-12T08:27:39Z</time>
      </trkpt>
      <trkpt lat="43.26892" lon="5.93926">
        <ele>273.0234375</ele>
        <time>2019-05-12T08:27:48Z</time>
      </trkpt>
      <trkpt lat="43.26894" lon="5.93906">
        <ele>275.6953125</ele>
        <time>2019-05-12T08:27:55Z</time>
      </trkpt>
      <trkpt lat="43.26904" lon="5.93878">
        <ele>282.2734375</ele>
        <time>2019-05-12T08:28:08Z</time>
      </trkpt>
      <trkpt lat="43.26907" lon="5.93865">
        <ele>285.53515625</ele>
        <time>2019-05-12T08:28:14Z</time>
      </trkpt>
      <trkpt lat="43.26907" lon="5.93856">
        <ele>286.21484375</ele>
        <time>2019-05-12T08:28:18Z</time>
      </trkpt>
      <trkpt lat="43.26908" lon="5.93817">
        <ele>291.0078125</ele>
        <time>2019-05-12T08:28:32Z</time>
      </trkpt>
      <trkpt lat="43.26907" lon="5.93806">
        <ele>291.29296875</ele>
        <time>2019-05-12T08:28:35Z</time>
      </trkpt>
      <trkpt lat="43.269" lon="5.9377">
        <ele>290.5859375</ele>
        <time>2019-05-12T08:28:47Z</time>
      </trkpt>
      <trkpt lat="43.26892" lon="5.9374">
        <ele>288.546875</ele>
        <time>2019-05-12T08:29:01Z</time>
      </trkpt>
      <trkpt lat="43.26887" lon="5.9371">
        <ele>291.828125</ele>
        <time>2019-05-12T08:29:13Z</time>
      </trkpt>
      <trkpt lat="43.26882" lon="5.93699">
        <ele>291.86328125</ele>
        <time>2019-05-12T08:29:18Z</time>
      </trkpt>
      <trkpt lat="43.2688" lon="5.93691">
        <ele>292.60546875</ele>
        <time>2019-05-12T08:29:21Z</time>
      </trkpt>
      <trkpt lat="43.26867" lon="5.93663">
        <ele>291.4140625</ele>
        <time>2019-05-12T08:29:32Z</time>
      </trkpt>
      <trkpt lat="43.26856" lon="5.93642">
        <ele>290.35546875</ele>
        <time>2019-05-12T08:29:42Z</time>
      </trkpt>
      <trkpt lat="43.26845" lon="5.93601">
        <ele>290.046875</ele>
        <time>2019-05-12T08:29:53Z</time>
      </trkpt>
      <trkpt lat="43.26841" lon="5.93588">
        <ele>289.6015625</ele>
        <time>2019-05-12T08:29:59Z</time>
      </trkpt>
      <trkpt lat="43.26837" lon="5.93578">
        <ele>289.3828125</ele>
        <time>2019-05-12T08:30:06Z</time>
      </trkpt>
      <trkpt lat="43.26823" lon="5.93544">
        <ele>291.359375</ele>
        <time>2019-05-12T08:30:19Z</time>
      </trkpt>
      <trkpt lat="43.26805" lon="5.93507">
        <ele>292.390625</ele>
        <time>2019-05-12T08:30:31Z</time>
      </trkpt>
      <trkpt lat="43.26783" lon="5.9348">
        <ele>290.87890625</ele>
        <time>2019-05-12T08:30:42Z</time>
      </trkpt>
      <trkpt lat="43.2676" lon="5.93455">
        <ele>289.36328125</ele>
        <time>2019-05-12T08:30:53Z</time>
      </trkpt>
      <trkpt lat="43.26749" lon="5.93447">
        <ele>287.88671875</ele>
        <time>2019-05-12T08:30:58Z</time>
      </trkpt>
      <trkpt lat="43.26738" lon="5.93437">
        <ele>287.96484375</ele>
        <time>2019-05-12T08:31:03Z</time>
      </trkpt>
      <trkpt lat="43.2671" lon="5.93416">
        <ele>287.4609375</ele>
        <time>2019-05-12T08:31:15Z</time>
      </trkpt>
      <trkpt lat="43.26688" lon="5.93398">
        <ele>288.75390625</ele>
        <time>2019-05-12T08:31:27Z</time>
      </trkpt>
      <trkpt lat="43.2667" lon="5.93387">
        <ele>289.20703125</ele>
        <time>2019-05-12T08:31:34Z</time>
      </trkpt>
      <trkpt lat="43.26661" lon="5.9338">
        <ele>289.85546875</ele>
        <time>2019-05-12T08:31:39Z</time>
      </trkpt>
      <trkpt lat="43.26656" lon="5.93376">
        <ele>290.140625</ele>
        <time>2019-05-12T08:31:42Z</time>
      </trkpt>
      <trkpt lat="43.26652" lon="5.93372">
        <ele>290.37890625</ele>
        <time>2019-05-12T08:31:45Z</time>
      </trkpt>
      <trkpt lat="43.26646" lon="5.93365">
        <ele>290.8125</ele>
        <time>2019-05-12T08:31:58Z</time>
      </trkpt>
      <trkpt lat="43.26643" lon="5.93367">
        <ele>290.546875</ele>
        <time>2019-05-12T08:32:10Z</time>
      </trkpt>
      <trkpt lat="43.26642" lon="5.93367">
        <ele>290.56640625</ele>
        <time>2019-05-12T08:32:33Z</time>
      </trkpt>
      <trkpt lat="43.26639" lon="5.9337">
        <ele>290.57421875</ele>
        <time>2019-05-12T08:32:52Z</time>
      </trkpt>
      <trkpt lat="43.26637" lon="5.93371">
        <ele>290.73046875</ele>
        <time>2019-05-12T08:32:56Z</time>
      </trkpt>
      <trkpt lat="43.26629" lon="5.93378">
        <ele>291.234375</ele>
        <time>2019-05-12T08:33:06Z</time>
      </trkpt>
      <trkpt lat="43.26624" lon="5.93371">
        <ele>292.0234375</ele>
        <time>2019-05-12T08:33:16Z</time>
      </trkpt>
      <trkpt lat="43.26624" lon="5.93356">
        <ele>293.171875</ele>
        <time>2019-05-12T08:33:28Z</time>
      </trkpt>
      <trkpt lat="43.26623" lon="5.93346">
        <ele>295</ele>
        <time>2019-05-12T08:33:40Z</time>
      </trkpt>
      <trkpt lat="43.26628" lon="5.93325">
        <ele>299.30859375</ele>
        <time>2019-05-12T08:33:52Z</time>
      </trkpt>
      <trkpt lat="43.26631" lon="5.93319">
        <ele>300.6875</ele>
        <time>2019-05-12T08:33:55Z</time>
      </trkpt>
      <trkpt lat="43.26632" lon="5.93316">
        <ele>301.546875</ele>
        <time>2019-05-12T08:33:57Z</time>
      </trkpt>
      <trkpt lat="43.26637" lon="5.93307">
        <ele>303.90625</ele>
        <time>2019-05-12T08:34:01Z</time>
      </trkpt>
      <trkpt lat="43.26645" lon="5.93282">
        <ele>310.59765625</ele>
        <time>2019-05-12T08:34:14Z</time>
      </trkpt>
      <trkpt lat="43.2664" lon="5.93282">
        <ele>309.8203125</ele>
        <time>2019-05-12T08:34:32Z</time>
      </trkpt>
      <trkpt lat="43.26637" lon="5.93283">
        <ele>309.11328125</ele>
        <time>2019-05-12T08:34:56Z</time>
      </trkpt>
      <trkpt lat="43.26638" lon="5.93282">
        <ele>309.375</ele>
        <time>2019-05-12T08:34:59Z</time>
      </trkpt>
      <trkpt lat="43.26645" lon="5.93274">
        <ele>312.21484375</ele>
        <time>2019-05-12T08:35:13Z</time>
      </trkpt>
      <trkpt lat="43.26643" lon="5.93266">
        <ele>313.3203125</ele>
        <time>2019-05-12T08:35:19Z</time>
      </trkpt>
      <trkpt lat="43.26639" lon="5.93262">
        <ele>313.38671875</ele>
        <time>2019-05-12T08:35:22Z</time>
      </trkpt>
      <trkpt lat="43.26637" lon="5.93258">
        <ele>313.89453125</ele>
        <time>2019-05-12T08:35:26Z</time>
      </trkpt>
      <trkpt lat="43.26637" lon="5.93244">
        <ele>316.21484375</ele>
        <time>2019-05-12T08:35:37Z</time>
      </trkpt>
      <trkpt lat="43.26637" lon="5.93243">
        <ele>316.46875</ele>
        <time>2019-05-12T08:35:38Z</time>
      </trkpt>
      <trkpt lat="43.26641" lon="5.93233">
        <ele>318.29296875</ele>
        <time>2019-05-12T08:35:48Z</time>
      </trkpt>
      <trkpt lat="43.2664" lon="5.93225">
        <ele>319.48828125</ele>
        <time>2019-05-12T08:36:06Z</time>
      </trkpt>
      <trkpt lat="43.26641" lon="5.93222">
        <ele>319.9453125</ele>
        <time>2019-05-12T08:36:08Z</time>
      </trkpt>
      <trkpt lat="43.26642" lon="5.9321">
        <ele>320.19140625</ele>
        <time>2019-05-12T08:36:18Z</time>
      </trkpt>
      <trkpt lat="43.26644" lon="5.93205">
        <ele>320.59375</ele>
        <time>2019-05-12T08:36:29Z</time>
      </trkpt>
      <trkpt lat="43.26648" lon="5.93201">
        <ele>321.32421875</ele>
        <time>2019-05-12T08:36:40Z</time>
      </trkpt>
      <trkpt lat="43.26648" lon="5.93198">
        <ele>321.359375</ele>
        <time>2019-05-12T08:36:46Z</time>
      </trkpt>
      <trkpt lat="43.26663" lon="5.93185">
        <ele>324.703125</ele>
        <time>2019-05-12T08:36:58Z</time>
      </trkpt>
      <trkpt lat="43.26667" lon="5.93178">
        <ele>325.6328125</ele>
        <time>2019-05-12T08:37:05Z</time>
      </trkpt>
      <trkpt lat="43.26672" lon="5.93165">
        <ele>327.125</ele>
        <time>2019-05-12T08:37:18Z</time>
      </trkpt>
      <trkpt lat="43.26677" lon="5.93152">
        <ele>329.6640625</ele>
        <time>2019-05-12T08:37:37Z</time>
      </trkpt>
      <trkpt lat="43.26677" lon="5.9315">
        <ele>329.6015625</ele>
        <time>2019-05-12T08:37:39Z</time>
      </trkpt>
      <trkpt lat="43.26675" lon="5.93143">
        <ele>329.32421875</ele>
        <time>2019-05-12T08:37:45Z</time>
      </trkpt>
      <trkpt lat="43.2667" lon="5.93131">
        <ele>328.66796875</ele>
        <time>2019-05-12T08:37:57Z</time>
      </trkpt>
      <trkpt lat="43.26667" lon="5.93125">
        <ele>328.95703125</ele>
        <time>2019-05-12T08:38:02Z</time>
      </trkpt>
      <trkpt lat="43.26667" lon="5.93122">
        <ele>329.2109375</ele>
        <time>2019-05-12T08:38:05Z</time>
      </trkpt>
      <trkpt lat="43.26672" lon="5.93103">
        <ele>330.81640625</ele>
        <time>2019-05-12T08:38:17Z</time>
      </trkpt>
      <trkpt lat="43.26673" lon="5.93103">
        <ele>330.88671875</ele>
        <time>2019-05-12T08:38:18Z</time>
      </trkpt>
      <trkpt lat="43.26729" lon="5.93054">
        <ele>337.99609375</ele>
        <time>2019-05-12T08:38:30Z</time>
      </trkpt>
      <trkpt lat="43.26755" lon="5.93028">
        <ele>338.6640625</ele>
        <time>2019-05-12T08:38:39Z</time>
      </trkpt>
      <trkpt lat="43.2676" lon="5.93022">
        <ele>339.8515625</ele>
        <time>2019-05-12T08:38:41Z</time>
      </trkpt>
      <trkpt lat="43.26771" lon="5.93008">
        <ele>341.41015625</ele>
        <time>2019-05-12T08:38:45Z</time>
      </trkpt>
      <trkpt lat="43.26779" lon="5.92991">
        <ele>341.546875</ele>
        <time>2019-05-12T08:38:52Z</time>
      </trkpt>
      <trkpt lat="43.26785" lon="5.9298">
        <ele>342.71875</ele>
        <time>2019-05-12T08:39:00Z</time>
      </trkpt>
      <trkpt lat="43.26785" lon="5.9298">
        <ele>342.78515625</ele>
        <time>2019-05-12T08:39:02Z</time>
      </trkpt>
      <trkpt lat="43.26786" lon="5.92977">
        <ele>342.58984375</ele>
        <time>2019-05-12T08:39:04Z</time>
      </trkpt>
      <trkpt lat="43.26785" lon="5.92961">
        <ele>341.984375</ele>
        <time>2019-05-12T08:39:13Z</time>
      </trkpt>
      <trkpt lat="43.26785" lon="5.92956">
        <ele>341.8828125</ele>
        <time>2019-05-12T08:39:16Z</time>
      </trkpt>
      <trkpt lat="43.26782" lon="5.92946">
        <ele>340.78515625</ele>
        <time>2019-05-12T08:39:20Z</time>
      </trkpt>
      <trkpt lat="43.26786" lon="5.92919">
        <ele>341.046875</ele>
        <time>2019-05-12T08:39:31Z</time>
      </trkpt>
      <trkpt lat="43.26789" lon="5.92913">
        <ele>341.3203125</ele>
        <time>2019-05-12T08:39:35Z</time>
      </trkpt>
      <trkpt lat="43.26783" lon="5.92887">
        <ele>336.41015625</ele>
        <time>2019-05-12T08:39:44Z</time>
      </trkpt>
      <trkpt lat="43.2678" lon="5.92886">
        <ele>335.703125</ele>
        <time>2019-05-12T08:39:45Z</time>
      </trkpt>
      <trkpt lat="43.26767" lon="5.92884">
        <ele>333.21875</ele>
        <time>2019-05-12T08:39:50Z</time>
      </trkpt>
      <trkpt lat="43.26765" lon="5.92882">
        <ele>332.68359375</ele>
        <time>2019-05-12T08:39:51Z</time>
      </trkpt>
      <trkpt lat="43.26763" lon="5.92879">
        <ele>332.203125</ele>
        <time>2019-05-12T08:39:52Z</time>
      </trkpt>
      <trkpt lat="43.26761" lon="5.92876">
        <ele>331.76171875</ele>
        <time>2019-05-12T08:39:53Z</time>
      </trkpt>
      <trkpt lat="43.26754" lon="5.92832">
        <ele>329.015625</ele>
        <time>2019-05-12T08:40:04Z</time>
      </trkpt>
      <trkpt lat="43.26756" lon="5.92785">
        <ele>328.11328125</ele>
        <time>2019-05-12T08:40:17Z</time>
      </trkpt>
      <trkpt lat="43.26766" lon="5.92748">
        <ele>328.5625</ele>
        <time>2019-05-12T08:40:27Z</time>
      </trkpt>
      <trkpt lat="43.2677" lon="5.92739">
        <ele>329.06640625</ele>
        <time>2019-05-12T08:40:30Z</time>
      </trkpt>
      <trkpt lat="43.26783" lon="5.92713">
        <ele>329.28515625</ele>
        <time>2019-05-12T08:40:41Z</time>
      </trkpt>
      <trkpt lat="43.26803" lon="5.92668">
        <ele>330.28125</ele>
        <time>2019-05-12T08:40:51Z</time>
      </trkpt>
      <trkpt lat="43.26811" lon="5.92619">
        <ele>331.59765625</ele>
        <time>2019-05-12T08:41:04Z</time>
      </trkpt>
      <trkpt lat="43.26816" lon="5.92608">
        <ele>331.81640625</ele>
        <time>2019-05-12T08:41:08Z</time>
      </trkpt>
      <trkpt lat="43.26829" lon="5.92564">
        <ele>333.09375</ele>
        <time>2019-05-12T08:41:18Z</time>
      </trkpt>
      <trkpt lat="43.26838" lon="5.92531">
        <ele>334.21484375</ele>
        <time>2019-05-12T08:41:31Z</time>
      </trkpt>
      <trkpt lat="43.26846" lon="5.92494">
        <ele>336.6640625</ele>
        <time>2019-05-12T08:41:46Z</time>
      </trkpt>
      <trkpt lat="43.26851" lon="5.92456">
        <ele>338.8125</ele>
        <time>2019-05-12T08:42:01Z</time>
      </trkpt>
      <trkpt lat="43.26857" lon="5.92423">
        <ele>341.07421875</ele>
        <time>2019-05-12T08:42:15Z</time>
      </trkpt>
      <trkpt lat="43.26864" lon="5.92387">
        <ele>343.08984375</ele>
        <time>2019-05-12T08:42:31Z</time>
      </trkpt>
      <trkpt lat="43.26869" lon="5.92357">
        <ele>345.01953125</ele>
        <time>2019-05-12T08:42:46Z</time>
      </trkpt>
      <trkpt lat="43.2687" lon="5.9235">
        <ele>345.63671875</ele>
        <time>2019-05-12T08:42:49Z</time>
      </trkpt>
      <trkpt lat="43.2687" lon="5.92348">
        <ele>345.76953125</ele>
        <time>2019-05-12T08:42:50Z</time>
      </trkpt>
      <trkpt lat="43.2687" lon="5.92346">
        <ele>345.8984375</ele>
        <time>2019-05-12T08:42:51Z</time>
      </trkpt>
      <trkpt lat="43.26871" lon="5.92345">
        <ele>346.05859375</ele>
        <time>2019-05-12T08:42:52Z</time>
      </trkpt>
      <trkpt lat="43.26871" lon="5.92343">
        <ele>346.234375</ele>
        <time>2019-05-12T08:42:53Z</time>
      </trkpt>
      <trkpt lat="43.26872" lon="5.92341">
        <ele>346.40625</ele>
        <time>2019-05-12T08:42:54Z</time>
      </trkpt>
      <trkpt lat="43.26877" lon="5.92323">
        <ele>347.99609375</ele>
        <time>2019-05-12T08:43:03Z</time>
      </trkpt>
      <trkpt lat="43.26881" lon="5.92304">
        <ele>349.203125</ele>
        <time>2019-05-12T08:43:12Z</time>
      </trkpt>
      <trkpt lat="43.2688" lon="5.92302">
        <ele>349.1484375</ele>
        <time>2019-05-12T08:43:13Z</time>
      </trkpt>
      <trkpt lat="43.26879" lon="5.92301">
        <ele>349.08984375</ele>
        <time>2019-05-12T08:43:14Z</time>
      </trkpt>
      <trkpt lat="43.26876" lon="5.92304">
        <ele>348.8671875</ele>
        <time>2019-05-12T08:43:20Z</time>
      </trkpt>
      <trkpt lat="43.26873" lon="5.92311">
        <ele>348.35546875</ele>
        <time>2019-05-12T08:43:33Z</time>
      </trkpt>
      <trkpt lat="43.26875" lon="5.92311">
        <ele>348.53515625</ele>
        <time>2019-05-12T08:43:53Z</time>
      </trkpt>
      <trkpt lat="43.26877" lon="5.92309">
        <ele>348.7734375</ele>
        <time>2019-05-12T08:44:15Z</time>
      </trkpt>
      <trkpt lat="43.26875" lon="5.92313">
        <ele>348.35546875</ele>
        <time>2019-05-12T08:44:41Z</time>
      </trkpt>
      <trkpt lat="43.26873" lon="5.92313">
        <ele>348.23828125</ele>
        <time>2019-05-12T08:45:06Z</time>
      </trkpt>
      <trkpt lat="43.26873" lon="5.92313">
        <ele>348.2265625</ele>
        <time>2019-05-12T08:45:07Z</time>
      </trkpt>
      <trkpt lat="43.26872" lon="5.92315">
        <ele>348.05859375</ele>
        <time>2019-05-12T08:45:14Z</time>
      </trkpt>
      <trkpt lat="43.26872" lon="5.92314">
        <ele>348.0859375</ele>
        <time>2019-05-12T08:45:24Z</time>
      </trkpt>
      <trkpt lat="43.2687" lon="5.92312">
        <ele>348.06640625</ele>
        <time>2019-05-12T08:45:48Z</time>
      </trkpt>
      <trkpt lat="43.2687" lon="5.92313">
        <ele>347.96484375</ele>
        <time>2019-05-12T08:45:52Z</time>
      </trkpt>
      <trkpt lat="43.26869" lon="5.92313">
        <ele>347.91015625</ele>
        <time>2019-05-12T08:45:54Z</time>
      </trkpt>
      <trkpt lat="43.26868" lon="5.92316">
        <ele>347.625</ele>
        <time>2019-05-12T08:46:17Z</time>
      </trkpt>
      <trkpt lat="43.26869" lon="5.92314">
        <ele>347.890625</ele>
        <time>2019-05-12T08:46:39Z</time>
      </trkpt>
      <trkpt lat="43.2687" lon="5.92315">
        <ele>347.875</ele>
        <time>2019-05-12T08:47:05Z</time>
      </trkpt>
      <trkpt lat="43.26867" lon="5.92319">
        <ele>347.35546875</ele>
        <time>2019-05-12T08:47:16Z</time>
      </trkpt>
      <trkpt lat="43.26865" lon="5.92322">
        <ele>346.9609375</ele>
        <time>2019-05-12T08:47:18Z</time>
      </trkpt>
      <trkpt lat="43.26864" lon="5.92324">
        <ele>346.75</ele>
        <time>2019-05-12T08:47:19Z</time>
      </trkpt>
      <trkpt lat="43.26852" lon="5.9235">
        <ele>344.1484375</ele>
        <time>2019-05-12T08:47:32Z</time>
      </trkpt>
      <trkpt lat="43.26842" lon="5.92384">
        <ele>340.98828125</ele>
        <time>2019-05-12T08:47:46Z</time>
      </trkpt>
      <trkpt lat="43.26829" lon="5.92406">
        <ele>340.89453125</ele>
        <time>2019-05-12T08:48:01Z</time>
      </trkpt>
      <trkpt lat="43.26828" lon="5.92409">
        <ele>341.15625</ele>
        <time>2019-05-12T08:48:03Z</time>
      </trkpt>
      <trkpt lat="43.26819" lon="5.92422">
        <ele>342.234375</ele>
        <time>2019-05-12T08:48:15Z</time>
      </trkpt>
      <trkpt lat="43.26807" lon="5.92434">
        <ele>343.48828125</ele>
        <time>2019-05-12T08:48:27Z</time>
      </trkpt>
      <trkpt lat="43.26797" lon="5.92453">
        <ele>344.5234375</ele>
        <time>2019-05-12T08:48:39Z</time>
      </trkpt>
      <trkpt lat="43.26796" lon="5.92456">
        <ele>344.5546875</ele>
        <time>2019-05-12T08:48:40Z</time>
      </trkpt>
      <trkpt lat="43.26795" lon="5.92459">
        <ele>344.640625</ele>
        <time>2019-05-12T08:48:41Z</time>
      </trkpt>
      <trkpt lat="43.26781" lon="5.92502">
        <ele>343.71875</ele>
        <time>2019-05-12T08:48:55Z</time>
      </trkpt>
      <trkpt lat="43.26771" lon="5.92544">
        <ele>344.25</ele>
        <time>2019-05-12T08:49:09Z</time>
      </trkpt>
      <trkpt lat="43.26762" lon="5.92577">
        <ele>344.54296875</ele>
        <time>2019-05-12T08:49:25Z</time>
      </trkpt>
      <trkpt lat="43.26758" lon="5.92585">
        <ele>344.99609375</ele>
        <time>2019-05-12T08:49:30Z</time>
      </trkpt>
      <trkpt lat="43.26746" lon="5.92599">
        <ele>347.50390625</ele>
        <time>2019-05-12T08:49:40Z</time>
      </trkpt>
      <trkpt lat="43.26733" lon="5.92608">
        <ele>350.80859375</ele>
        <time>2019-05-12T08:49:51Z</time>
      </trkpt>
      <trkpt lat="43.26716" lon="5.92612">
        <ele>355.3984375</ele>
        <time>2019-05-12T08:50:06Z</time>
      </trkpt>
      <trkpt lat="43.26704" lon="5.92612">
        <ele>359.046875</ele>
        <time>2019-05-12T08:50:16Z</time>
      </trkpt>
      <trkpt lat="43.26702" lon="5.92611">
        <ele>359.45703125</ele>
        <time>2019-05-12T08:50:17Z</time>
      </trkpt>
      <trkpt lat="43.26683" lon="5.92605">
        <ele>362.34375</ele>
        <time>2019-05-12T08:50:30Z</time>
      </trkpt>
      <trkpt lat="43.26657" lon="5.9258">
        <ele>366.46484375</ele>
        <time>2019-05-12T08:50:46Z</time>
      </trkpt>
      <trkpt lat="43.26625" lon="5.92551">
        <ele>368.40234375</ele>
        <time>2019-05-12T08:51:00Z</time>
      </trkpt>
      <trkpt lat="43.26575" lon="5.92538">
        <ele>366.1171875</ele>
        <time>2019-05-12T08:51:11Z</time>
      </trkpt>
      <trkpt lat="43.26568" lon="5.92538">
        <ele>365.44140625</ele>
        <time>2019-05-12T08:51:12Z</time>
      </trkpt>
      <trkpt lat="43.26537" lon="5.92541">
        <ele>363.3515625</ele>
        <time>2019-05-12T08:51:17Z</time>
      </trkpt>
      <trkpt lat="43.26523" lon="5.92544">
        <ele>362.41015625</ele>
        <time>2019-05-12T08:51:20Z</time>
      </trkpt>
      <trkpt lat="43.26519" lon="5.92546">
        <ele>362.01953125</ele>
        <time>2019-05-12T08:51:21Z</time>
      </trkpt>
      <trkpt lat="43.26515" lon="5.92548">
        <ele>361.5546875</ele>
        <time>2019-05-12T08:51:22Z</time>
      </trkpt>
      <trkpt lat="43.26511" lon="5.92551">
        <ele>360.98046875</ele>
        <time>2019-05-12T08:51:23Z</time>
      </trkpt>
      <trkpt lat="43.26506" lon="5.92554">
        <ele>360.3046875</ele>
        <time>2019-05-12T08:51:24Z</time>
      </trkpt>
      <trkpt lat="43.26492" lon="5.92566">
        <ele>359.12109375</ele>
        <time>2019-05-12T08:51:27Z</time>
      </trkpt>
      <trkpt lat="43.26487" lon="5.92569">
        <ele>359.15625</ele>
        <time>2019-05-12T08:51:28Z</time>
      </trkpt>
      <trkpt lat="43.26456" lon="5.92582">
        <ele>360.47265625</ele>
        <time>2019-05-12T08:51:38Z</time>
      </trkpt>
      <trkpt lat="43.26415" lon="5.92586">
        <ele>364.10546875</ele>
        <time>2019-05-12T08:51:55Z</time>
      </trkpt>
      <trkpt lat="43.26382" lon="5.92603">
        <ele>365.29296875</ele>
        <time>2019-05-12T08:52:06Z</time>
      </trkpt>
      <trkpt lat="43.26359" lon="5.92642">
        <ele>366.5234375</ele>
        <time>2019-05-12T08:52:19Z</time>
      </trkpt>
      <trkpt lat="43.26334" lon="5.92683">
        <ele>367.66015625</ele>
        <time>2019-05-12T08:52:31Z</time>
      </trkpt>
      <trkpt lat="43.26301" lon="5.9272">
        <ele>369.640625</ele>
        <time>2019-05-12T08:52:45Z</time>
      </trkpt>
      <trkpt lat="43.26262" lon="5.92747">
        <ele>369.8671875</ele>
        <time>2019-05-12T08:52:58Z</time>
      </trkpt>
      <trkpt lat="43.26254" lon="5.92751">
        <ele>369.94140625</ele>
        <time>2019-05-12T08:53:00Z</time>
      </trkpt>
      <trkpt lat="43.2625" lon="5.92753">
        <ele>370</ele>
        <time>2019-05-12T08:53:01Z</time>
      </trkpt>
      <trkpt lat="43.26245" lon="5.92756">
        <ele>370.04296875</ele>
        <time>2019-05-12T08:53:02Z</time>
      </trkpt>
      <trkpt lat="43.26192" lon="5.92801">
        <ele>370.3828125</ele>
        <time>2019-05-12T08:53:16Z</time>
      </trkpt>
      <trkpt lat="43.26188" lon="5.92805">
        <ele>370.375</ele>
        <time>2019-05-12T08:53:17Z</time>
      </trkpt>
      <trkpt lat="43.26152" lon="5.92846">
        <ele>370.16796875</ele>
        <time>2019-05-12T08:53:27Z</time>
      </trkpt>
      <trkpt lat="43.26148" lon="5.92849">
        <ele>370.20703125</ele>
        <time>2019-05-12T08:53:28Z</time>
      </trkpt>
      <trkpt lat="43.26102" lon="5.92873">
        <ele>372.26953125</ele>
        <time>2019-05-12T08:53:41Z</time>
      </trkpt>
      <trkpt lat="43.26056" lon="5.92885">
        <ele>374.32421875</ele>
        <time>2019-05-12T08:53:55Z</time>
      </trkpt>
      <trkpt lat="43.26014" lon="5.92899">
        <ele>375.3671875</ele>
        <time>2019-05-12T08:54:09Z</time>
      </trkpt>
      <trkpt lat="43.25994" lon="5.9291">
        <ele>375.57421875</ele>
        <time>2019-05-12T08:54:15Z</time>
      </trkpt>
      <trkpt lat="43.2599" lon="5.92909">
        <ele>375.75</ele>
        <time>2019-05-12T08:54:16Z</time>
      </trkpt>
      <trkpt lat="43.25986" lon="5.92908">
        <ele>375.94140625</ele>
        <time>2019-05-12T08:54:17Z</time>
      </trkpt>
      <trkpt lat="43.25982" lon="5.92906">
        <ele>376.15625</ele>
        <time>2019-05-12T08:54:18Z</time>
      </trkpt>
      <trkpt lat="43.25979" lon="5.92903">
        <ele>376.37890625</ele>
        <time>2019-05-12T08:54:19Z</time>
      </trkpt>
      <trkpt lat="43.25976" lon="5.92899">
        <ele>376.6015625</ele>
        <time>2019-05-12T08:54:20Z</time>
      </trkpt>
      <trkpt lat="43.25972" lon="5.92897">
        <ele>376.7890625</ele>
        <time>2019-05-12T08:54:21Z</time>
      </trkpt>
      <trkpt lat="43.2597" lon="5.92895">
        <ele>376.921875</ele>
        <time>2019-05-12T08:54:22Z</time>
      </trkpt>
      <trkpt lat="43.25944" lon="5.92893">
        <ele>377.7421875</ele>
        <time>2019-05-12T08:54:30Z</time>
      </trkpt>
      <trkpt lat="43.25903" lon="5.92894">
        <ele>377.8046875</ele>
        <time>2019-05-12T08:54:42Z</time>
      </trkpt>
      <trkpt lat="43.25873" lon="5.92917">
        <ele>378.35546875</ele>
        <time>2019-05-12T08:54:52Z</time>
      </trkpt>
      <trkpt lat="43.25853" lon="5.92945">
        <ele>378.7734375</ele>
        <time>2019-05-12T08:55:03Z</time>
      </trkpt>
      <trkpt lat="43.25826" lon="5.92977">
        <ele>380.109375</ele>
        <time>2019-05-12T08:55:14Z</time>
      </trkpt>
      <trkpt lat="43.25795" lon="5.93009">
        <ele>381.48828125</ele>
        <time>2019-05-12T08:55:25Z</time>
      </trkpt>
      <trkpt lat="43.25741" lon="5.93038">
        <ele>383.08984375</ele>
        <time>2019-05-12T08:55:41Z</time>
      </trkpt>
      <trkpt lat="43.25687" lon="5.9306">
        <ele>383.7890625</ele>
        <time>2019-05-12T08:55:56Z</time>
      </trkpt>
      <trkpt lat="43.25635" lon="5.93067">
        <ele>385.8359375</ele>
        <time>2019-05-12T08:56:11Z</time>
      </trkpt>
      <trkpt lat="43.25584" lon="5.93081">
        <ele>387.16015625</ele>
        <time>2019-05-12T08:56:27Z</time>
      </trkpt>
      <trkpt lat="43.25555" lon="5.931">
        <ele>387.6484375</ele>
        <time>2019-05-12T08:56:40Z</time>
      </trkpt>
      <trkpt lat="43.2555" lon="5.9311">
        <ele>387.671875</ele>
        <time>2019-05-12T08:56:45Z</time>
      </trkpt>
      <trkpt lat="43.25552" lon="5.93118">
        <ele>387.60546875</ele>
        <time>2019-05-12T08:56:58Z</time>
      </trkpt>
      <trkpt lat="43.25555" lon="5.93117">
        <ele>387.44921875</ele>
        <time>2019-05-12T08:57:22Z</time>
      </trkpt>
      <trkpt lat="43.25557" lon="5.93115">
        <ele>387.2421875</ele>
        <time>2019-05-12T08:58:00Z</time>
      </trkpt>
      <trkpt lat="43.25555" lon="5.93142">
        <ele>388.01953125</ele>
        <time>2019-05-12T08:58:19Z</time>
      </trkpt>
      <trkpt lat="43.25549" lon="5.93189">
        <ele>389.18359375</ele>
        <time>2019-05-12T08:58:31Z</time>
      </trkpt>
      <trkpt lat="43.25542" lon="5.93202">
        <ele>390.015625</ele>
        <time>2019-05-12T08:58:36Z</time>
      </trkpt>
      <trkpt lat="43.25541" lon="5.93204">
        <ele>390.140625</ele>
        <time>2019-05-12T08:58:37Z</time>
      </trkpt>
      <trkpt lat="43.25522" lon="5.93224">
        <ele>391.6328125</ele>
        <time>2019-05-12T08:58:50Z</time>
      </trkpt>
      <trkpt lat="43.25526" lon="5.93233">
        <ele>392.8203125</ele>
        <time>2019-05-12T08:58:54Z</time>
      </trkpt>
      <trkpt lat="43.25528" lon="5.93235">
        <ele>393.03125</ele>
        <time>2019-05-12T08:58:55Z</time>
      </trkpt>
      <trkpt lat="43.25546" lon="5.93261">
        <ele>396.01953125</ele>
        <time>2019-05-12T08:59:08Z</time>
      </trkpt>
      <trkpt lat="43.2557" lon="5.93271">
        <ele>396.21484375</ele>
        <time>2019-05-12T08:59:21Z</time>
      </trkpt>
      <trkpt lat="43.25584" lon="5.93288">
        <ele>398.18359375</ele>
        <time>2019-05-12T08:59:31Z</time>
      </trkpt>
      <trkpt lat="43.25593" lon="5.93294">
        <ele>398.6484375</ele>
        <time>2019-05-12T08:59:38Z</time>
      </trkpt>
      <trkpt lat="43.25595" lon="5.93295">
        <ele>398.6796875</ele>
        <time>2019-05-12T08:59:39Z</time>
      </trkpt>
      <trkpt lat="43.256" lon="5.93297">
        <ele>398.828125</ele>
        <time>2019-05-12T08:59:55Z</time>
      </trkpt>
      <trkpt lat="43.25615" lon="5.93303">
        <ele>398.88671875</ele>
        <time>2019-05-12T09:00:04Z</time>
      </trkpt>
      <trkpt lat="43.25617" lon="5.93302">
        <ele>398.88671875</ele>
        <time>2019-05-12T09:00:05Z</time>
      </trkpt>
      <trkpt lat="43.2562" lon="5.93301">
        <ele>398.890625</ele>
        <time>2019-05-12T09:00:06Z</time>
      </trkpt>
      <trkpt lat="43.25621" lon="5.93301">
        <ele>398.94921875</ele>
        <time>2019-05-12T09:00:07Z</time>
      </trkpt>
      <trkpt lat="43.25623" lon="5.93302">
        <ele>399.02734375</ele>
        <time>2019-05-12T09:00:08Z</time>
      </trkpt>
      <trkpt lat="43.25625" lon="5.93303">
        <ele>399.1484375</ele>
        <time>2019-05-12T09:00:09Z</time>
      </trkpt>
      <trkpt lat="43.25643" lon="5.93317">
        <ele>401.6953125</ele>
        <time>2019-05-12T09:00:20Z</time>
      </trkpt>
      <trkpt lat="43.25653" lon="5.93326">
        <ele>403</ele>
        <time>2019-05-12T09:00:31Z</time>
      </trkpt>
      <trkpt lat="43.25659" lon="5.93328">
        <ele>403.28515625</ele>
        <time>2019-05-12T09:00:43Z</time>
      </trkpt>
      <trkpt lat="43.25668" lon="5.93329">
        <ele>403.3671875</ele>
        <time>2019-05-12T09:00:46Z</time>
      </trkpt>
      <trkpt lat="43.25675" lon="5.93328">
        <ele>403.3203125</ele>
        <time>2019-05-12T09:00:49Z</time>
      </trkpt>
      <trkpt lat="43.25681" lon="5.93332">
        <ele>403.90234375</ele>
        <time>2019-05-12T09:00:53Z</time>
      </trkpt>
      <trkpt lat="43.25687" lon="5.93335">
        <ele>404.19140625</ele>
        <time>2019-05-12T09:01:03Z</time>
      </trkpt>
      <trkpt lat="43.25689" lon="5.93338">
        <ele>404.5390625</ele>
        <time>2019-05-12T09:01:14Z</time>
      </trkpt>
      <trkpt lat="43.25695" lon="5.93352">
        <ele>406.109375</ele>
        <time>2019-05-12T09:01:28Z</time>
      </trkpt>
      <trkpt lat="43.25694" lon="5.93357">
        <ele>406.63671875</ele>
        <time>2019-05-12T09:01:43Z</time>
      </trkpt>
      <trkpt lat="43.25694" lon="5.93359">
        <ele>406.8046875</ele>
        <time>2019-05-12T09:02:00Z</time>
      </trkpt>
      <trkpt lat="43.25696" lon="5.93361">
        <ele>407.09375</ele>
        <time>2019-05-12T09:02:05Z</time>
      </trkpt>
      <trkpt lat="43.25701" lon="5.93365">
        <ele>407.77734375</ele>
        <time>2019-05-12T09:02:08Z</time>
      </trkpt>
      <trkpt lat="43.25704" lon="5.93369">
        <ele>408.44921875</ele>
        <time>2019-05-12T09:02:11Z</time>
      </trkpt>
      <trkpt lat="43.25706" lon="5.93371">
        <ele>408.7734375</ele>
        <time>2019-05-12T09:02:13Z</time>
      </trkpt>
      <trkpt lat="43.25711" lon="5.93374">
        <ele>409.09765625</ele>
        <time>2019-05-12T09:02:17Z</time>
      </trkpt>
      <trkpt lat="43.25725" lon="5.93385">
        <ele>410.52734375</ele>
        <time>2019-05-12T09:02:30Z</time>
      </trkpt>
      <trkpt lat="43.25729" lon="5.93388">
        <ele>410.76171875</ele>
        <time>2019-05-12T09:02:33Z</time>
      </trkpt>
      <trkpt lat="43.25731" lon="5.93391">
        <ele>411.1875</ele>
        <time>2019-05-12T09:02:36Z</time>
      </trkpt>
      <trkpt lat="43.25752" lon="5.93406">
        <ele>412.60546875</ele>
        <time>2019-05-12T09:02:52Z</time>
      </trkpt>
      <trkpt lat="43.25769" lon="5.93416">
        <ele>412.2109375</ele>
        <time>2019-05-12T09:03:05Z</time>
      </trkpt>
      <trkpt lat="43.25788" lon="5.93432">
        <ele>411.29296875</ele>
        <time>2019-05-12T09:03:19Z</time>
      </trkpt>
      <trkpt lat="43.25789" lon="5.93433">
        <ele>411.19140625</ele>
        <time>2019-05-12T09:03:20Z</time>
      </trkpt>
      <trkpt lat="43.25802" lon="5.93448">
        <ele>410.9765625</ele>
        <time>2019-05-12T09:03:34Z</time>
      </trkpt>
      <trkpt lat="43.25803" lon="5.93449">
        <ele>411.05859375</ele>
        <time>2019-05-12T09:03:37Z</time>
      </trkpt>
      <trkpt lat="43.25824" lon="5.9347">
        <ele>409.734375</ele>
        <time>2019-05-12T09:03:48Z</time>
      </trkpt>
      <trkpt lat="43.25828" lon="5.93473">
        <ele>409.33984375</ele>
        <time>2019-05-12T09:04:01Z</time>
      </trkpt>
      <trkpt lat="43.25836" lon="5.93486">
        <ele>409.703125</ele>
        <time>2019-05-12T09:04:17Z</time>
      </trkpt>
      <trkpt lat="43.25841" lon="5.9352">
        <ele>412.53515625</ele>
        <time>2019-05-12T09:04:27Z</time>
      </trkpt>
      <trkpt lat="43.25846" lon="5.93527">
        <ele>412.6484375</ele>
        <time>2019-05-12T09:04:31Z</time>
      </trkpt>
      <trkpt lat="43.25849" lon="5.93533">
        <ele>412.77734375</ele>
        <time>2019-05-12T09:04:34Z</time>
      </trkpt>
      <trkpt lat="43.25853" lon="5.93542">
        <ele>413.1484375</ele>
        <time>2019-05-12T09:04:38Z</time>
      </trkpt>
      <trkpt lat="43.25856" lon="5.93551">
        <ele>413.73828125</ele>
        <time>2019-05-12T09:04:41Z</time>
      </trkpt>
      <trkpt lat="43.25871" lon="5.93582">
        <ele>416.40234375</ele>
        <time>2019-05-12T09:04:52Z</time>
      </trkpt>
      <trkpt lat="43.25902" lon="5.93611">
        <ele>423.46484375</ele>
        <time>2019-05-12T09:05:03Z</time>
      </trkpt>
      <trkpt lat="43.25914" lon="5.93608">
        <ele>424.31640625</ele>
        <time>2019-05-12T09:05:07Z</time>
      </trkpt>
      <trkpt lat="43.25919" lon="5.93606">
        <ele>424.51171875</ele>
        <time>2019-05-12T09:05:08Z</time>
      </trkpt>
      <trkpt lat="43.25922" lon="5.93605">
        <ele>424.4140625</ele>
        <time>2019-05-12T09:05:09Z</time>
      </trkpt>
      <trkpt lat="43.25928" lon="5.93601">
        <ele>424.1328125</ele>
        <time>2019-05-12T09:05:10Z</time>
      </trkpt>
      <trkpt lat="43.25932" lon="5.93599">
        <ele>423.69921875</ele>
        <time>2019-05-12T09:05:11Z</time>
      </trkpt>
      <trkpt lat="43.25937" lon="5.93595">
        <ele>422.984375</ele>
        <time>2019-05-12T09:05:12Z</time>
      </trkpt>
      <trkpt lat="43.25942" lon="5.93592">
        <ele>422.64453125</ele>
        <time>2019-05-12T09:05:13Z</time>
      </trkpt>
      <trkpt lat="43.25946" lon="5.93589">
        <ele>422.18359375</ele>
        <time>2019-05-12T09:05:14Z</time>
      </trkpt>
      <trkpt lat="43.2595" lon="5.93585">
        <ele>421.06640625</ele>
        <time>2019-05-12T09:05:15Z</time>
      </trkpt>
      <trkpt lat="43.25953" lon="5.9358">
        <ele>420.078125</ele>
        <time>2019-05-12T09:05:16Z</time>
      </trkpt>
      <trkpt lat="43.25957" lon="5.93577">
        <ele>419.58984375</ele>
        <time>2019-05-12T09:05:17Z</time>
      </trkpt>
      <trkpt lat="43.25961" lon="5.93574">
        <ele>419.14453125</ele>
        <time>2019-05-12T09:05:18Z</time>
      </trkpt>
      <trkpt lat="43.25964" lon="5.93571">
        <ele>418.4921875</ele>
        <time>2019-05-12T09:05:19Z</time>
      </trkpt>
      <trkpt lat="43.25967" lon="5.93567">
        <ele>417.78515625</ele>
        <time>2019-05-12T09:05:20Z</time>
      </trkpt>
      <trkpt lat="43.25972" lon="5.93563">
        <ele>417.04296875</ele>
        <time>2019-05-12T09:05:22Z</time>
      </trkpt>
      <trkpt lat="43.25979" lon="5.93559">
        <ele>416.15625</ele>
        <time>2019-05-12T09:05:35Z</time>
      </trkpt>
      <trkpt lat="43.2598" lon="5.93558">
        <ele>415.93359375</ele>
        <time>2019-05-12T09:05:36Z</time>
      </trkpt>
      <trkpt lat="43.25981" lon="5.93557">
        <ele>415.6015625</ele>
        <time>2019-05-12T09:05:37Z</time>
      </trkpt>
      <trkpt lat="43.25983" lon="5.93555">
        <ele>415.10546875</ele>
        <time>2019-05-12T09:05:38Z</time>
      </trkpt>
      <trkpt lat="43.25985" lon="5.93554">
        <ele>414.6640625</ele>
        <time>2019-05-12T09:05:39Z</time>
      </trkpt>
      <trkpt lat="43.25987" lon="5.93552">
        <ele>414.1484375</ele>
        <time>2019-05-12T09:05:40Z</time>
      </trkpt>
      <trkpt lat="43.2599" lon="5.9355">
        <ele>413.55078125</ele>
        <time>2019-05-12T09:05:41Z</time>
      </trkpt>
      <trkpt lat="43.25993" lon="5.93548">
        <ele>412.99609375</ele>
        <time>2019-05-12T09:05:42Z</time>
      </trkpt>
      <trkpt lat="43.26026" lon="5.93552">
        <ele>411.0078125</ele>
        <time>2019-05-12T09:05:53Z</time>
      </trkpt>
      <trkpt lat="43.2604" lon="5.93561">
        <ele>410.77734375</ele>
        <time>2019-05-12T09:05:57Z</time>
      </trkpt>
      <trkpt lat="43.26047" lon="5.93567">
        <ele>411.203125</ele>
        <time>2019-05-12T09:06:06Z</time>
      </trkpt>
      <trkpt lat="43.26057" lon="5.93567">
        <ele>408.76953125</ele>
        <time>2019-05-12T09:06:22Z</time>
      </trkpt>
      <trkpt lat="43.2606" lon="5.93569">
        <ele>408.69140625</ele>
        <time>2019-05-12T09:06:37Z</time>
      </trkpt>
      <trkpt lat="43.26062" lon="5.9357">
        <ele>408.3984375</ele>
        <time>2019-05-12T09:06:53Z</time>
      </trkpt>
      <trkpt lat="43.26066" lon="5.93568">
        <ele>406.91796875</ele>
        <time>2019-05-12T09:07:06Z</time>
      </trkpt>
      <trkpt lat="43.26075" lon="5.93574">
        <ele>406.16796875</ele>
        <time>2019-05-12T09:07:12Z</time>
      </trkpt>
      <trkpt lat="43.26101" lon="5.93586">
        <ele>403.21484375</ele>
        <time>2019-05-12T09:07:20Z</time>
      </trkpt>
      <trkpt lat="43.26104" lon="5.9359">
        <ele>403.47265625</ele>
        <time>2019-05-12T09:07:21Z</time>
      </trkpt>
      <trkpt lat="43.26113" lon="5.93603">
        <ele>404.36328125</ele>
        <time>2019-05-12T09:07:24Z</time>
      </trkpt>
      <trkpt lat="43.26117" lon="5.93606">
        <ele>404.32421875</ele>
        <time>2019-05-12T09:07:25Z</time>
      </trkpt>
      <trkpt lat="43.26121" lon="5.9361">
        <ele>404.2890625</ele>
        <time>2019-05-12T09:07:26Z</time>
      </trkpt>
      <trkpt lat="43.26125" lon="5.93614">
        <ele>404.4296875</ele>
        <time>2019-05-12T09:07:27Z</time>
      </trkpt>
      <trkpt lat="43.26129" lon="5.93618">
        <ele>404.68359375</ele>
        <time>2019-05-12T09:07:28Z</time>
      </trkpt>
      <trkpt lat="43.2616" lon="5.93648">
        <ele>405.453125</ele>
        <time>2019-05-12T09:07:39Z</time>
      </trkpt>
      <trkpt lat="43.26186" lon="5.93663">
        <ele>404.10546875</ele>
        <time>2019-05-12T09:07:50Z</time>
      </trkpt>
      <trkpt lat="43.26208" lon="5.93704">
        <ele>408.40625</ele>
        <time>2019-05-12T09:08:06Z</time>
      </trkpt>
      <trkpt lat="43.2622" lon="5.93727">
        <ele>410.1796875</ele>
        <time>2019-05-12T09:08:18Z</time>
      </trkpt>
      <trkpt lat="43.26221" lon="5.93728">
        <ele>410.20703125</ele>
        <time>2019-05-12T09:08:19Z</time>
      </trkpt>
      <trkpt lat="43.26222" lon="5.9373">
        <ele>410.2578125</ele>
        <time>2019-05-12T09:08:20Z</time>
      </trkpt>
      <trkpt lat="43.26223" lon="5.93731">
        <ele>410.34375</ele>
        <time>2019-05-12T09:08:21Z</time>
      </trkpt>
      <trkpt lat="43.26224" lon="5.93733">
        <ele>410.42578125</ele>
        <time>2019-05-12T09:08:22Z</time>
      </trkpt>
      <trkpt lat="43.26224" lon="5.93735">
        <ele>410.56640625</ele>
        <time>2019-05-12T09:08:23Z</time>
      </trkpt>
      <trkpt lat="43.26225" lon="5.93737">
        <ele>410.70703125</ele>
        <time>2019-05-12T09:08:24Z</time>
      </trkpt>
      <trkpt lat="43.26226" lon="5.93739">
        <ele>410.8359375</ele>
        <time>2019-05-12T09:08:25Z</time>
      </trkpt>
      <trkpt lat="43.26227" lon="5.93741">
        <ele>411</ele>
        <time>2019-05-12T09:08:26Z</time>
      </trkpt>
      <trkpt lat="43.26239" lon="5.93753">
        <ele>411.84765625</ele>
        <time>2019-05-12T09:08:36Z</time>
      </trkpt>
      <trkpt lat="43.26241" lon="5.93754">
        <ele>411.83984375</ele>
        <time>2019-05-12T09:08:37Z</time>
      </trkpt>
      <trkpt lat="43.26242" lon="5.93755">
        <ele>411.88671875</ele>
        <time>2019-05-12T09:08:38Z</time>
      </trkpt>
      <trkpt lat="43.26243" lon="5.93756">
        <ele>411.91796875</ele>
        <time>2019-05-12T09:08:39Z</time>
      </trkpt>
      <trkpt lat="43.26244" lon="5.93757">
        <ele>411.9296875</ele>
        <time>2019-05-12T09:08:40Z</time>
      </trkpt>
      <trkpt lat="43.26245" lon="5.93758">
        <ele>411.953125</ele>
        <time>2019-05-12T09:08:41Z</time>
      </trkpt>
      <trkpt lat="43.26247" lon="5.93758">
        <ele>411.94921875</ele>
        <time>2019-05-12T09:08:42Z</time>
      </trkpt>
      <trkpt lat="43.26248" lon="5.93759">
        <ele>411.9453125</ele>
        <time>2019-05-12T09:08:43Z</time>
      </trkpt>
      <trkpt lat="43.26249" lon="5.9376">
        <ele>411.98828125</ele>
        <time>2019-05-12T09:08:44Z</time>
      </trkpt>
      <trkpt lat="43.2625" lon="5.93761">
        <ele>412.0234375</ele>
        <time>2019-05-12T09:08:45Z</time>
      </trkpt>
      <trkpt lat="43.26269" lon="5.93774">
        <ele>410.45703125</ele>
        <time>2019-05-12T09:09:02Z</time>
      </trkpt>
      <trkpt lat="43.26282" lon="5.9378">
        <ele>408.6875</ele>
        <time>2019-05-12T09:09:13Z</time>
      </trkpt>
      <trkpt lat="43.26284" lon="5.93782">
        <ele>408.3359375</ele>
        <time>2019-05-12T09:09:15Z</time>
      </trkpt>
      <trkpt lat="43.26285" lon="5.93783">
        <ele>408.16796875</ele>
        <time>2019-05-12T09:09:16Z</time>
      </trkpt>
      <trkpt lat="43.26286" lon="5.93784">
        <ele>407.98046875</ele>
        <time>2019-05-12T09:09:17Z</time>
      </trkpt>
      <trkpt lat="43.26289" lon="5.93786">
        <ele>407.46875</ele>
        <time>2019-05-12T09:09:20Z</time>
      </trkpt>
      <trkpt lat="43.26293" lon="5.93791">
        <ele>406.7265625</ele>
        <time>2019-05-12T09:09:31Z</time>
      </trkpt>
      <trkpt lat="43.26294" lon="5.93792">
        <ele>406.6328125</ele>
        <time>2019-05-12T09:09:55Z</time>
      </trkpt>
      <trkpt lat="43.26294" lon="5.93791">
        <ele>406.69140625</ele>
        <time>2019-05-12T09:10:20Z</time>
      </trkpt>
      <trkpt lat="43.26295" lon="5.9379">
        <ele>406.47265625</ele>
        <time>2019-05-12T09:10:37Z</time>
      </trkpt>
      <trkpt lat="43.26295" lon="5.93791">
        <ele>406.4921875</ele>
        <time>2019-05-12T09:10:51Z</time>
      </trkpt>
      <trkpt lat="43.26293" lon="5.93792">
        <ele>406.80078125</ele>
        <time>2019-05-12T09:11:14Z</time>
      </trkpt>
      <trkpt lat="43.26293" lon="5.93792">
        <ele>406.796875</ele>
        <time>2019-05-12T09:11:36Z</time>
      </trkpt>
      <trkpt lat="43.26295" lon="5.9379">
        <ele>406.41015625</ele>
        <time>2019-05-12T09:11:56Z</time>
      </trkpt>
      <trkpt lat="43.26295" lon="5.93789">
        <ele>406.37890625</ele>
        <time>2019-05-12T09:12:19Z</time>
      </trkpt>
      <trkpt lat="43.26296" lon="5.93789">
        <ele>406.3125</ele>
        <time>2019-05-12T09:12:38Z</time>
      </trkpt>
      <trkpt lat="43.26296" lon="5.93788">
        <ele>406.18359375</ele>
        <time>2019-05-12T09:12:53Z</time>
      </trkpt>
      <trkpt lat="43.26296" lon="5.93786">
        <ele>406.1953125</ele>
        <time>2019-05-12T09:12:54Z</time>
      </trkpt>
      <trkpt lat="43.26296" lon="5.93783">
        <ele>406.19140625</ele>
        <time>2019-05-12T09:12:55Z</time>
      </trkpt>
      <trkpt lat="43.26297" lon="5.9378">
        <ele>406.07421875</ele>
        <time>2019-05-12T09:12:56Z</time>
      </trkpt>
      <trkpt lat="43.26298" lon="5.93775">
        <ele>405.82421875</ele>
        <time>2019-05-12T09:12:57Z</time>
      </trkpt>
      <trkpt lat="43.263" lon="5.9377">
        <ele>405.46484375</ele>
        <time>2019-05-12T09:12:58Z</time>
      </trkpt>
      <trkpt lat="43.26308" lon="5.93742">
        <ele>404.03125</ele>
        <time>2019-05-12T09:13:02Z</time>
      </trkpt>
      <trkpt lat="43.26313" lon="5.93717">
        <ele>403.5078125</ele>
        <time>2019-05-12T09:13:05Z</time>
      </trkpt>
      <trkpt lat="43.26315" lon="5.93709">
        <ele>403.421875</ele>
        <time>2019-05-12T09:13:06Z</time>
      </trkpt>
      <trkpt lat="43.26318" lon="5.93688">
        <ele>403.16796875</ele>
        <time>2019-05-12T09:13:09Z</time>
      </trkpt>
      <trkpt lat="43.2632" lon="5.93681">
        <ele>402.87109375</ele>
        <time>2019-05-12T09:13:10Z</time>
      </trkpt>
      <trkpt lat="43.26325" lon="5.93676">
        <ele>402.56640625</ele>
        <time>2019-05-12T09:13:11Z</time>
      </trkpt>
      <trkpt lat="43.26333" lon="5.93666">
        <ele>402.10546875</ele>
        <time>2019-05-12T09:13:13Z</time>
      </trkpt>
      <trkpt lat="43.26336" lon="5.93659">
        <ele>402.23828125</ele>
        <time>2019-05-12T09:13:14Z</time>
      </trkpt>
      <trkpt lat="43.26338" lon="5.93652">
        <ele>402.44921875</ele>
        <time>2019-05-12T09:13:15Z</time>
      </trkpt>
      <trkpt lat="43.26339" lon="5.93636">
        <ele>402.90625</ele>
        <time>2019-05-12T09:13:17Z</time>
      </trkpt>
      <trkpt lat="43.26339" lon="5.93629">
        <ele>402.96484375</ele>
        <time>2019-05-12T09:13:18Z</time>
      </trkpt>
      <trkpt lat="43.2634" lon="5.93621">
        <ele>403.03515625</ele>
        <time>2019-05-12T09:13:19Z</time>
      </trkpt>
      <trkpt lat="43.26342" lon="5.93614">
        <ele>403.1484375</ele>
        <time>2019-05-12T09:13:20Z</time>
      </trkpt>
      <trkpt lat="43.26343" lon="5.93607">
        <ele>403.15625</ele>
        <time>2019-05-12T09:13:21Z</time>
      </trkpt>
      <trkpt lat="43.26347" lon="5.93593">
        <ele>402.96875</ele>
        <time>2019-05-12T09:13:23Z</time>
      </trkpt>
      <trkpt lat="43.26347" lon="5.93585">
        <ele>402.859375</ele>
        <time>2019-05-12T09:13:24Z</time>
      </trkpt>
      <trkpt lat="43.26351" lon="5.9356">
        <ele>400.5703125</ele>
        <time>2019-05-12T09:13:27Z</time>
      </trkpt>
      <trkpt lat="43.26354" lon="5.93552">
        <ele>400.07421875</ele>
        <time>2019-05-12T09:13:28Z</time>
      </trkpt>
      <trkpt lat="43.2636" lon="5.93546">
        <ele>400.0234375</ele>
        <time>2019-05-12T09:13:29Z</time>
      </trkpt>
      <trkpt lat="43.26365" lon="5.93543">
        <ele>399.9375</ele>
        <time>2019-05-12T09:13:30Z</time>
      </trkpt>
      <trkpt lat="43.2637" lon="5.93542">
        <ele>399.10546875</ele>
        <time>2019-05-12T09:13:31Z</time>
      </trkpt>
      <trkpt lat="43.26376" lon="5.93542">
        <ele>398.34765625</ele>
        <time>2019-05-12T09:13:32Z</time>
      </trkpt>
      <trkpt lat="43.26382" lon="5.93542">
        <ele>397.50390625</ele>
        <time>2019-05-12T09:13:33Z</time>
      </trkpt>
      <trkpt lat="43.26387" lon="5.93541">
        <ele>396.6484375</ele>
        <time>2019-05-12T09:13:34Z</time>
      </trkpt>
      <trkpt lat="43.26392" lon="5.93537">
        <ele>395.75</ele>
        <time>2019-05-12T09:13:35Z</time>
      </trkpt>
      <trkpt lat="43.26396" lon="5.93532">
        <ele>394.48046875</ele>
        <time>2019-05-12T09:13:36Z</time>
      </trkpt>
      <trkpt lat="43.26399" lon="5.93526">
        <ele>393.265625</ele>
        <time>2019-05-12T09:13:37Z</time>
      </trkpt>
      <trkpt lat="43.26403" lon="5.93522">
        <ele>392.296875</ele>
        <time>2019-05-12T09:13:38Z</time>
      </trkpt>
      <trkpt lat="43.26406" lon="5.93521">
        <ele>391.4921875</ele>
        <time>2019-05-12T09:13:39Z</time>
      </trkpt>
      <trkpt lat="43.2641" lon="5.93524">
        <ele>390.88671875</ele>
        <time>2019-05-12T09:13:40Z</time>
      </trkpt>
      <trkpt lat="43.26414" lon="5.93528">
        <ele>390.328125</ele>
        <time>2019-05-12T09:13:41Z</time>
      </trkpt>
      <trkpt lat="43.26417" lon="5.93533">
        <ele>389.71875</ele>
        <time>2019-05-12T09:13:42Z</time>
      </trkpt>
      <trkpt lat="43.26421" lon="5.93536">
        <ele>388.828125</ele>
        <time>2019-05-12T09:13:43Z</time>
      </trkpt>
      <trkpt lat="43.26423" lon="5.93535">
        <ele>387.66015625</ele>
        <time>2019-05-12T09:13:44Z</time>
      </trkpt>
      <trkpt lat="43.26425" lon="5.93532">
        <ele>386.78125</ele>
        <time>2019-05-12T09:13:45Z</time>
      </trkpt>
      <trkpt lat="43.26426" lon="5.93527">
        <ele>386.234375</ele>
        <time>2019-05-12T09:13:46Z</time>
      </trkpt>
      <trkpt lat="43.26427" lon="5.9352">
        <ele>385.72265625</ele>
        <time>2019-05-12T09:13:47Z</time>
      </trkpt>
      <trkpt lat="43.26428" lon="5.93515">
        <ele>384.94921875</ele>
        <time>2019-05-12T09:13:48Z</time>
      </trkpt>
      <trkpt lat="43.26431" lon="5.93513">
        <ele>383.74609375</ele>
        <time>2019-05-12T09:13:49Z</time>
      </trkpt>
      <trkpt lat="43.26434" lon="5.93515">
        <ele>382.4765625</ele>
        <time>2019-05-12T09:13:50Z</time>
      </trkpt>
      <trkpt lat="43.26436" lon="5.93518">
        <ele>381.58203125</ele>
        <time>2019-05-12T09:13:51Z</time>
      </trkpt>
      <trkpt lat="43.26438" lon="5.93523">
        <ele>381.11328125</ele>
        <time>2019-05-12T09:13:52Z</time>
      </trkpt>
      <trkpt lat="43.26439" lon="5.93529">
        <ele>380.703125</ele>
        <time>2019-05-12T09:13:53Z</time>
      </trkpt>
      <trkpt lat="43.26442" lon="5.93541">
        <ele>379.43359375</ele>
        <time>2019-05-12T09:13:55Z</time>
      </trkpt>
      <trkpt lat="43.26444" lon="5.93544">
        <ele>378.3203125</ele>
        <time>2019-05-12T09:13:56Z</time>
      </trkpt>
      <trkpt lat="43.26447" lon="5.93543">
        <ele>377.078125</ele>
        <time>2019-05-12T09:13:57Z</time>
      </trkpt>
      <trkpt lat="43.26449" lon="5.93541">
        <ele>376.28515625</ele>
        <time>2019-05-12T09:13:58Z</time>
      </trkpt>
      <trkpt lat="43.26449" lon="5.93538">
        <ele>376.03515625</ele>
        <time>2019-05-12T09:13:59Z</time>
      </trkpt>
      <trkpt lat="43.26449" lon="5.93534">
        <ele>376.1796875</ele>
        <time>2019-05-12T09:14:00Z</time>
      </trkpt>
      <trkpt lat="43.26449" lon="5.93529">
        <ele>376.43359375</ele>
        <time>2019-05-12T09:14:01Z</time>
      </trkpt>
      <trkpt lat="43.26449" lon="5.93524">
        <ele>376.13671875</ele>
        <time>2019-05-12T09:14:02Z</time>
      </trkpt>
      <trkpt lat="43.26451" lon="5.93522">
        <ele>375.19140625</ele>
        <time>2019-05-12T09:14:03Z</time>
      </trkpt>
      <trkpt lat="43.26454" lon="5.93521">
        <ele>374.00390625</ele>
        <time>2019-05-12T09:14:04Z</time>
      </trkpt>
      <trkpt lat="43.26457" lon="5.93522">
        <ele>372.92578125</ele>
        <time>2019-05-12T09:14:05Z</time>
      </trkpt>
      <trkpt lat="43.26458" lon="5.93525">
        <ele>372.23828125</ele>
        <time>2019-05-12T09:14:06Z</time>
      </trkpt>
      <trkpt lat="43.26459" lon="5.9353">
        <ele>371.7265625</ele>
        <time>2019-05-12T09:14:07Z</time>
      </trkpt>
      <trkpt lat="43.2646" lon="5.93537">
        <ele>371.15234375</ele>
        <time>2019-05-12T09:14:08Z</time>
      </trkpt>
      <trkpt lat="43.26464" lon="5.93546">
        <ele>369.20703125</ele>
        <time>2019-05-12T09:14:10Z</time>
      </trkpt>
      <trkpt lat="43.26468" lon="5.93547">
        <ele>367.6171875</ele>
        <time>2019-05-12T09:14:11Z</time>
      </trkpt>
      <trkpt lat="43.26471" lon="5.93544">
        <ele>366.046875</ele>
        <time>2019-05-12T09:14:12Z</time>
      </trkpt>
      <trkpt lat="43.26473" lon="5.93541">
        <ele>365.41015625</ele>
        <time>2019-05-12T09:14:13Z</time>
      </trkpt>
      <trkpt lat="43.26472" lon="5.93537">
        <ele>365.921875</ele>
        <time>2019-05-12T09:14:14Z</time>
      </trkpt>
      <trkpt lat="43.26471" lon="5.93531">
        <ele>366.58984375</ele>
        <time>2019-05-12T09:14:15Z</time>
      </trkpt>
      <trkpt lat="43.26472" lon="5.93525">
        <ele>366.46484375</ele>
        <time>2019-05-12T09:14:16Z</time>
      </trkpt>
      <trkpt lat="43.26474" lon="5.93522">
        <ele>365.53125</ele>
        <time>2019-05-12T09:14:17Z</time>
      </trkpt>
      <trkpt lat="43.26477" lon="5.93521">
        <ele>364.09765625</ele>
        <time>2019-05-12T09:14:18Z</time>
      </trkpt>
      <trkpt lat="43.26479" lon="5.93525">
        <ele>362.93359375</ele>
        <time>2019-05-12T09:14:26Z</time>
      </trkpt>
      <trkpt lat="43.26479" lon="5.93526">
        <ele>362.84375</ele>
        <time>2019-05-12T09:14:30Z</time>
      </trkpt>
      <trkpt lat="43.2648" lon="5.93528">
        <ele>362.56640625</ele>
        <time>2019-05-12T09:14:31Z</time>
      </trkpt>
      <trkpt lat="43.26481" lon="5.93538">
        <ele>361.57421875</ele>
        <time>2019-05-12T09:14:33Z</time>
      </trkpt>
      <trkpt lat="43.26483" lon="5.93543">
        <ele>360.38671875</ele>
        <time>2019-05-12T09:14:34Z</time>
      </trkpt>
      <trkpt lat="43.26486" lon="5.93548">
        <ele>358.69921875</ele>
        <time>2019-05-12T09:14:35Z</time>
      </trkpt>
      <trkpt lat="43.26489" lon="5.93551">
        <ele>356.91015625</ele>
        <time>2019-05-12T09:14:36Z</time>
      </trkpt>
      <trkpt lat="43.26492" lon="5.93551">
        <ele>355.484375</ele>
        <time>2019-05-12T09:14:37Z</time>
      </trkpt>
      <trkpt lat="43.26494" lon="5.93548">
        <ele>354.54296875</ele>
        <time>2019-05-12T09:14:38Z</time>
      </trkpt>
      <trkpt lat="43.26495" lon="5.93545">
        <ele>354.16015625</ele>
        <time>2019-05-12T09:14:39Z</time>
      </trkpt>
      <trkpt lat="43.26495" lon="5.9354">
        <ele>354.25</ele>
        <time>2019-05-12T09:14:40Z</time>
      </trkpt>
      <trkpt lat="43.26495" lon="5.93535">
        <ele>354.734375</ele>
        <time>2019-05-12T09:14:41Z</time>
      </trkpt>
      <trkpt lat="43.26494" lon="5.93523">
        <ele>355.30859375</ele>
        <time>2019-05-12T09:14:43Z</time>
      </trkpt>
      <trkpt lat="43.26497" lon="5.93517">
        <ele>354.296875</ele>
        <time>2019-05-12T09:14:44Z</time>
      </trkpt>
      <trkpt lat="43.26501" lon="5.93511">
        <ele>352.55859375</ele>
        <time>2019-05-12T09:14:45Z</time>
      </trkpt>
      <trkpt lat="43.26505" lon="5.93505">
        <ele>350.99609375</ele>
        <time>2019-05-12T09:14:46Z</time>
      </trkpt>
      <trkpt lat="43.26509" lon="5.93499">
        <ele>349.79296875</ele>
        <time>2019-05-12T09:14:47Z</time>
      </trkpt>
      <trkpt lat="43.26512" lon="5.93493">
        <ele>348.7578125</ele>
        <time>2019-05-12T09:14:48Z</time>
      </trkpt>
      <trkpt lat="43.26515" lon="5.93488">
        <ele>347.796875</ele>
        <time>2019-05-12T09:14:49Z</time>
      </trkpt>
      <trkpt lat="43.26519" lon="5.93486">
        <ele>346.47265625</ele>
        <time>2019-05-12T09:14:50Z</time>
      </trkpt>
      <trkpt lat="43.26522" lon="5.93488">
        <ele>345.28125</ele>
        <time>2019-05-12T09:14:51Z</time>
      </trkpt>
      <trkpt lat="43.26523" lon="5.93492">
        <ele>344.91015625</ele>
        <time>2019-05-12T09:14:52Z</time>
      </trkpt>
      <trkpt lat="43.26522" lon="5.93495">
        <ele>345.1796875</ele>
        <time>2019-05-12T09:14:53Z</time>
      </trkpt>
      <trkpt lat="43.26521" lon="5.93498">
        <ele>345.5859375</ele>
        <time>2019-05-12T09:14:54Z</time>
      </trkpt>
      <trkpt lat="43.26515" lon="5.93512">
        <ele>347.18359375</ele>
        <time>2019-05-12T09:15:03Z</time>
      </trkpt>
      <trkpt lat="43.2652" lon="5.93534">
        <ele>345.2734375</ele>
        <time>2019-05-12T09:15:11Z</time>
      </trkpt>
      <trkpt lat="43.26525" lon="5.9356">
        <ele>343.62109375</ele>
        <time>2019-05-12T09:15:14Z</time>
      </trkpt>
      <trkpt lat="43.26531" lon="5.93589">
        <ele>341.9765625</ele>
        <time>2019-05-12T09:15:17Z</time>
      </trkpt>
      <trkpt lat="43.26532" lon="5.93598">
        <ele>341.73046875</ele>
        <time>2019-05-12T09:15:18Z</time>
      </trkpt>
      <trkpt lat="43.26535" lon="5.93614">
        <ele>341.24609375</ele>
        <time>2019-05-12T09:15:20Z</time>
      </trkpt>
      <trkpt lat="43.26536" lon="5.93623">
        <ele>340.921875</ele>
        <time>2019-05-12T09:15:21Z</time>
      </trkpt>
      <trkpt lat="43.26542" lon="5.93653">
        <ele>338.4765625</ele>
        <time>2019-05-12T09:15:24Z</time>
      </trkpt>
      <trkpt lat="43.26546" lon="5.93663">
        <ele>337.33984375</ele>
        <time>2019-05-12T09:15:25Z</time>
      </trkpt>
      <trkpt lat="43.2655" lon="5.93672">
        <ele>336.1015625</ele>
        <time>2019-05-12T09:15:26Z</time>
      </trkpt>
      <trkpt lat="43.26556" lon="5.9368">
        <ele>334.8984375</ele>
        <time>2019-05-12T09:15:27Z</time>
      </trkpt>
      <trkpt lat="43.26561" lon="5.93688">
        <ele>333.1640625</ele>
        <time>2019-05-12T09:15:28Z</time>
      </trkpt>
      <trkpt lat="43.26565" lon="5.93695">
        <ele>331.12890625</ele>
        <time>2019-05-12T09:15:29Z</time>
      </trkpt>
      <trkpt lat="43.26567" lon="5.93703">
        <ele>328.8125</ele>
        <time>2019-05-12T09:15:30Z</time>
      </trkpt>
      <trkpt lat="43.26568" lon="5.9371">
        <ele>326.765625</ele>
        <time>2019-05-12T09:15:31Z</time>
      </trkpt>
      <trkpt lat="43.26569" lon="5.93716">
        <ele>325.25390625</ele>
        <time>2019-05-12T09:15:32Z</time>
      </trkpt>
      <trkpt lat="43.2657" lon="5.9372">
        <ele>324.37890625</ele>
        <time>2019-05-12T09:15:33Z</time>
      </trkpt>
      <trkpt lat="43.2657" lon="5.93722">
        <ele>323.703125</ele>
        <time>2019-05-12T09:15:34Z</time>
      </trkpt>
      <trkpt lat="43.26569" lon="5.93728">
        <ele>322.3671875</ele>
        <time>2019-05-12T09:15:43Z</time>
      </trkpt>
      <trkpt lat="43.26569" lon="5.93735">
        <ele>320.50390625</ele>
        <time>2019-05-12T09:16:11Z</time>
      </trkpt>
      <trkpt lat="43.26569" lon="5.93739">
        <ele>319.69140625</ele>
        <time>2019-05-12T09:16:12Z</time>
      </trkpt>
      <trkpt lat="43.26568" lon="5.93743">
        <ele>318.65625</ele>
        <time>2019-05-12T09:16:13Z</time>
      </trkpt>
      <trkpt lat="43.26569" lon="5.93747">
        <ele>317.421875</ele>
        <time>2019-05-12T09:16:14Z</time>
      </trkpt>
      <trkpt lat="43.26571" lon="5.93751">
        <ele>316.0546875</ele>
        <time>2019-05-12T09:16:15Z</time>
      </trkpt>
      <trkpt lat="43.26573" lon="5.93755">
        <ele>314.54296875</ele>
        <time>2019-05-12T09:16:16Z</time>
      </trkpt>
      <trkpt lat="43.26577" lon="5.9376">
        <ele>312.875</ele>
        <time>2019-05-12T09:16:17Z</time>
      </trkpt>
      <trkpt lat="43.26582" lon="5.93763">
        <ele>311.2890625</ele>
        <time>2019-05-12T09:16:18Z</time>
      </trkpt>
      <trkpt lat="43.26588" lon="5.93766">
        <ele>309.83203125</ele>
        <time>2019-05-12T09:16:19Z</time>
      </trkpt>
      <trkpt lat="43.26594" lon="5.93768">
        <ele>308.4765625</ele>
        <time>2019-05-12T09:16:20Z</time>
      </trkpt>
      <trkpt lat="43.266" lon="5.93769">
        <ele>307.58984375</ele>
        <time>2019-05-12T09:16:21Z</time>
      </trkpt>
      <trkpt lat="43.26606" lon="5.93767">
        <ele>307.20703125</ele>
        <time>2019-05-12T09:16:22Z</time>
      </trkpt>
      <trkpt lat="43.26611" lon="5.93763">
        <ele>307.33984375</ele>
        <time>2019-05-12T09:16:23Z</time>
      </trkpt>
      <trkpt lat="43.26617" lon="5.93758">
        <ele>307.640625</ele>
        <time>2019-05-12T09:16:24Z</time>
      </trkpt>
      <trkpt lat="43.26622" lon="5.93751">
        <ele>307.84765625</ele>
        <time>2019-05-12T09:16:25Z</time>
      </trkpt>
      <trkpt lat="43.26628" lon="5.93743">
        <ele>307.86328125</ele>
        <time>2019-05-12T09:16:26Z</time>
      </trkpt>
      <trkpt lat="43.26632" lon="5.93734">
        <ele>308.0390625</ele>
        <time>2019-05-12T09:16:27Z</time>
      </trkpt>
      <trkpt lat="43.26635" lon="5.93725">
        <ele>308.4921875</ele>
        <time>2019-05-12T09:16:28Z</time>
      </trkpt>
      <trkpt lat="43.26637" lon="5.93715">
        <ele>308.73828125</ele>
        <time>2019-05-12T09:16:29Z</time>
      </trkpt>
      <trkpt lat="43.26644" lon="5.93684">
        <ele>309.2265625</ele>
        <time>2019-05-12T09:16:32Z</time>
      </trkpt>
      <trkpt lat="43.26647" lon="5.93653">
        <ele>310.75</ele>
        <time>2019-05-12T09:16:35Z</time>
      </trkpt>
      <trkpt lat="43.26649" lon="5.93644">
        <ele>311.28515625</ele>
        <time>2019-05-12T09:16:36Z</time>
      </trkpt>
      <trkpt lat="43.26652" lon="5.93638">
        <ele>311.6328125</ele>
        <time>2019-05-12T09:16:37Z</time>
      </trkpt>
      <trkpt lat="43.26656" lon="5.93635">
        <ele>311.71484375</ele>
        <time>2019-05-12T09:16:38Z</time>
      </trkpt>
      <trkpt lat="43.26661" lon="5.93636">
        <ele>311.5</ele>
        <time>2019-05-12T09:16:39Z</time>
      </trkpt>
      <trkpt lat="43.26664" lon="5.93641">
        <ele>311.01953125</ele>
        <time>2019-05-12T09:16:40Z</time>
      </trkpt>
      <trkpt lat="43.26665" lon="5.93647">
        <ele>310.48046875</ele>
        <time>2019-05-12T09:16:41Z</time>
      </trkpt>
      <trkpt lat="43.26666" lon="5.93655">
        <ele>309.94921875</ele>
        <time>2019-05-12T09:16:42Z</time>
      </trkpt>
      <trkpt lat="43.26665" lon="5.93662">
        <ele>309.42578125</ele>
        <time>2019-05-12T09:16:43Z</time>
      </trkpt>
      <trkpt lat="43.26666" lon="5.9367">
        <ele>308.87109375</ele>
        <time>2019-05-12T09:16:44Z</time>
      </trkpt>
      <trkpt lat="43.26667" lon="5.93678">
        <ele>308.28125</ele>
        <time>2019-05-12T09:16:45Z</time>
      </trkpt>
      <trkpt lat="43.26667" lon="5.93686">
        <ele>307.69140625</ele>
        <time>2019-05-12T09:16:46Z</time>
      </trkpt>
      <trkpt lat="43.26667" lon="5.93694">
        <ele>307.12109375</ele>
        <time>2019-05-12T09:16:47Z</time>
      </trkpt>
      <trkpt lat="43.26668" lon="5.93725">
        <ele>304.98046875</ele>
        <time>2019-05-12T09:16:51Z</time>
      </trkpt>
      <trkpt lat="43.26667" lon="5.93741">
        <ele>304.3359375</ele>
        <time>2019-05-12T09:16:53Z</time>
      </trkpt>
      <trkpt lat="43.26665" lon="5.93767">
        <ele>302.640625</ele>
        <time>2019-05-12T09:16:56Z</time>
      </trkpt>
      <trkpt lat="43.26663" lon="5.93784">
        <ele>301.71484375</ele>
        <time>2019-05-12T09:16:58Z</time>
      </trkpt>
      <trkpt lat="43.26661" lon="5.93793">
        <ele>301.51171875</ele>
        <time>2019-05-12T09:16:59Z</time>
      </trkpt>
      <trkpt lat="43.26657" lon="5.938">
        <ele>301.1953125</ele>
        <time>2019-05-12T09:17:00Z</time>
      </trkpt>
      <trkpt lat="43.26653" lon="5.93807">
        <ele>300.75390625</ele>
        <time>2019-05-12T09:17:01Z</time>
      </trkpt>
      <trkpt lat="43.26648" lon="5.93813">
        <ele>300.19921875</ele>
        <time>2019-05-12T09:17:02Z</time>
      </trkpt>
      <trkpt lat="43.26642" lon="5.93819">
        <ele>299.53515625</ele>
        <time>2019-05-12T09:17:03Z</time>
      </trkpt>
      <trkpt lat="43.26599" lon="5.93854">
        <ele>297.375</ele>
        <time>2019-05-12T09:17:10Z</time>
      </trkpt>
      <trkpt lat="43.26593" lon="5.93859">
        <ele>297.2421875</ele>
        <time>2019-05-12T09:17:11Z</time>
      </trkpt>
      <trkpt lat="43.26587" lon="5.93865">
        <ele>297.2109375</ele>
        <time>2019-05-12T09:17:12Z</time>
      </trkpt>
      <trkpt lat="43.26582" lon="5.93872">
        <ele>297.27734375</ele>
        <time>2019-05-12T09:17:13Z</time>
      </trkpt>
      <trkpt lat="43.26577" lon="5.93878">
        <ele>297.19921875</ele>
        <time>2019-05-12T09:17:14Z</time>
      </trkpt>
      <trkpt lat="43.26572" lon="5.93883">
        <ele>296.98046875</ele>
        <time>2019-05-12T09:17:15Z</time>
      </trkpt>
      <trkpt lat="43.26548" lon="5.93895">
        <ele>296</ele>
        <time>2019-05-12T09:17:22Z</time>
      </trkpt>
      <trkpt lat="43.26546" lon="5.93895">
        <ele>296</ele>
        <time>2019-05-12T09:17:23Z</time>
      </trkpt>
      <trkpt lat="43.26542" lon="5.93897">
        <ele>296</ele>
        <time>2019-05-12T09:17:25Z</time>
      </trkpt>
      <trkpt lat="43.26537" lon="5.93905">
        <ele>296</ele>
        <time>2019-05-12T09:17:39Z</time>
      </trkpt>
      <trkpt lat="43.26537" lon="5.93908">
        <ele>296</ele>
        <time>2019-05-12T09:17:59Z</time>
      </trkpt>
      <trkpt lat="43.26539" lon="5.93912">
        <ele>296</ele>
        <time>2019-05-12T09:18:30Z</time>
      </trkpt>
      <trkpt lat="43.2654" lon="5.93913">
        <ele>296</ele>
        <time>2019-05-12T09:18:56Z</time>
      </trkpt>
      <trkpt lat="43.26546" lon="5.93908">
        <ele>296</ele>
        <time>2019-05-12T09:19:28Z</time>
      </trkpt>
      <trkpt lat="43.26542" lon="5.93914">
        <ele>296</ele>
        <time>2019-05-12T09:20:00Z</time>
      </trkpt>
      <trkpt lat="43.2654" lon="5.93914">
        <ele>296</ele>
        <time>2019-05-12T09:20:29Z</time>
      </trkpt>
      <trkpt lat="43.26541" lon="5.93917">
        <ele>295.9921875</ele>
        <time>2019-05-12T09:21:03Z</time>
      </trkpt>
      <trkpt lat="43.26542" lon="5.93918">
        <ele>295.98828125</ele>
        <time>2019-05-12T09:21:35Z</time>
      </trkpt>
      <trkpt lat="43.26544" lon="5.93914">
        <ele>296</ele>
        <time>2019-05-12T09:22:07Z</time>
      </trkpt>
      <trkpt lat="43.26544" lon="5.93908">
        <ele>296</ele>
        <time>2019-05-12T09:22:38Z</time>
      </trkpt>
      <trkpt lat="43.2654" lon="5.93909">
        <ele>296</ele>
        <time>2019-05-12T09:23:14Z</time>
      </trkpt>
      <trkpt lat="43.26538" lon="5.93908">
        <ele>296</ele>
        <time>2019-05-12T09:23:43Z</time>
      </trkpt>
      <trkpt lat="43.26536" lon="5.93908">
        <ele>296</ele>
        <time>2019-05-12T09:24:13Z</time>
      </trkpt>
      <trkpt lat="43.26536" lon="5.93909">
        <ele>296</ele>
        <time>2019-05-12T09:24:46Z</time>
      </trkpt>
      <trkpt lat="43.26536" lon="5.93911">
        <ele>296</ele>
        <time>2019-05-12T09:25:16Z</time>
      </trkpt>
      <trkpt lat="43.2654" lon="5.93909">
        <ele>296</ele>
        <time>2019-05-12T09:25:43Z</time>
      </trkpt>
      <trkpt lat="43.26542" lon="5.93909">
        <ele>296</ele>
        <time>2019-05-12T09:26:20Z</time>
      </trkpt>
      <trkpt lat="43.26541" lon="5.93909">
        <ele>296</ele>
        <time>2019-05-12T09:26:51Z</time>
      </trkpt>
      <trkpt lat="43.26539" lon="5.93907">
        <ele>296</ele>
        <time>2019-05-12T09:27:26Z</time>
      </trkpt>
      <trkpt lat="43.26535" lon="5.93907">
        <ele>296</ele>
        <time>2019-05-12T09:28:00Z</time>
      </trkpt>
      <trkpt lat="43.26537" lon="5.93908">
        <ele>296</ele>
        <time>2019-05-12T09:28:33Z</time>
      </trkpt>
      <trkpt lat="43.26539" lon="5.93908">
        <ele>296</ele>
        <time>2019-05-12T09:29:11Z</time>
      </trkpt>
      <trkpt lat="43.2654" lon="5.93913">
        <ele>296</ele>
        <time>2019-05-12T09:29:44Z</time>
      </trkpt>
      <trkpt lat="43.2654" lon="5.93916">
        <ele>296</ele>
        <time>2019-05-12T09:29:58Z</time>
      </trkpt>
      <trkpt lat="43.2654" lon="5.93916">
        <ele>296</ele>
        <time>2019-05-12T09:29:59Z</time>
      </trkpt>
      <trkpt lat="43.2654" lon="5.93916">
        <ele>295.99609375</ele>
        <time>2019-05-12T09:30:00Z</time>
      </trkpt>
      <trkpt lat="43.26541" lon="5.93916">
        <ele>295.99609375</ele>
        <time>2019-05-12T09:30:03Z</time>
      </trkpt>
      <trkpt lat="43.26541" lon="5.93916">
        <ele>296</ele>
        <time>2019-05-12T09:30:05Z</time>
      </trkpt>
      <trkpt lat="43.26541" lon="5.93915">
        <ele>296</ele>
        <time>2019-05-12T09:30:09Z</time>
      </trkpt>
      <trkpt lat="43.26539" lon="5.93919">
        <ele>295.953125</ele>
        <time>2019-05-12T09:30:36Z</time>
      </trkpt>
      <trkpt lat="43.26539" lon="5.93919">
        <ele>295.9609375</ele>
        <time>2019-05-12T09:30:38Z</time>
      </trkpt>
      <trkpt lat="43.26539" lon="5.93918">
        <ele>295.9609375</ele>
        <time>2019-05-12T09:30:39Z</time>
      </trkpt>
      <trkpt lat="43.26539" lon="5.93918">
        <ele>295.9609375</ele>
        <time>2019-05-12T09:30:40Z</time>
      </trkpt>
      <trkpt lat="43.26539" lon="5.93918">
        <ele>295.9765625</ele>
        <time>2019-05-12T09:30:43Z</time>
      </trkpt>
      <trkpt lat="43.2654" lon="5.93917">
        <ele>295.9921875</ele>
        <time>2019-05-12T09:30:46Z</time>
      </trkpt>
      <trkpt lat="43.2654" lon="5.93916">
        <ele>295.99609375</ele>
        <time>2019-05-12T09:30:47Z</time>
      </trkpt>
      <trkpt lat="43.2654" lon="5.93915">
        <ele>296</ele>
        <time>2019-05-12T09:30:52Z</time>
      </trkpt>
      <trkpt lat="43.2654" lon="5.93914">
        <ele>296</ele>
        <time>2019-05-12T09:30:56Z</time>
      </trkpt>
      <trkpt lat="43.2654" lon="5.93914">
        <ele>296</ele>
        <time>2019-05-12T09:30:57Z</time>
      </trkpt>
      <trkpt lat="43.2654" lon="5.93914">
        <ele>296</ele>
        <time>2019-05-12T09:30:58Z</time>
      </trkpt>
      <trkpt lat="43.26541" lon="5.93913">
        <ele>296</ele>
        <time>2019-05-12T09:31:02Z</time>
      </trkpt>
      <trkpt lat="43.26541" lon="5.93913">
        <ele>296</ele>
        <time>2019-05-12T09:31:03Z</time>
      </trkpt>
      <trkpt lat="43.26541" lon="5.93913">
        <ele>296</ele>
        <time>2019-05-12T09:31:04Z</time>
      </trkpt>
      <trkpt lat="43.26541" lon="5.93914">
        <ele>296</ele>
        <time>2019-05-12T09:31:05Z</time>
      </trkpt>
      <trkpt lat="43.26542" lon="5.93914">
        <ele>296</ele>
        <time>2019-05-12T09:31:09Z</time>
      </trkpt>
      <trkpt lat="43.26542" lon="5.93913">
        <ele>296</ele>
        <time>2019-05-12T09:31:10Z</time>
      </trkpt>
      <trkpt lat="43.26542" lon="5.93913">
        <ele>296</ele>
        <time>2019-05-12T09:31:12Z</time>
      </trkpt>
      <trkpt lat="43.26542" lon="5.93912">
        <ele>296</ele>
        <time>2019-05-12T09:31:13Z</time>
      </trkpt>
      <trkpt lat="43.26541" lon="5.93912">
        <ele>296</ele>
        <time>2019-05-12T09:31:24Z</time>
      </trkpt>
      <trkpt lat="43.26541" lon="5.93912">
        <ele>296</ele>
        <time>2019-05-12T09:31:25Z</time>
      </trkpt>
      <trkpt lat="43.26541" lon="5.93912">
        <ele>296</ele>
        <time>2019-05-12T09:31:26Z</time>
      </trkpt>
      <trkpt lat="43.26541" lon="5.93913">
        <ele>296</ele>
        <time>2019-05-12T09:31:27Z</time>
      </trkpt>
      <trkpt lat="43.26541" lon="5.93913">
        <ele>296</ele>
        <time>2019-05-12T09:31:28Z</time>
      </trkpt>
      <trkpt lat="43.26541" lon="5.93913">
        <ele>296</ele>
        <time>2019-05-12T09:31:29Z</time>
      </trkpt>
      <trkpt lat="43.26543" lon="5.93915">
        <ele>296</ele>
        <time>2019-05-12T09:31:52Z</time>
      </trkpt>
      <trkpt lat="43.26543" lon="5.93919">
        <ele>295.98828125</ele>
        <time>2019-05-12T09:32:15Z</time>
      </trkpt>
      <trkpt lat="43.26543" lon="5.93919">
        <ele>295.98828125</ele>
        <time>2019-05-12T09:32:36Z</time>
      </trkpt>
      <trkpt lat="43.26542" lon="5.93922">
        <ele>295.96484375</ele>
        <time>2019-05-12T09:32:58Z</time>
      </trkpt>
      <trkpt lat="43.26542" lon="5.93922">
        <ele>295.96484375</ele>
        <time>2019-05-12T09:32:59Z</time>
      </trkpt>
      <trkpt lat="43.26543" lon="5.93923">
        <ele>295.96875</ele>
        <time>2019-05-12T09:33:08Z</time>
      </trkpt>
      <trkpt lat="43.26543" lon="5.93922">
        <ele>295.96875</ele>
        <time>2019-05-12T09:33:09Z</time>
      </trkpt>
      <trkpt lat="43.26543" lon="5.93922">
        <ele>295.9765625</ele>
        <time>2019-05-12T09:33:13Z</time>
      </trkpt>
      <trkpt lat="43.26543" lon="5.9392">
        <ele>295.98046875</ele>
        <time>2019-05-12T09:33:38Z</time>
      </trkpt>
      <trkpt lat="43.26544" lon="5.93918">
        <ele>296</ele>
        <time>2019-05-12T09:34:00Z</time>
      </trkpt>
      <trkpt lat="43.26542" lon="5.93918">
        <ele>295.9921875</ele>
        <time>2019-05-12T09:34:29Z</time>
      </trkpt>
      <trkpt lat="43.26543" lon="5.93916">
        <ele>296</ele>
        <time>2019-05-12T09:34:58Z</time>
      </trkpt>
      <trkpt lat="43.26543" lon="5.93919">
        <ele>295.98828125</ele>
        <time>2019-05-12T09:35:28Z</time>
      </trkpt>
      <trkpt lat="43.26543" lon="5.93918">
        <ele>295.9921875</ele>
        <time>2019-05-12T09:36:01Z</time>
      </trkpt>
      <trkpt lat="43.26545" lon="5.93918">
        <ele>296</ele>
        <time>2019-05-12T09:36:32Z</time>
      </trkpt>
      <trkpt lat="43.26545" lon="5.9392">
        <ele>296.0078125</ele>
        <time>2019-05-12T09:37:03Z</time>
      </trkpt>
      <trkpt lat="43.26546" lon="5.9392">
        <ele>296.01953125</ele>
        <time>2019-05-12T09:37:29Z</time>
      </trkpt>
      <trkpt lat="43.26546" lon="5.93921">
        <ele>296.0234375</ele>
        <time>2019-05-12T09:37:59Z</time>
      </trkpt>
      <trkpt lat="43.26543" lon="5.93914">
        <ele>296</ele>
        <time>2019-05-12T09:38:09Z</time>
      </trkpt>
      <trkpt lat="43.26539" lon="5.93917">
        <ele>295.98828125</ele>
        <time>2019-05-12T09:38:34Z</time>
      </trkpt>
      <trkpt lat="43.26536" lon="5.93914">
        <ele>296</ele>
        <time>2019-05-12T09:39:04Z</time>
      </trkpt>
      <trkpt lat="43.26533" lon="5.93909">
        <ele>296</ele>
        <time>2019-05-12T09:39:34Z</time>
      </trkpt>
      <trkpt lat="43.26538" lon="5.93914">
        <ele>296</ele>
        <time>2019-05-12T09:40:03Z</time>
      </trkpt>
      <trkpt lat="43.2654" lon="5.93918">
        <ele>295.98046875</ele>
        <time>2019-05-12T09:40:32Z</time>
      </trkpt>
      <trkpt lat="43.26538" lon="5.93909">
        <ele>296</ele>
        <time>2019-05-12T09:40:48Z</time>
      </trkpt>
      <trkpt lat="43.26539" lon="5.93906">
        <ele>296</ele>
        <time>2019-05-12T09:41:00Z</time>
      </trkpt>
      <trkpt lat="43.26529" lon="5.93912">
        <ele>296.05859375</ele>
        <time>2019-05-12T09:41:19Z</time>
      </trkpt>
      <trkpt lat="43.26515" lon="5.93934">
        <ele>295.91015625</ele>
        <time>2019-05-12T09:41:29Z</time>
      </trkpt>
      <trkpt lat="43.26514" lon="5.93938">
        <ele>295.78515625</ele>
        <time>2019-05-12T09:41:30Z</time>
      </trkpt>
      <trkpt lat="43.2651" lon="5.93978">
        <ele>294.046875</ele>
        <time>2019-05-12T09:41:40Z</time>
      </trkpt>
      <trkpt lat="43.26513" lon="5.9399">
        <ele>293.6875</ele>
        <time>2019-05-12T09:41:43Z</time>
      </trkpt>
      <trkpt lat="43.26516" lon="5.94032">
        <ele>292.234375</ele>
        <time>2019-05-12T09:41:51Z</time>
      </trkpt>
      <trkpt lat="43.26508" lon="5.94046">
        <ele>290.828125</ele>
        <time>2019-05-12T09:41:55Z</time>
      </trkpt>
      <trkpt lat="43.26484" lon="5.9407">
        <ele>291.1015625</ele>
        <time>2019-05-12T09:42:04Z</time>
      </trkpt>
      <trkpt lat="43.26462" lon="5.94099">
        <ele>291.85546875</ele>
        <time>2019-05-12T09:42:16Z</time>
      </trkpt>
      <trkpt lat="43.26444" lon="5.94137">
        <ele>291.9765625</ele>
        <time>2019-05-12T09:42:27Z</time>
      </trkpt>
      <trkpt lat="43.26439" lon="5.94184">
        <ele>289.75</ele>
        <time>2019-05-12T09:42:35Z</time>
      </trkpt>
      <trkpt lat="43.26421" lon="5.94223">
        <ele>293.62109375</ele>
        <time>2019-05-12T09:42:45Z</time>
      </trkpt>
      <trkpt lat="43.26424" lon="5.94275">
        <ele>294.85546875</ele>
        <time>2019-05-12T09:42:58Z</time>
      </trkpt>
      <trkpt lat="43.26423" lon="5.94318">
        <ele>298.35546875</ele>
        <time>2019-05-12T09:43:10Z</time>
      </trkpt>
      <trkpt lat="43.26432" lon="5.9435">
        <ele>299.27734375</ele>
        <time>2019-05-12T09:43:19Z</time>
      </trkpt>
      <trkpt lat="43.26447" lon="5.94369">
        <ele>298.0390625</ele>
        <time>2019-05-12T09:43:25Z</time>
      </trkpt>
      <trkpt lat="43.2645" lon="5.94378">
        <ele>297.3828125</ele>
        <time>2019-05-12T09:43:29Z</time>
      </trkpt>
      <trkpt lat="43.26446" lon="5.94384">
        <ele>298.23828125</ele>
        <time>2019-05-12T09:43:34Z</time>
      </trkpt>
      <trkpt lat="43.2644" lon="5.94404">
        <ele>297.2734375</ele>
        <time>2019-05-12T09:43:47Z</time>
      </trkpt>
      <trkpt lat="43.26442" lon="5.94408">
        <ele>296.5703125</ele>
        <time>2019-05-12T09:44:01Z</time>
      </trkpt>
      <trkpt lat="43.26427" lon="5.94433">
        <ele>294.99609375</ele>
        <time>2019-05-12T09:44:10Z</time>
      </trkpt>
      <trkpt lat="43.26425" lon="5.94435">
        <ele>294.87109375</ele>
        <time>2019-05-12T09:44:11Z</time>
      </trkpt>
      <trkpt lat="43.26414" lon="5.94455">
        <ele>292.6796875</ele>
        <time>2019-05-12T09:44:15Z</time>
      </trkpt>
      <trkpt lat="43.26411" lon="5.94469">
        <ele>290.71875</ele>
        <time>2019-05-12T09:44:17Z</time>
      </trkpt>
      <trkpt lat="43.26406" lon="5.9448">
        <ele>289.625</ele>
        <time>2019-05-12T09:44:19Z</time>
      </trkpt>
      <trkpt lat="43.26403" lon="5.94491">
        <ele>288.54296875</ele>
        <time>2019-05-12T09:44:22Z</time>
      </trkpt>
      <trkpt lat="43.26402" lon="5.94503">
        <ele>287.21875</ele>
        <time>2019-05-12T09:44:27Z</time>
      </trkpt>
      <trkpt lat="43.26406" lon="5.94519">
        <ele>285.52734375</ele>
        <time>2019-05-12T09:44:32Z</time>
      </trkpt>
      <trkpt lat="43.26399" lon="5.94553">
        <ele>283.390625</ele>
        <time>2019-05-12T09:44:39Z</time>
      </trkpt>
      <trkpt lat="43.26392" lon="5.9459">
        <ele>281.7265625</ele>
        <time>2019-05-12T09:44:49Z</time>
      </trkpt>
      <trkpt lat="43.26387" lon="5.9461">
        <ele>280.85546875</ele>
        <time>2019-05-12T09:44:53Z</time>
      </trkpt>
      <trkpt lat="43.26386" lon="5.94625">
        <ele>279.3671875</ele>
        <time>2019-05-12T09:44:55Z</time>
      </trkpt>
      <trkpt lat="43.26385" lon="5.94639">
        <ele>277.75390625</ele>
        <time>2019-05-12T09:44:57Z</time>
      </trkpt>
      <trkpt lat="43.26385" lon="5.94654">
        <ele>277.08984375</ele>
        <time>2019-05-12T09:44:59Z</time>
      </trkpt>
      <trkpt lat="43.26394" lon="5.94701">
        <ele>271.85546875</ele>
        <time>2019-05-12T09:45:05Z</time>
      </trkpt>
      <trkpt lat="43.26395" lon="5.94732">
        <ele>269.0625</ele>
        <time>2019-05-12T09:45:09Z</time>
      </trkpt>
      <trkpt lat="43.26393" lon="5.9474">
        <ele>268.66015625</ele>
        <time>2019-05-12T09:45:10Z</time>
      </trkpt>
      <trkpt lat="43.26385" lon="5.94768">
        <ele>266.30859375</ele>
        <time>2019-05-12T09:45:13Z</time>
      </trkpt>
      <trkpt lat="43.26378" lon="5.94788">
        <ele>263.69140625</ele>
        <time>2019-05-12T09:45:15Z</time>
      </trkpt>
      <trkpt lat="43.26359" lon="5.9482">
        <ele>260.78515625</ele>
        <time>2019-05-12T09:45:20Z</time>
      </trkpt>
      <trkpt lat="43.26351" lon="5.94843">
        <ele>258.9609375</ele>
        <time>2019-05-12T09:45:25Z</time>
      </trkpt>
      <trkpt lat="43.26348" lon="5.94861">
        <ele>256.5859375</ele>
        <time>2019-05-12T09:45:30Z</time>
      </trkpt>
      <trkpt lat="43.26347" lon="5.94865">
        <ele>256.39453125</ele>
        <time>2019-05-12T09:45:31Z</time>
      </trkpt>
      <trkpt lat="43.26353" lon="5.94888">
        <ele>252.65625</ele>
        <time>2019-05-12T09:45:42Z</time>
      </trkpt>
      <trkpt lat="43.26358" lon="5.94887">
        <ele>251.51953125</ele>
        <time>2019-05-12T09:45:48Z</time>
      </trkpt>
      <trkpt lat="43.26362" lon="5.94881">
        <ele>250.90234375</ele>
        <time>2019-05-12T09:45:52Z</time>
      </trkpt>
      <trkpt lat="43.26369" lon="5.94876">
        <ele>250.75390625</ele>
        <time>2019-05-12T09:45:56Z</time>
      </trkpt>
      <trkpt lat="43.26375" lon="5.94874">
        <ele>250.78515625</ele>
        <time>2019-05-12T09:46:09Z</time>
      </trkpt>
      <trkpt lat="43.26375" lon="5.94875">
        <ele>250.734375</ele>
        <time>2019-05-12T09:46:10Z</time>
      </trkpt>
      <trkpt lat="43.26372" lon="5.94883">
        <ele>250.265625</ele>
        <time>2019-05-12T09:46:17Z</time>
      </trkpt>
      <trkpt lat="43.2636" lon="5.94892">
        <ele>250.78125</ele>
        <time>2019-05-12T09:46:29Z</time>
      </trkpt>
      <trkpt lat="43.26348" lon="5.94906">
        <ele>252.65625</ele>
        <time>2019-05-12T09:46:42Z</time>
      </trkpt>
      <trkpt lat="43.26343" lon="5.94918">
        <ele>252.59375</ele>
        <time>2019-05-12T09:46:49Z</time>
      </trkpt>
      <trkpt lat="43.26338" lon="5.94941">
        <ele>251.8125</ele>
        <time>2019-05-12T09:46:57Z</time>
      </trkpt>
      <trkpt lat="43.26337" lon="5.94944">
        <ele>251.859375</ele>
        <time>2019-05-12T09:46:58Z</time>
      </trkpt>
      <trkpt lat="43.26335" lon="5.94951">
        <ele>252</ele>
        <time>2019-05-12T09:47:00Z</time>
      </trkpt>
      <trkpt lat="43.26334" lon="5.94955">
        <ele>251.99609375</ele>
        <time>2019-05-12T09:47:01Z</time>
      </trkpt>
      <trkpt lat="43.26325" lon="5.94989">
        <ele>252.33984375</ele>
        <time>2019-05-12T09:47:13Z</time>
      </trkpt>
      <trkpt lat="43.26325" lon="5.95023">
        <ele>251.6484375</ele>
        <time>2019-05-12T09:47:26Z</time>
      </trkpt>
      <trkpt lat="43.26322" lon="5.9504">
        <ele>252.5546875</ele>
        <time>2019-05-12T09:47:35Z</time>
      </trkpt>
      <trkpt lat="43.26338" lon="5.95075">
        <ele>252.32421875</ele>
        <time>2019-05-12T09:47:48Z</time>
      </trkpt>
      <trkpt lat="43.2634" lon="5.95076">
        <ele>252.1796875</ele>
        <time>2019-05-12T09:47:49Z</time>
      </trkpt>
      <trkpt lat="43.26342" lon="5.95076">
        <ele>251.98046875</ele>
        <time>2019-05-12T09:47:50Z</time>
      </trkpt>
      <trkpt lat="43.26343" lon="5.95076">
        <ele>251.84375</ele>
        <time>2019-05-12T09:47:51Z</time>
      </trkpt>
      <trkpt lat="43.26344" lon="5.95077">
        <ele>251.765625</ele>
        <time>2019-05-12T09:47:52Z</time>
      </trkpt>
      <trkpt lat="43.26348" lon="5.95079">
        <ele>251.515625</ele>
        <time>2019-05-12T09:47:55Z</time>
      </trkpt>
      <trkpt lat="43.26356" lon="5.95088">
        <ele>251.48046875</ele>
        <time>2019-05-12T09:48:04Z</time>
      </trkpt>
      <trkpt lat="43.26358" lon="5.95089">
        <ele>251.328125</ele>
        <time>2019-05-12T09:48:05Z</time>
      </trkpt>
      <trkpt lat="43.26361" lon="5.9509">
        <ele>251.140625</ele>
        <time>2019-05-12T09:48:08Z</time>
      </trkpt>
      <trkpt lat="43.2636" lon="5.95089">
        <ele>251.16796875</ele>
        <time>2019-05-12T09:48:16Z</time>
      </trkpt>
      <trkpt lat="43.26359" lon="5.95089">
        <ele>251.2734375</ele>
        <time>2019-05-12T09:48:17Z</time>
      </trkpt>
      <trkpt lat="43.26358" lon="5.95088">
        <ele>251.3046875</ele>
        <time>2019-05-12T09:48:18Z</time>
      </trkpt>
      <trkpt lat="43.26354" lon="5.95086">
        <ele>251.46484375</ele>
        <time>2019-05-12T09:48:22Z</time>
      </trkpt>
      <trkpt lat="43.26353" lon="5.95086">
        <ele>251.6640625</ele>
        <time>2019-05-12T09:48:23Z</time>
      </trkpt>
      <trkpt lat="43.26349" lon="5.9509">
        <ele>252.3984375</ele>
        <time>2019-05-12T09:48:26Z</time>
      </trkpt>
      <trkpt lat="43.26332" lon="5.95108">
        <ele>255.3203125</ele>
        <time>2019-05-12T09:48:39Z</time>
      </trkpt>
      <trkpt lat="43.26319" lon="5.95099">
        <ele>256.04296875</ele>
        <time>2019-05-12T09:48:47Z</time>
      </trkpt>
      <trkpt lat="43.26307" lon="5.95093">
        <ele>256.953125</ele>
        <time>2019-05-12T09:48:52Z</time>
      </trkpt>
      <trkpt lat="43.26303" lon="5.95092">
        <ele>257.359375</ele>
        <time>2019-05-12T09:48:54Z</time>
      </trkpt>
      <trkpt lat="43.26288" lon="5.95093">
        <ele>258.9921875</ele>
        <time>2019-05-12T09:49:03Z</time>
      </trkpt>
      <trkpt lat="43.26284" lon="5.95093">
        <ele>259.41796875</ele>
        <time>2019-05-12T09:49:15Z</time>
      </trkpt>
      <trkpt lat="43.26286" lon="5.95094">
        <ele>259.29296875</ele>
        <time>2019-05-12T09:49:42Z</time>
      </trkpt>
      <trkpt lat="43.26287" lon="5.95091">
        <ele>258.984375</ele>
        <time>2019-05-12T09:50:09Z</time>
      </trkpt>
      <trkpt lat="43.26285" lon="5.95086">
        <ele>258.84375</ele>
        <time>2019-05-12T09:50:35Z</time>
      </trkpt>
      <trkpt lat="43.26285" lon="5.95088">
        <ele>259.01953125</ele>
        <time>2019-05-12T09:51:09Z</time>
      </trkpt>
      <trkpt lat="43.26283" lon="5.95087">
        <ele>259.13671875</ele>
        <time>2019-05-12T09:51:31Z</time>
      </trkpt>
      <trkpt lat="43.26288" lon="5.95086">
        <ele>258.5</ele>
        <time>2019-05-12T09:51:50Z</time>
      </trkpt>
      <trkpt lat="43.26287" lon="5.95082">
        <ele>258.328125</ele>
        <time>2019-05-12T09:52:02Z</time>
      </trkpt>
      <trkpt lat="43.26307" lon="5.95088">
        <ele>256.58984375</ele>
        <time>2019-05-12T09:52:13Z</time>
      </trkpt>
      <trkpt lat="43.26311" lon="5.95089">
        <ele>256.24609375</ele>
        <time>2019-05-12T09:52:14Z</time>
      </trkpt>
      <trkpt lat="43.26319" lon="5.95097">
        <ele>255.91015625</ele>
        <time>2019-05-12T09:52:16Z</time>
      </trkpt>
      <trkpt lat="43.26335" lon="5.95107">
        <ele>254.87890625</ele>
        <time>2019-05-12T09:52:21Z</time>
      </trkpt>
      <trkpt lat="43.26338" lon="5.95105">
        <ele>254.578125</ele>
        <time>2019-05-12T09:52:22Z</time>
      </trkpt>
      <trkpt lat="43.26353" lon="5.95093">
        <ele>252.25390625</ele>
        <time>2019-05-12T09:52:28Z</time>
      </trkpt>
      <trkpt lat="43.26357" lon="5.95089">
        <ele>251.46875</ele>
        <time>2019-05-12T09:52:30Z</time>
      </trkpt>
      <trkpt lat="43.2636" lon="5.95088">
        <ele>251.140625</ele>
        <time>2019-05-12T09:52:31Z</time>
      </trkpt>
      <trkpt lat="43.26362" lon="5.95088">
        <ele>250.86328125</ele>
        <time>2019-05-12T09:52:32Z</time>
      </trkpt>
      <trkpt lat="43.26366" lon="5.95088">
        <ele>250.75</ele>
        <time>2019-05-12T09:52:33Z</time>
      </trkpt>
      <trkpt lat="43.26369" lon="5.95088">
        <ele>250.8828125</ele>
        <time>2019-05-12T09:52:34Z</time>
      </trkpt>
      <trkpt lat="43.26374" lon="5.95088">
        <ele>251.06640625</ele>
        <time>2019-05-12T09:52:35Z</time>
      </trkpt>
      <trkpt lat="43.26378" lon="5.95091">
        <ele>251.33984375</ele>
        <time>2019-05-12T09:52:36Z</time>
      </trkpt>
      <trkpt lat="43.26383" lon="5.95094">
        <ele>251.484375</ele>
        <time>2019-05-12T09:52:37Z</time>
      </trkpt>
      <trkpt lat="43.26386" lon="5.95098">
        <ele>251.48828125</ele>
        <time>2019-05-12T09:52:38Z</time>
      </trkpt>
      <trkpt lat="43.26389" lon="5.95104">
        <ele>251.32421875</ele>
        <time>2019-05-12T09:52:40Z</time>
      </trkpt>
      <trkpt lat="43.26395" lon="5.95115">
        <ele>251.40234375</ele>
        <time>2019-05-12T09:52:51Z</time>
      </trkpt>
      <trkpt lat="43.26396" lon="5.95117">
        <ele>251.4765625</ele>
        <time>2019-05-12T09:52:54Z</time>
      </trkpt>
      <trkpt lat="43.26412" lon="5.95138">
        <ele>250.44140625</ele>
        <time>2019-05-12T09:53:04Z</time>
      </trkpt>
      <trkpt lat="43.26414" lon="5.95143">
        <ele>250.2109375</ele>
        <time>2019-05-12T09:53:05Z</time>
      </trkpt>
      <trkpt lat="43.26433" lon="5.95169">
        <ele>248.796875</ele>
        <time>2019-05-12T09:53:11Z</time>
      </trkpt>
      <trkpt lat="43.26464" lon="5.9522">
        <ele>247.4453125</ele>
        <time>2019-05-12T09:53:24Z</time>
      </trkpt>
      <trkpt lat="43.26488" lon="5.95239">
        <ele>244.50390625</ele>
        <time>2019-05-12T09:53:31Z</time>
      </trkpt>
      <trkpt lat="43.26508" lon="5.95265">
        <ele>245.83984375</ele>
        <time>2019-05-12T09:53:37Z</time>
      </trkpt>
      <trkpt lat="43.26557" lon="5.95324">
        <ele>247.2421875</ele>
        <time>2019-05-12T09:53:51Z</time>
      </trkpt>
      <trkpt lat="43.26589" lon="5.95353">
        <ele>245.640625</ele>
        <time>2019-05-12T09:53:59Z</time>
      </trkpt>
      <trkpt lat="43.26602" lon="5.95364">
        <ele>244.97265625</ele>
        <time>2019-05-12T09:54:02Z</time>
      </trkpt>
      <trkpt lat="43.26615" lon="5.95392">
        <ele>244.34375</ele>
        <time>2019-05-12T09:54:07Z</time>
      </trkpt>
      <trkpt lat="43.26612" lon="5.95448">
        <ele>246.1328125</ele>
        <time>2019-05-12T09:54:19Z</time>
      </trkpt>
      <trkpt lat="43.26602" lon="5.95479">
        <ele>246.65234375</ele>
        <time>2019-05-12T09:54:30Z</time>
      </trkpt>
      <trkpt lat="43.26587" lon="5.955">
        <ele>246.16796875</ele>
        <time>2019-05-12T09:54:37Z</time>
      </trkpt>
      <trkpt lat="43.26571" lon="5.95512">
        <ele>245.9609375</ele>
        <time>2019-05-12T09:54:42Z</time>
      </trkpt>
      <trkpt lat="43.26563" lon="5.95515">
        <ele>245.43359375</ele>
        <time>2019-05-12T09:54:44Z</time>
      </trkpt>
      <trkpt lat="43.26547" lon="5.95521">
        <ele>247.32421875</ele>
        <time>2019-05-12T09:54:48Z</time>
      </trkpt>
      <trkpt lat="43.26534" lon="5.95524">
        <ele>249.60546875</ele>
        <time>2019-05-12T09:54:51Z</time>
      </trkpt>
      <trkpt lat="43.26516" lon="5.9553">
        <ele>253.0859375</ele>
        <time>2019-05-12T09:54:56Z</time>
      </trkpt>
      <trkpt lat="43.26509" lon="5.9554">
        <ele>253.09765625</ele>
        <time>2019-05-12T09:55:01Z</time>
      </trkpt>
      <trkpt lat="43.26501" lon="5.95544">
        <ele>254.8125</ele>
        <time>2019-05-12T09:55:05Z</time>
      </trkpt>
      <trkpt lat="43.26494" lon="5.95575">
        <ele>251.2734375</ele>
        <time>2019-05-12T09:55:13Z</time>
      </trkpt>
      <trkpt lat="43.26487" lon="5.95602">
        <ele>250.67578125</ele>
        <time>2019-05-12T09:55:21Z</time>
      </trkpt>
      <trkpt lat="43.26485" lon="5.95613">
        <ele>250.16015625</ele>
        <time>2019-05-12T09:55:24Z</time>
      </trkpt>
      <trkpt lat="43.26485" lon="5.95623">
        <ele>248.9765625</ele>
        <time>2019-05-12T09:55:27Z</time>
      </trkpt>
      <trkpt lat="43.26473" lon="5.95633">
        <ele>251.15625</ele>
        <time>2019-05-12T09:55:32Z</time>
      </trkpt>
      <trkpt lat="43.26437" lon="5.95644">
        <ele>262.96484375</ele>
        <time>2019-05-12T09:55:45Z</time>
      </trkpt>
      <trkpt lat="43.26428" lon="5.95666">
        <ele>261.07421875</ele>
        <time>2019-05-12T09:55:52Z</time>
      </trkpt>
      <trkpt lat="43.26423" lon="5.95694">
        <ele>256.30078125</ele>
        <time>2019-05-12T09:55:59Z</time>
      </trkpt>
      <trkpt lat="43.26418" lon="5.95709">
        <ele>254.390625</ele>
        <time>2019-05-12T09:56:05Z</time>
      </trkpt>
      <trkpt lat="43.26418" lon="5.95728">
        <ele>250.69140625</ele>
        <time>2019-05-12T09:56:09Z</time>
      </trkpt>
      <trkpt lat="43.26417" lon="5.95739">
        <ele>249.21484375</ele>
        <time>2019-05-12T09:56:13Z</time>
      </trkpt>
      <trkpt lat="43.26416" lon="5.95752">
        <ele>248.14453125</ele>
        <time>2019-05-12T09:56:19Z</time>
      </trkpt>
      <trkpt lat="43.26414" lon="5.95757">
        <ele>248.05078125</ele>
        <time>2019-05-12T09:56:21Z</time>
      </trkpt>
      <trkpt lat="43.26411" lon="5.95763">
        <ele>248.328125</ele>
        <time>2019-05-12T09:56:24Z</time>
      </trkpt>
      <trkpt lat="43.26409" lon="5.95793">
        <ele>245.953125</ele>
        <time>2019-05-12T09:56:31Z</time>
      </trkpt>
      <trkpt lat="43.26401" lon="5.95824">
        <ele>245.7421875</ele>
        <time>2019-05-12T09:56:39Z</time>
      </trkpt>
      <trkpt lat="43.26395" lon="5.95868">
        <ele>242.4375</ele>
        <time>2019-05-12T09:56:50Z</time>
      </trkpt>
      <trkpt lat="43.26389" lon="5.95902">
        <ele>241.76171875</ele>
        <time>2019-05-12T09:57:01Z</time>
      </trkpt>
      <trkpt lat="43.2639" lon="5.95914">
        <ele>241.1875</ele>
        <time>2019-05-12T09:57:04Z</time>
      </trkpt>
      <trkpt lat="43.2639" lon="5.95918">
        <ele>241.140625</ele>
        <time>2019-05-12T09:57:05Z</time>
      </trkpt>
      <trkpt lat="43.26389" lon="5.95924">
        <ele>241.140625</ele>
        <time>2019-05-12T09:57:07Z</time>
      </trkpt>
      <trkpt lat="43.26387" lon="5.95927">
        <ele>241.1953125</ele>
        <time>2019-05-12T09:57:09Z</time>
      </trkpt>
      <trkpt lat="43.26385" lon="5.95932">
        <ele>241.1796875</ele>
        <time>2019-05-12T09:57:12Z</time>
      </trkpt>
      <trkpt lat="43.26383" lon="5.95941">
        <ele>241.0390625</ele>
        <time>2019-05-12T09:57:16Z</time>
      </trkpt>
      <trkpt lat="43.26374" lon="5.95967">
        <ele>239.5703125</ele>
        <time>2019-05-12T09:57:23Z</time>
      </trkpt>
      <trkpt lat="43.26358" lon="5.95988">
        <ele>238.49609375</ele>
        <time>2019-05-12T09:57:33Z</time>
      </trkpt>
      <trkpt lat="43.26349" lon="5.96027">
        <ele>238.66015625</ele>
        <time>2019-05-12T09:57:44Z</time>
      </trkpt>
      <trkpt lat="43.26344" lon="5.96064">
        <ele>237.83203125</ele>
        <time>2019-05-12T09:57:51Z</time>
      </trkpt>
      <trkpt lat="43.26332" lon="5.96091">
        <ele>237.7109375</ele>
        <time>2019-05-12T09:57:56Z</time>
      </trkpt>
      <trkpt lat="43.26329" lon="5.96099">
        <ele>238.02734375</ele>
        <time>2019-05-12T09:57:57Z</time>
      </trkpt>
      <trkpt lat="43.26327" lon="5.96113">
        <ele>237.84375</ele>
        <time>2019-05-12T09:57:59Z</time>
      </trkpt>
      <trkpt lat="43.26326" lon="5.96121">
        <ele>237.59765625</ele>
        <time>2019-05-12T09:58:00Z</time>
      </trkpt>
      <trkpt lat="43.26316" lon="5.96148">
        <ele>236.9375</ele>
        <time>2019-05-12T09:58:04Z</time>
      </trkpt>
      <trkpt lat="43.26308" lon="5.96172">
        <ele>235.765625</ele>
        <time>2019-05-12T09:58:08Z</time>
      </trkpt>
      <trkpt lat="43.26294" lon="5.96214">
        <ele>236</ele>
        <time>2019-05-12T09:58:18Z</time>
      </trkpt>
      <trkpt lat="43.26284" lon="5.96264">
        <ele>232.3046875</ele>
        <time>2019-05-12T09:58:29Z</time>
      </trkpt>
      <trkpt lat="43.26277" lon="5.96297">
        <ele>231.0859375</ele>
        <time>2019-05-12T09:58:36Z</time>
      </trkpt>
      <trkpt lat="43.26279" lon="5.96314">
        <ele>230.48046875</ele>
        <time>2019-05-12T09:58:41Z</time>
      </trkpt>
      <trkpt lat="43.26276" lon="5.96324">
        <ele>231.1328125</ele>
        <time>2019-05-12T09:58:46Z</time>
      </trkpt>
      <trkpt lat="43.26274" lon="5.9633">
        <ele>231.4765625</ele>
        <time>2019-05-12T09:58:49Z</time>
      </trkpt>
      <trkpt lat="43.26282" lon="5.96335">
        <ele>230.7421875</ele>
        <time>2019-05-12T09:58:53Z</time>
      </trkpt>
      <trkpt lat="43.26283" lon="5.96331">
        <ele>229.9453125</ele>
        <time>2019-05-12T09:58:54Z</time>
      </trkpt>
      <trkpt lat="43.26292" lon="5.96323">
        <ele>229.83203125</ele>
        <time>2019-05-12T09:59:01Z</time>
      </trkpt>
      <trkpt lat="43.26298" lon="5.96326">
        <ele>229.625</ele>
        <time>2019-05-12T09:59:17Z</time>
      </trkpt>
      <trkpt lat="43.26299" lon="5.96328">
        <ele>229.4609375</ele>
        <time>2019-05-12T09:59:34Z</time>
      </trkpt>
      <trkpt lat="43.26301" lon="5.96329">
        <ele>229.40234375</ele>
        <time>2019-05-12T09:59:55Z</time>
      </trkpt>
      <trkpt lat="43.263" lon="5.96329">
        <ele>229.39453125</ele>
        <time>2019-05-12T10:00:29Z</time>
      </trkpt>
      <trkpt lat="43.26301" lon="5.96331">
        <ele>229.29296875</ele>
        <time>2019-05-12T10:01:02Z</time>
      </trkpt>
      <trkpt lat="43.26304" lon="5.96332">
        <ele>229.30078125</ele>
        <time>2019-05-12T10:01:38Z</time>
      </trkpt>
      <trkpt lat="43.26301" lon="5.96331">
        <ele>229.28515625</ele>
        <time>2019-05-12T10:02:13Z</time>
      </trkpt>
      <trkpt lat="43.263" lon="5.9633">
        <ele>229.36328125</ele>
        <time>2019-05-12T10:02:48Z</time>
      </trkpt>
      <trkpt lat="43.26297" lon="5.96329">
        <ele>229.5078125</ele>
        <time>2019-05-12T10:03:24Z</time>
      </trkpt>
      <trkpt lat="43.26301" lon="5.96333">
        <ele>229.55078125</ele>
        <time>2019-05-12T10:04:00Z</time>
      </trkpt>
      <trkpt lat="43.26299" lon="5.96333">
        <ele>229.64453125</ele>
        <time>2019-05-12T10:04:28Z</time>
      </trkpt>
      <trkpt lat="43.263" lon="5.96334">
        <ele>229.73046875</ele>
        <time>2019-05-12T10:04:36Z</time>
      </trkpt>
      <trkpt lat="43.26302" lon="5.96334">
        <ele>229.75390625</ele>
        <time>2019-05-12T10:04:48Z</time>
      </trkpt>
      <trkpt lat="43.26301" lon="5.96339">
        <ele>230.578125</ele>
        <time>2019-05-12T10:05:07Z</time>
      </trkpt>
      <trkpt lat="43.26304" lon="5.96341">
        <ele>230.74609375</ele>
        <time>2019-05-12T10:05:23Z</time>
      </trkpt>
      <trkpt lat="43.26305" lon="5.96342">
        <ele>230.69921875</ele>
        <time>2019-05-12T10:05:55Z</time>
      </trkpt>
      <trkpt lat="43.263" lon="5.96338">
        <ele>230.484375</ele>
        <time>2019-05-12T10:06:18Z</time>
      </trkpt>
      <trkpt lat="43.26303" lon="5.96337">
        <ele>230.0703125</ele>
        <time>2019-05-12T10:06:43Z</time>
      </trkpt>
      <trkpt lat="43.26301" lon="5.96338">
        <ele>230.44140625</ele>
        <time>2019-05-12T10:06:45Z</time>
      </trkpt>
      <trkpt lat="43.26298" lon="5.96346">
        <ele>231.90234375</ele>
        <time>2019-05-12T10:06:56Z</time>
      </trkpt>
      <trkpt lat="43.26294" lon="5.96351">
        <ele>233.1015625</ele>
        <time>2019-05-12T10:07:13Z</time>
      </trkpt>
      <trkpt lat="43.26292" lon="5.96352">
        <ele>233.58984375</ele>
        <time>2019-05-12T10:07:14Z</time>
      </trkpt>
      <trkpt lat="43.26289" lon="5.96354">
        <ele>234.16015625</ele>
        <time>2019-05-12T10:07:15Z</time>
      </trkpt>
      <trkpt lat="43.26287" lon="5.96356">
        <ele>234.72265625</ele>
        <time>2019-05-12T10:07:16Z</time>
      </trkpt>
      <trkpt lat="43.26285" lon="5.96357">
        <ele>235.25</ele>
        <time>2019-05-12T10:07:17Z</time>
      </trkpt>
      <trkpt lat="43.26283" lon="5.96359">
        <ele>235.80859375</ele>
        <time>2019-05-12T10:07:18Z</time>
      </trkpt>
      <trkpt lat="43.26281" lon="5.9636">
        <ele>236.22265625</ele>
        <time>2019-05-12T10:07:19Z</time>
      </trkpt>
      <trkpt lat="43.26278" lon="5.9636">
        <ele>236.4609375</ele>
        <time>2019-05-12T10:07:20Z</time>
      </trkpt>
      <trkpt lat="43.26276" lon="5.9636">
        <ele>236.77734375</ele>
        <time>2019-05-12T10:07:21Z</time>
      </trkpt>
      <trkpt lat="43.26274" lon="5.9636">
        <ele>237.07421875</ele>
        <time>2019-05-12T10:07:22Z</time>
      </trkpt>
      <trkpt lat="43.26263" lon="5.9637">
        <ele>239.8828125</ele>
        <time>2019-05-12T10:07:31Z</time>
      </trkpt>
      <trkpt lat="43.26263" lon="5.96381">
        <ele>241.67578125</ele>
        <time>2019-05-12T10:07:36Z</time>
      </trkpt>
      <trkpt lat="43.26261" lon="5.96383">
        <ele>242.17578125</ele>
        <time>2019-05-12T10:07:37Z</time>
      </trkpt>
      <trkpt lat="43.26259" lon="5.96386">
        <ele>242.609375</ele>
        <time>2019-05-12T10:07:38Z</time>
      </trkpt>
      <trkpt lat="43.26257" lon="5.96387">
        <ele>242.94140625</ele>
        <time>2019-05-12T10:07:39Z</time>
      </trkpt>
      <trkpt lat="43.26255" lon="5.96388">
        <ele>243.38671875</ele>
        <time>2019-05-12T10:07:40Z</time>
      </trkpt>
      <trkpt lat="43.26253" lon="5.96391">
        <ele>244.0234375</ele>
        <time>2019-05-12T10:07:41Z</time>
      </trkpt>
      <trkpt lat="43.26252" lon="5.96393">
        <ele>244.421875</ele>
        <time>2019-05-12T10:07:42Z</time>
      </trkpt>
      <trkpt lat="43.26251" lon="5.96395">
        <ele>244.86328125</ele>
        <time>2019-05-12T10:07:43Z</time>
      </trkpt>
      <trkpt lat="43.26249" lon="5.96396">
        <ele>245.15625</ele>
        <time>2019-05-12T10:07:44Z</time>
      </trkpt>
      <trkpt lat="43.26247" lon="5.96398">
        <ele>245.52734375</ele>
        <time>2019-05-12T10:07:45Z</time>
      </trkpt>
      <trkpt lat="43.26246" lon="5.96401">
        <ele>245.8984375</ele>
        <time>2019-05-12T10:07:46Z</time>
      </trkpt>
      <trkpt lat="43.26244" lon="5.96403">
        <ele>246.1875</ele>
        <time>2019-05-12T10:07:47Z</time>
      </trkpt>
      <trkpt lat="43.26243" lon="5.96404">
        <ele>246.35546875</ele>
        <time>2019-05-12T10:07:48Z</time>
      </trkpt>
      <trkpt lat="43.26241" lon="5.96406">
        <ele>246.56640625</ele>
        <time>2019-05-12T10:07:49Z</time>
      </trkpt>
      <trkpt lat="43.26239" lon="5.96408">
        <ele>246.77734375</ele>
        <time>2019-05-12T10:07:50Z</time>
      </trkpt>
      <trkpt lat="43.26237" lon="5.9641">
        <ele>246.91015625</ele>
        <time>2019-05-12T10:07:51Z</time>
      </trkpt>
      <trkpt lat="43.26228" lon="5.96418">
        <ele>247.078125</ele>
        <time>2019-05-12T10:07:56Z</time>
      </trkpt>
      <trkpt lat="43.26221" lon="5.96427">
        <ele>249.22265625</ele>
        <time>2019-05-12T10:08:01Z</time>
      </trkpt>
      <trkpt lat="43.26219" lon="5.96433">
        <ele>250.40625</ele>
        <time>2019-05-12T10:08:04Z</time>
      </trkpt>
      <trkpt lat="43.26218" lon="5.96434">
        <ele>250.7109375</ele>
        <time>2019-05-12T10:08:05Z</time>
      </trkpt>
      <trkpt lat="43.26217" lon="5.96435">
        <ele>250.97265625</ele>
        <time>2019-05-12T10:08:06Z</time>
      </trkpt>
      <trkpt lat="43.26216" lon="5.96444">
        <ele>252.5078125</ele>
        <time>2019-05-12T10:08:18Z</time>
      </trkpt>
      <trkpt lat="43.26214" lon="5.96453">
        <ele>254.5703125</ele>
        <time>2019-05-12T10:08:42Z</time>
      </trkpt>
      <trkpt lat="43.26214" lon="5.96454">
        <ele>254.8046875</ele>
        <time>2019-05-12T10:08:43Z</time>
      </trkpt>
      <trkpt lat="43.26213" lon="5.96456">
        <ele>255.15234375</ele>
        <time>2019-05-12T10:08:44Z</time>
      </trkpt>
      <trkpt lat="43.26201" lon="5.96462">
        <ele>254.71484375</ele>
        <time>2019-05-12T10:08:50Z</time>
      </trkpt>
      <trkpt lat="43.262" lon="5.96464">
        <ele>254.78125</ele>
        <time>2019-05-12T10:08:51Z</time>
      </trkpt>
      <trkpt lat="43.26199" lon="5.96466">
        <ele>254.8515625</ele>
        <time>2019-05-12T10:08:52Z</time>
      </trkpt>
      <trkpt lat="43.26198" lon="5.96468">
        <ele>254.9296875</ele>
        <time>2019-05-12T10:08:53Z</time>
      </trkpt>
      <trkpt lat="43.26197" lon="5.96471">
        <ele>255.1484375</ele>
        <time>2019-05-12T10:08:54Z</time>
      </trkpt>
      <trkpt lat="43.26195" lon="5.96472">
        <ele>255.51171875</ele>
        <time>2019-05-12T10:08:55Z</time>
      </trkpt>
      <trkpt lat="43.26194" lon="5.96474">
        <ele>255.85546875</ele>
        <time>2019-05-12T10:08:56Z</time>
      </trkpt>
      <trkpt lat="43.26193" lon="5.96476">
        <ele>256.1875</ele>
        <time>2019-05-12T10:08:57Z</time>
      </trkpt>
      <trkpt lat="43.26191" lon="5.96492">
        <ele>258.8671875</ele>
        <time>2019-05-12T10:09:02Z</time>
      </trkpt>
      <trkpt lat="43.26191" lon="5.96495">
        <ele>259.28125</ele>
        <time>2019-05-12T10:09:03Z</time>
      </trkpt>
      <trkpt lat="43.26191" lon="5.96497">
        <ele>259.7109375</ele>
        <time>2019-05-12T10:09:04Z</time>
      </trkpt>
      <trkpt lat="43.26191" lon="5.9651">
        <ele>262.61328125</ele>
        <time>2019-05-12T10:09:09Z</time>
      </trkpt>
      <trkpt lat="43.26191" lon="5.96512">
        <ele>263.02734375</ele>
        <time>2019-05-12T10:09:10Z</time>
      </trkpt>
      <trkpt lat="43.26191" lon="5.96514">
        <ele>263.51953125</ele>
        <time>2019-05-12T10:09:11Z</time>
      </trkpt>
      <trkpt lat="43.26192" lon="5.96517">
        <ele>264.2421875</ele>
        <time>2019-05-12T10:09:12Z</time>
      </trkpt>
      <trkpt lat="43.26192" lon="5.9652">
        <ele>264.984375</ele>
        <time>2019-05-12T10:09:13Z</time>
      </trkpt>
      <trkpt lat="43.2619" lon="5.96532">
        <ele>267.92578125</ele>
        <time>2019-05-12T10:09:20Z</time>
      </trkpt>
      <trkpt lat="43.2619" lon="5.96534">
        <ele>268.44140625</ele>
        <time>2019-05-12T10:09:21Z</time>
      </trkpt>
      <trkpt lat="43.26189" lon="5.96536">
        <ele>268.76171875</ele>
        <time>2019-05-12T10:09:22Z</time>
      </trkpt>
      <trkpt lat="43.26188" lon="5.96538">
        <ele>269.1484375</ele>
        <time>2019-05-12T10:09:23Z</time>
      </trkpt>
      <trkpt lat="43.26176" lon="5.96553">
        <ele>270.55078125</ele>
        <time>2019-05-12T10:09:34Z</time>
      </trkpt>
      <trkpt lat="43.26159" lon="5.96562">
        <ele>269.5703125</ele>
        <time>2019-05-12T10:09:45Z</time>
      </trkpt>
      <trkpt lat="43.26158" lon="5.96562">
        <ele>269.46875</ele>
        <time>2019-05-12T10:09:46Z</time>
      </trkpt>
      <trkpt lat="43.26156" lon="5.96563">
        <ele>269.23046875</ele>
        <time>2019-05-12T10:09:47Z</time>
      </trkpt>
      <trkpt lat="43.26141" lon="5.96571">
        <ele>267.71875</ele>
        <time>2019-05-12T10:09:59Z</time>
      </trkpt>
      <trkpt lat="43.26132" lon="5.96584">
        <ele>269.73046875</ele>
        <time>2019-05-12T10:10:09Z</time>
      </trkpt>
      <trkpt lat="43.26131" lon="5.96593">
        <ele>271.81640625</ele>
        <time>2019-05-12T10:10:21Z</time>
      </trkpt>
      <trkpt lat="43.26134" lon="5.96597">
        <ele>273.2421875</ele>
        <time>2019-05-12T10:10:42Z</time>
      </trkpt>
      <trkpt lat="43.26127" lon="5.96597">
        <ele>272.09765625</ele>
        <time>2019-05-12T10:11:03Z</time>
      </trkpt>
      <trkpt lat="43.26126" lon="5.96598">
        <ele>272.21484375</ele>
        <time>2019-05-12T10:11:04Z</time>
      </trkpt>
      <trkpt lat="43.26125" lon="5.966">
        <ele>272.4609375</ele>
        <time>2019-05-12T10:11:05Z</time>
      </trkpt>
      <trkpt lat="43.26121" lon="5.96608">
        <ele>273.39453125</ele>
        <time>2019-05-12T10:11:09Z</time>
      </trkpt>
      <trkpt lat="43.2612" lon="5.9661">
        <ele>273.5078125</ele>
        <time>2019-05-12T10:11:10Z</time>
      </trkpt>
      <trkpt lat="43.26119" lon="5.96612">
        <ele>273.58203125</ele>
        <time>2019-05-12T10:11:11Z</time>
      </trkpt>
      <trkpt lat="43.26106" lon="5.96642">
        <ele>275.5859375</ele>
        <time>2019-05-12T10:11:24Z</time>
      </trkpt>
      <trkpt lat="43.26097" lon="5.96661">
        <ele>274.625</ele>
        <time>2019-05-12T10:11:34Z</time>
      </trkpt>
      <trkpt lat="43.26096" lon="5.96664">
        <ele>274.6484375</ele>
        <time>2019-05-12T10:11:35Z</time>
      </trkpt>
      <trkpt lat="43.2609" lon="5.96698">
        <ele>276.265625</ele>
        <time>2019-05-12T10:11:48Z</time>
      </trkpt>
      <trkpt lat="43.2609" lon="5.96703">
        <ele>276.49609375</ele>
        <time>2019-05-12T10:11:50Z</time>
      </trkpt>
      <trkpt lat="43.26089" lon="5.96706">
        <ele>276.59375</ele>
        <time>2019-05-12T10:11:51Z</time>
      </trkpt>
      <trkpt lat="43.26089" lon="5.96708">
        <ele>276.703125</ele>
        <time>2019-05-12T10:11:52Z</time>
      </trkpt>
      <trkpt lat="43.26088" lon="5.96711">
        <ele>276.59375</ele>
        <time>2019-05-12T10:11:53Z</time>
      </trkpt>
      <trkpt lat="43.26085" lon="5.96719">
        <ele>276.75390625</ele>
        <time>2019-05-12T10:11:56Z</time>
      </trkpt>
      <trkpt lat="43.26084" lon="5.96721">
        <ele>276.71875</ele>
        <time>2019-05-12T10:11:57Z</time>
      </trkpt>
      <trkpt lat="43.26083" lon="5.96723">
        <ele>276.7421875</ele>
        <time>2019-05-12T10:11:58Z</time>
      </trkpt>
      <trkpt lat="43.26082" lon="5.96725">
        <ele>276.74609375</ele>
        <time>2019-05-12T10:11:59Z</time>
      </trkpt>
      <trkpt lat="43.26081" lon="5.96727">
        <ele>276.72265625</ele>
        <time>2019-05-12T10:12:00Z</time>
      </trkpt>
      <trkpt lat="43.2608" lon="5.96729">
        <ele>276.66796875</ele>
        <time>2019-05-12T10:12:01Z</time>
      </trkpt>
      <trkpt lat="43.2608" lon="5.96731">
        <ele>276.6484375</ele>
        <time>2019-05-12T10:12:02Z</time>
      </trkpt>
      <trkpt lat="43.26079" lon="5.96733">
        <ele>276.61328125</ele>
        <time>2019-05-12T10:12:03Z</time>
      </trkpt>
      <trkpt lat="43.26078" lon="5.96735">
        <ele>276.57421875</ele>
        <time>2019-05-12T10:12:04Z</time>
      </trkpt>
      <trkpt lat="43.26077" lon="5.96737">
        <ele>276.53515625</ele>
        <time>2019-05-12T10:12:05Z</time>
      </trkpt>
      <trkpt lat="43.26077" lon="5.96739">
        <ele>276.53515625</ele>
        <time>2019-05-12T10:12:06Z</time>
      </trkpt>
      <trkpt lat="43.26073" lon="5.96781">
        <ele>277.90234375</ele>
        <time>2019-05-12T10:12:19Z</time>
      </trkpt>
      <trkpt lat="43.26072" lon="5.96788">
        <ele>278.3828125</ele>
        <time>2019-05-12T10:12:22Z</time>
      </trkpt>
      <trkpt lat="43.26073" lon="5.96793">
        <ele>278.94921875</ele>
        <time>2019-05-12T10:12:24Z</time>
      </trkpt>
      <trkpt lat="43.26072" lon="5.96815">
        <ele>280.46484375</ele>
        <time>2019-05-12T10:12:36Z</time>
      </trkpt>
      <trkpt lat="43.26072" lon="5.96834">
        <ele>282.265625</ele>
        <time>2019-05-12T10:12:45Z</time>
      </trkpt>
      <trkpt lat="43.26071" lon="5.96852">
        <ele>284.03125</ele>
        <time>2019-05-12T10:12:53Z</time>
      </trkpt>
      <trkpt lat="43.26072" lon="5.96854">
        <ele>284.296875</ele>
        <time>2019-05-12T10:12:54Z</time>
      </trkpt>
      <trkpt lat="43.26072" lon="5.96857">
        <ele>284.59375</ele>
        <time>2019-05-12T10:12:55Z</time>
      </trkpt>
      <trkpt lat="43.26071" lon="5.96871">
        <ele>285.8359375</ele>
        <time>2019-05-12T10:13:02Z</time>
      </trkpt>
      <trkpt lat="43.2607" lon="5.96873">
        <ele>285.921875</ele>
        <time>2019-05-12T10:13:03Z</time>
      </trkpt>
      <trkpt lat="43.2607" lon="5.96875">
        <ele>286.17578125</ele>
        <time>2019-05-12T10:13:04Z</time>
      </trkpt>
      <trkpt lat="43.26071" lon="5.96877">
        <ele>286.41015625</ele>
        <time>2019-05-12T10:13:05Z</time>
      </trkpt>
      <trkpt lat="43.2607" lon="5.96879">
        <ele>286.6171875</ele>
        <time>2019-05-12T10:13:06Z</time>
      </trkpt>
      <trkpt lat="43.2607" lon="5.96885">
        <ele>287.1875</ele>
        <time>2019-05-12T10:13:10Z</time>
      </trkpt>
      <trkpt lat="43.2607" lon="5.96887">
        <ele>287.34375</ele>
        <time>2019-05-12T10:13:11Z</time>
      </trkpt>
      <trkpt lat="43.2607" lon="5.96889">
        <ele>287.56640625</ele>
        <time>2019-05-12T10:13:12Z</time>
      </trkpt>
      <trkpt lat="43.2607" lon="5.96918">
        <ele>291</ele>
        <time>2019-05-12T10:13:27Z</time>
      </trkpt>
      <trkpt lat="43.26067" lon="5.96934">
        <ele>291.2890625</ele>
        <time>2019-05-12T10:13:36Z</time>
      </trkpt>
      <trkpt lat="43.26066" lon="5.96935">
        <ele>291.05078125</ele>
        <time>2019-05-12T10:13:37Z</time>
      </trkpt>
      <trkpt lat="43.2606" lon="5.96938">
        <ele>289.24609375</ele>
        <time>2019-05-12T10:13:42Z</time>
      </trkpt>
      <trkpt lat="43.26048" lon="5.96933">
        <ele>286.16796875</ele>
        <time>2019-05-12T10:13:52Z</time>
      </trkpt>
      <trkpt lat="43.26037" lon="5.96922">
        <ele>282.78515625</ele>
        <time>2019-05-12T10:14:04Z</time>
      </trkpt>
      <trkpt lat="43.26031" lon="5.96917">
        <ele>281.2578125</ele>
        <time>2019-05-12T10:14:09Z</time>
      </trkpt>
      <trkpt lat="43.26029" lon="5.96916">
        <ele>281.38671875</ele>
        <time>2019-05-12T10:14:10Z</time>
      </trkpt>
      <trkpt lat="43.26028" lon="5.96915">
        <ele>281.43359375</ele>
        <time>2019-05-12T10:14:11Z</time>
      </trkpt>
      <trkpt lat="43.26025" lon="5.96913">
        <ele>281.75</ele>
        <time>2019-05-12T10:14:13Z</time>
      </trkpt>
      <trkpt lat="43.26015" lon="5.96906">
        <ele>282.33984375</ele>
        <time>2019-05-12T10:14:21Z</time>
      </trkpt>
      <trkpt lat="43.26" lon="5.96896">
        <ele>283.1640625</ele>
        <time>2019-05-12T10:14:33Z</time>
      </trkpt>
      <trkpt lat="43.25983" lon="5.96878">
        <ele>283.90234375</ele>
        <time>2019-05-12T10:14:47Z</time>
      </trkpt>
      <trkpt lat="43.25971" lon="5.96859">
        <ele>283.30078125</ele>
        <time>2019-05-12T10:14:59Z</time>
      </trkpt>
      <trkpt lat="43.2597" lon="5.96857">
        <ele>283.2734375</ele>
        <time>2019-05-12T10:15:00Z</time>
      </trkpt>
      <trkpt lat="43.2597" lon="5.96855">
        <ele>283.18359375</ele>
        <time>2019-05-12T10:15:01Z</time>
      </trkpt>
      <trkpt lat="43.25969" lon="5.96854">
        <ele>283.1953125</ele>
        <time>2019-05-12T10:15:02Z</time>
      </trkpt>
      <trkpt lat="43.25968" lon="5.96852">
        <ele>283.41015625</ele>
        <time>2019-05-12T10:15:03Z</time>
      </trkpt>
      <trkpt lat="43.25966" lon="5.96852">
        <ele>283.8046875</ele>
        <time>2019-05-12T10:15:04Z</time>
      </trkpt>
      <trkpt lat="43.25965" lon="5.96852">
        <ele>284.1796875</ele>
        <time>2019-05-12T10:15:05Z</time>
      </trkpt>
      <trkpt lat="43.25964" lon="5.96855">
        <ele>284.9609375</ele>
        <time>2019-05-12T10:15:07Z</time>
      </trkpt>
      <trkpt lat="43.25964" lon="5.96857">
        <ele>285.2265625</ele>
        <time>2019-05-12T10:15:08Z</time>
      </trkpt>
      <trkpt lat="43.25964" lon="5.96859">
        <ele>285.37109375</ele>
        <time>2019-05-12T10:15:09Z</time>
      </trkpt>
      <trkpt lat="43.25964" lon="5.96861">
        <ele>285.52734375</ele>
        <time>2019-05-12T10:15:10Z</time>
      </trkpt>
      <trkpt lat="43.25965" lon="5.96862">
        <ele>285.61328125</ele>
        <time>2019-05-12T10:15:11Z</time>
      </trkpt>
      <trkpt lat="43.25966" lon="5.96864">
        <ele>285.56640625</ele>
        <time>2019-05-12T10:15:12Z</time>
      </trkpt>
      <trkpt lat="43.25967" lon="5.96865">
        <ele>285.46484375</ele>
        <time>2019-05-12T10:15:13Z</time>
      </trkpt>
      <trkpt lat="43.25968" lon="5.96866">
        <ele>285.5390625</ele>
        <time>2019-05-12T10:15:14Z</time>
      </trkpt>
      <trkpt lat="43.25969" lon="5.96868">
        <ele>285.640625</ele>
        <time>2019-05-12T10:15:15Z</time>
      </trkpt>
      <trkpt lat="43.2597" lon="5.9687">
        <ele>285.7890625</ele>
        <time>2019-05-12T10:15:16Z</time>
      </trkpt>
      <trkpt lat="43.2597" lon="5.96873">
        <ele>286.01171875</ele>
        <time>2019-05-12T10:15:17Z</time>
      </trkpt>
      <trkpt lat="43.25979" lon="5.9689">
        <ele>286.80859375</ele>
        <time>2019-05-12T10:15:24Z</time>
      </trkpt>
      <trkpt lat="43.2598" lon="5.96893">
        <ele>286.9453125</ele>
        <time>2019-05-12T10:15:25Z</time>
      </trkpt>
      <trkpt lat="43.25981" lon="5.96895">
        <ele>287.0234375</ele>
        <time>2019-05-12T10:15:26Z</time>
      </trkpt>
      <trkpt lat="43.25995" lon="5.96922">
        <ele>287.8828125</ele>
        <time>2019-05-12T10:15:38Z</time>
      </trkpt>
      <trkpt lat="43.2601" lon="5.96953">
        <ele>288.75390625</ele>
        <time>2019-05-12T10:15:51Z</time>
      </trkpt>
      <trkpt lat="43.26017" lon="5.96964">
        <ele>288.82421875</ele>
        <time>2019-05-12T10:15:57Z</time>
      </trkpt>
      <trkpt lat="43.26018" lon="5.96967">
        <ele>288.9296875</ele>
        <time>2019-05-12T10:15:58Z</time>
      </trkpt>
      <trkpt lat="43.26019" lon="5.96969">
        <ele>289.125</ele>
        <time>2019-05-12T10:15:59Z</time>
      </trkpt>
      <trkpt lat="43.2602" lon="5.96972">
        <ele>289.32421875</ele>
        <time>2019-05-12T10:16:00Z</time>
      </trkpt>
      <trkpt lat="43.26021" lon="5.96975">
        <ele>289.453125</ele>
        <time>2019-05-12T10:16:01Z</time>
      </trkpt>
      <trkpt lat="43.26038" lon="5.97007">
        <ele>292.33984375</ele>
        <time>2019-05-12T10:16:14Z</time>
      </trkpt>
      <trkpt lat="43.26053" lon="5.97038">
        <ele>297.953125</ele>
        <time>2019-05-12T10:16:26Z</time>
      </trkpt>
      <trkpt lat="43.26069" lon="5.97068">
        <ele>303.1171875</ele>
        <time>2019-05-12T10:16:43Z</time>
      </trkpt>
      <trkpt lat="43.26074" lon="5.97079">
        <ele>304.40234375</ele>
        <time>2019-05-12T10:16:49Z</time>
      </trkpt>
      <trkpt lat="43.26075" lon="5.97081">
        <ele>304.5859375</ele>
        <time>2019-05-12T10:16:50Z</time>
      </trkpt>
      <trkpt lat="43.26088" lon="5.97105">
        <ele>305.01171875</ele>
        <time>2019-05-12T10:17:07Z</time>
      </trkpt>
      <trkpt lat="43.26098" lon="5.9712">
        <ele>305.24609375</ele>
        <time>2019-05-12T10:17:20Z</time>
      </trkpt>
      <trkpt lat="43.26104" lon="5.97135">
        <ele>305.33984375</ele>
        <time>2019-05-12T10:17:32Z</time>
      </trkpt>
      <trkpt lat="43.26105" lon="5.97137">
        <ele>305.36328125</ele>
        <time>2019-05-12T10:17:33Z</time>
      </trkpt>
      <trkpt lat="43.26106" lon="5.97138">
        <ele>305.4140625</ele>
        <time>2019-05-12T10:17:34Z</time>
      </trkpt>
      <trkpt lat="43.26106" lon="5.97139">
        <ele>305.484375</ele>
        <time>2019-05-12T10:17:35Z</time>
      </trkpt>
      <trkpt lat="43.26107" lon="5.9714">
        <ele>305.5390625</ele>
        <time>2019-05-12T10:17:36Z</time>
      </trkpt>
      <trkpt lat="43.26108" lon="5.97141">
        <ele>305.54296875</ele>
        <time>2019-05-12T10:17:37Z</time>
      </trkpt>
      <trkpt lat="43.26109" lon="5.97142">
        <ele>305.51953125</ele>
        <time>2019-05-12T10:17:38Z</time>
      </trkpt>
      <trkpt lat="43.2611" lon="5.97143">
        <ele>305.53515625</ele>
        <time>2019-05-12T10:17:39Z</time>
      </trkpt>
      <trkpt lat="43.26111" lon="5.97145">
        <ele>305.53515625</ele>
        <time>2019-05-12T10:17:40Z</time>
      </trkpt>
      <trkpt lat="43.26112" lon="5.97146">
        <ele>305.49609375</ele>
        <time>2019-05-12T10:17:41Z</time>
      </trkpt>
      <trkpt lat="43.26114" lon="5.97146">
        <ele>305.42578125</ele>
        <time>2019-05-12T10:17:42Z</time>
      </trkpt>
      <trkpt lat="43.26114" lon="5.97148">
        <ele>305.34765625</ele>
        <time>2019-05-12T10:17:43Z</time>
      </trkpt>
      <trkpt lat="43.26116" lon="5.97149">
        <ele>305.2109375</ele>
        <time>2019-05-12T10:17:44Z</time>
      </trkpt>
      <trkpt lat="43.26117" lon="5.9715">
        <ele>305.0546875</ele>
        <time>2019-05-12T10:17:45Z</time>
      </trkpt>
      <trkpt lat="43.26118" lon="5.97151">
        <ele>304.89453125</ele>
        <time>2019-05-12T10:17:46Z</time>
      </trkpt>
      <trkpt lat="43.26119" lon="5.97153">
        <ele>304.703125</ele>
        <time>2019-05-12T10:17:47Z</time>
      </trkpt>
      <trkpt lat="43.2612" lon="5.97154">
        <ele>304.48828125</ele>
        <time>2019-05-12T10:17:48Z</time>
      </trkpt>
      <trkpt lat="43.26122" lon="5.97156">
        <ele>304.25</ele>
        <time>2019-05-12T10:17:49Z</time>
      </trkpt>
      <trkpt lat="43.26123" lon="5.97157">
        <ele>304.01953125</ele>
        <time>2019-05-12T10:17:50Z</time>
      </trkpt>
      <trkpt lat="43.26133" lon="5.97164">
        <ele>301.9453125</ele>
        <time>2019-05-12T10:17:58Z</time>
      </trkpt>
      <trkpt lat="43.26134" lon="5.97165">
        <ele>301.67578125</ele>
        <time>2019-05-12T10:17:59Z</time>
      </trkpt>
      <trkpt lat="43.26135" lon="5.97166">
        <ele>301.45703125</ele>
        <time>2019-05-12T10:18:00Z</time>
      </trkpt>
      <trkpt lat="43.26137" lon="5.97167">
        <ele>301.2109375</ele>
        <time>2019-05-12T10:18:01Z</time>
      </trkpt>
      <trkpt lat="43.26138" lon="5.97168">
        <ele>300.95703125</ele>
        <time>2019-05-12T10:18:02Z</time>
      </trkpt>
      <trkpt lat="43.26139" lon="5.97169">
        <ele>300.74609375</ele>
        <time>2019-05-12T10:18:03Z</time>
      </trkpt>
      <trkpt lat="43.2614" lon="5.9717">
        <ele>300.515625</ele>
        <time>2019-05-12T10:18:04Z</time>
      </trkpt>
      <trkpt lat="43.26141" lon="5.9717">
        <ele>300.21484375</ele>
        <time>2019-05-12T10:18:05Z</time>
      </trkpt>
      <trkpt lat="43.26142" lon="5.97171">
        <ele>299.8984375</ele>
        <time>2019-05-12T10:18:06Z</time>
      </trkpt>
      <trkpt lat="43.26143" lon="5.97172">
        <ele>299.58203125</ele>
        <time>2019-05-12T10:18:07Z</time>
      </trkpt>
      <trkpt lat="43.26149" lon="5.97179">
        <ele>297.6015625</ele>
        <time>2019-05-12T10:18:14Z</time>
      </trkpt>
      <trkpt lat="43.2615" lon="5.97178">
        <ele>297.21875</ele>
        <time>2019-05-12T10:18:15Z</time>
      </trkpt>
      <trkpt lat="43.2615" lon="5.97175">
        <ele>297.203125</ele>
        <time>2019-05-12T10:18:16Z</time>
      </trkpt>
      <trkpt lat="43.26149" lon="5.97174">
        <ele>297.54296875</ele>
        <time>2019-05-12T10:18:17Z</time>
      </trkpt>
      <trkpt lat="43.26148" lon="5.97173">
        <ele>297.98046875</ele>
        <time>2019-05-12T10:18:18Z</time>
      </trkpt>
      <trkpt lat="43.26147" lon="5.97172">
        <ele>298.40625</ele>
        <time>2019-05-12T10:18:19Z</time>
      </trkpt>
      <trkpt lat="43.26145" lon="5.97171">
        <ele>298.8515625</ele>
        <time>2019-05-12T10:18:20Z</time>
      </trkpt>
      <trkpt lat="43.26143" lon="5.97171">
        <ele>299.64453125</ele>
        <time>2019-05-12T10:18:22Z</time>
      </trkpt>
      <trkpt lat="43.26146" lon="5.97173">
        <ele>298.47265625</ele>
        <time>2019-05-12T10:18:32Z</time>
      </trkpt>
      <trkpt lat="43.26149" lon="5.97172">
        <ele>297.46484375</ele>
        <time>2019-05-12T10:18:35Z</time>
      </trkpt>
      <trkpt lat="43.2615" lon="5.97174">
        <ele>297.2734375</ele>
        <time>2019-05-12T10:18:36Z</time>
      </trkpt>
      <trkpt lat="43.2615" lon="5.97176">
        <ele>297.28125</ele>
        <time>2019-05-12T10:18:37Z</time>
      </trkpt>
      <trkpt lat="43.26149" lon="5.97178">
        <ele>297.51953125</ele>
        <time>2019-05-12T10:18:38Z</time>
      </trkpt>
      <trkpt lat="43.26148" lon="5.97179">
        <ele>297.88671875</ele>
        <time>2019-05-12T10:18:39Z</time>
      </trkpt>
      <trkpt lat="43.26147" lon="5.9718">
        <ele>298.31640625</ele>
        <time>2019-05-12T10:18:40Z</time>
      </trkpt>
      <trkpt lat="43.26146" lon="5.97179">
        <ele>298.66796875</ele>
        <time>2019-05-12T10:18:41Z</time>
      </trkpt>
      <trkpt lat="43.26145" lon="5.97178">
        <ele>298.9296875</ele>
        <time>2019-05-12T10:18:42Z</time>
      </trkpt>
      <trkpt lat="43.26145" lon="5.97175">
        <ele>299.03515625</ele>
        <time>2019-05-12T10:18:43Z</time>
      </trkpt>
      <trkpt lat="43.26145" lon="5.97173">
        <ele>299.0859375</ele>
        <time>2019-05-12T10:18:44Z</time>
      </trkpt>
      <trkpt lat="43.26145" lon="5.97171">
        <ele>299.0859375</ele>
        <time>2019-05-12T10:18:45Z</time>
      </trkpt>
      <trkpt lat="43.26147" lon="5.97164">
        <ele>298.2421875</ele>
        <time>2019-05-12T10:18:50Z</time>
      </trkpt>
      <trkpt lat="43.26169" lon="5.97143">
        <ele>291.8828125</ele>
        <time>2019-05-12T10:19:00Z</time>
      </trkpt>
      <trkpt lat="43.26175" lon="5.97142">
        <ele>289.6015625</ele>
        <time>2019-05-12T10:19:02Z</time>
      </trkpt>
      <trkpt lat="43.26191" lon="5.97101">
        <ele>284.10546875</ele>
        <time>2019-05-12T10:19:14Z</time>
      </trkpt>
      <trkpt lat="43.26191" lon="5.97092">
        <ele>284.44140625</ele>
        <time>2019-05-12T10:19:24Z</time>
      </trkpt>
      <trkpt lat="43.26191" lon="5.97087">
        <ele>284.48828125</ele>
        <time>2019-05-12T10:19:42Z</time>
      </trkpt>
      <trkpt lat="43.26191" lon="5.97078">
        <ele>285.12890625</ele>
        <time>2019-05-12T10:19:46Z</time>
      </trkpt>
      <trkpt lat="43.26185" lon="5.97039">
        <ele>288.6328125</ele>
        <time>2019-05-12T10:19:57Z</time>
      </trkpt>
      <trkpt lat="43.2619" lon="5.97016">
        <ele>287.671875</ele>
        <time>2019-05-12T10:20:01Z</time>
      </trkpt>
      <trkpt lat="43.26194" lon="5.96997">
        <ele>286.85546875</ele>
        <time>2019-05-12T10:20:04Z</time>
      </trkpt>
      <trkpt lat="43.26197" lon="5.96983">
        <ele>287.13671875</ele>
        <time>2019-05-12T10:20:06Z</time>
      </trkpt>
      <trkpt lat="43.26198" lon="5.96973">
        <ele>287.53515625</ele>
        <time>2019-05-12T10:20:12Z</time>
      </trkpt>
      <trkpt lat="43.26199" lon="5.96965">
        <ele>287.94140625</ele>
        <time>2019-05-12T10:20:17Z</time>
      </trkpt>
      <trkpt lat="43.26198" lon="5.96946">
        <ele>289.5234375</ele>
        <time>2019-05-12T10:20:22Z</time>
      </trkpt>
      <trkpt lat="43.26201" lon="5.9693">
        <ele>289.75390625</ele>
        <time>2019-05-12T10:20:25Z</time>
      </trkpt>
      <trkpt lat="43.26201" lon="5.96925">
        <ele>289.953125</ele>
        <time>2019-05-12T10:20:26Z</time>
      </trkpt>
      <trkpt lat="43.26219" lon="5.96871">
        <ele>288.6484375</ele>
        <time>2019-05-12T10:20:36Z</time>
      </trkpt>
      <trkpt lat="43.26225" lon="5.96874">
        <ele>286.328125</ele>
        <time>2019-05-12T10:20:39Z</time>
      </trkpt>
      <trkpt lat="43.26228" lon="5.96879">
        <ele>286.4296875</ele>
        <time>2019-05-12T10:20:41Z</time>
      </trkpt>
      <trkpt lat="43.26228" lon="5.96887">
        <ele>285.7734375</ele>
        <time>2019-05-12T10:20:43Z</time>
      </trkpt>
      <trkpt lat="43.26229" lon="5.96891">
        <ele>285.71875</ele>
        <time>2019-05-12T10:20:44Z</time>
      </trkpt>
      <trkpt lat="43.26236" lon="5.96912">
        <ele>286.68359375</ele>
        <time>2019-05-12T10:20:49Z</time>
      </trkpt>
      <trkpt lat="43.26231" lon="5.96932">
        <ele>283.046875</ele>
        <time>2019-05-12T10:20:53Z</time>
      </trkpt>
      <trkpt lat="43.26238" lon="5.96953">
        <ele>284.56640625</ele>
        <time>2019-05-12T10:21:05Z</time>
      </trkpt>
      <trkpt lat="43.26245" lon="5.96964">
        <ele>287.13671875</ele>
        <time>2019-05-12T10:21:19Z</time>
      </trkpt>
      <trkpt lat="43.2624" lon="5.96979">
        <ele>284.1953125</ele>
        <time>2019-05-12T10:21:25Z</time>
      </trkpt>
      <trkpt lat="43.26239" lon="5.96999">
        <ele>282.87890625</ele>
        <time>2019-05-12T10:21:31Z</time>
      </trkpt>
      <trkpt lat="43.26239" lon="5.97009">
        <ele>281.47265625</ele>
        <time>2019-05-12T10:21:34Z</time>
      </trkpt>
      <trkpt lat="43.26241" lon="5.97024">
        <ele>280.19921875</ele>
        <time>2019-05-12T10:21:38Z</time>
      </trkpt>
      <trkpt lat="43.26241" lon="5.97039">
        <ele>277.67578125</ele>
        <time>2019-05-12T10:21:47Z</time>
      </trkpt>
      <trkpt lat="43.26243" lon="5.97047">
        <ele>276.55859375</ele>
        <time>2019-05-12T10:22:16Z</time>
      </trkpt>
      <trkpt lat="43.26242" lon="5.97048">
        <ele>276.1796875</ele>
        <time>2019-05-12T10:22:49Z</time>
      </trkpt>
      <trkpt lat="43.26243" lon="5.97049">
        <ele>276.296875</ele>
        <time>2019-05-12T10:23:15Z</time>
      </trkpt>
      <trkpt lat="43.26245" lon="5.9705">
        <ele>276.41015625</ele>
        <time>2019-05-12T10:23:37Z</time>
      </trkpt>
      <trkpt lat="43.26248" lon="5.97057">
        <ele>275.2890625</ele>
        <time>2019-05-12T10:23:42Z</time>
      </trkpt>
      <trkpt lat="43.26252" lon="5.97075">
        <ele>271.47265625</ele>
        <time>2019-05-12T10:23:49Z</time>
      </trkpt>
      <trkpt lat="43.26276" lon="5.97098">
        <ele>265.68359375</ele>
        <time>2019-05-12T10:23:56Z</time>
      </trkpt>
      <trkpt lat="43.2628" lon="5.971">
        <ele>264.8984375</ele>
        <time>2019-05-12T10:23:58Z</time>
      </trkpt>
      <trkpt lat="43.26298" lon="5.97106">
        <ele>262.86328125</ele>
        <time>2019-05-12T10:24:04Z</time>
      </trkpt>
      <trkpt lat="43.2631" lon="5.97105">
        <ele>263.0078125</ele>
        <time>2019-05-12T10:24:09Z</time>
      </trkpt>
      <trkpt lat="43.26345" lon="5.97108">
        <ele>260.6953125</ele>
        <time>2019-05-12T10:24:20Z</time>
      </trkpt>
      <trkpt lat="43.26352" lon="5.97104">
        <ele>261.8671875</ele>
        <time>2019-05-12T10:24:24Z</time>
      </trkpt>
      <trkpt lat="43.26362" lon="5.971">
        <ele>262.375</ele>
        <time>2019-05-12T10:24:28Z</time>
      </trkpt>
      <trkpt lat="43.26404" lon="5.97093">
        <ele>265.01953125</ele>
        <time>2019-05-12T10:24:41Z</time>
      </trkpt>
      <trkpt lat="43.26408" lon="5.97093">
        <ele>264.98046875</ele>
        <time>2019-05-12T10:24:42Z</time>
      </trkpt>
      <trkpt lat="43.26424" lon="5.97102">
        <ele>263.8828125</ele>
        <time>2019-05-12T10:24:47Z</time>
      </trkpt>
      <trkpt lat="43.26448" lon="5.97134">
        <ele>263.0390625</ele>
        <time>2019-05-12T10:24:57Z</time>
      </trkpt>
      <trkpt lat="43.26451" lon="5.97137">
        <ele>262.87890625</ele>
        <time>2019-05-12T10:24:58Z</time>
      </trkpt>
      <trkpt lat="43.26466" lon="5.97169">
        <ele>264.04296875</ele>
        <time>2019-05-12T10:25:04Z</time>
      </trkpt>
      <trkpt lat="43.2646" lon="5.97212">
        <ele>265.82421875</ele>
        <time>2019-05-12T10:25:11Z</time>
      </trkpt>
      <trkpt lat="43.26452" lon="5.97293">
        <ele>263.96484375</ele>
        <time>2019-05-12T10:25:24Z</time>
      </trkpt>
      <trkpt lat="43.26451" lon="5.97295">
        <ele>263.59375</ele>
        <time>2019-05-12T10:25:25Z</time>
      </trkpt>
      <trkpt lat="43.26465" lon="5.97357">
        <ele>251.859375</ele>
        <time>2019-05-12T10:25:36Z</time>
      </trkpt>
      <trkpt lat="43.26472" lon="5.97379">
        <ele>245.14453125</ele>
        <time>2019-05-12T10:25:43Z</time>
      </trkpt>
      <trkpt lat="43.26474" lon="5.97383">
        <ele>244.07421875</ele>
        <time>2019-05-12T10:26:18Z</time>
      </trkpt>
      <trkpt lat="43.26476" lon="5.97385">
        <ele>243.4609375</ele>
        <time>2019-05-12T10:26:20Z</time>
      </trkpt>
      <trkpt lat="43.26493" lon="5.97388">
        <ele>240.9921875</ele>
        <time>2019-05-12T10:26:27Z</time>
      </trkpt>
      <trkpt lat="43.26529" lon="5.97381">
        <ele>238.36328125</ele>
        <time>2019-05-12T10:26:37Z</time>
      </trkpt>
      <trkpt lat="43.26539" lon="5.97376">
        <ele>237.70703125</ele>
        <time>2019-05-12T10:26:39Z</time>
      </trkpt>
      <trkpt lat="43.26554" lon="5.97359">
        <ele>237.14453125</ele>
        <time>2019-05-12T10:26:43Z</time>
      </trkpt>
      <trkpt lat="43.2656" lon="5.97324">
        <ele>239.55078125</ele>
        <time>2019-05-12T10:26:48Z</time>
      </trkpt>
      <trkpt lat="43.2656" lon="5.97243">
        <ele>238.1484375</ele>
        <time>2019-05-12T10:27:00Z</time>
      </trkpt>
      <trkpt lat="43.26555" lon="5.97213">
        <ele>238.2578125</ele>
        <time>2019-05-12T10:27:05Z</time>
      </trkpt>
      <trkpt lat="43.26549" lon="5.97161">
        <ele>237.5390625</ele>
        <time>2019-05-12T10:27:13Z</time>
      </trkpt>
      <trkpt lat="43.26549" lon="5.97138">
        <ele>234.7578125</ele>
        <time>2019-05-12T10:27:17Z</time>
      </trkpt>
      <trkpt lat="43.26548" lon="5.97117">
        <ele>232.5</ele>
        <time>2019-05-12T10:27:21Z</time>
      </trkpt>
      <trkpt lat="43.26542" lon="5.97109">
        <ele>234.04296875</ele>
        <time>2019-05-12T10:27:25Z</time>
      </trkpt>
      <trkpt lat="43.26541" lon="5.97101">
        <ele>233.64453125</ele>
        <time>2019-05-12T10:27:27Z</time>
      </trkpt>
      <trkpt lat="43.26532" lon="5.97079">
        <ele>234.01953125</ele>
        <time>2019-05-12T10:27:32Z</time>
      </trkpt>
      <trkpt lat="43.2653" lon="5.97075">
        <ele>234.1640625</ele>
        <time>2019-05-12T10:27:33Z</time>
      </trkpt>
      <trkpt lat="43.26519" lon="5.97053">
        <ele>233.55859375</ele>
        <time>2019-05-12T10:27:38Z</time>
      </trkpt>
      <trkpt lat="43.26505" lon="5.97029">
        <ele>233.15625</ele>
        <time>2019-05-12T10:27:42Z</time>
      </trkpt>
      <trkpt lat="43.265" lon="5.97015">
        <ele>232.5390625</ele>
        <time>2019-05-12T10:27:44Z</time>
      </trkpt>
      <trkpt lat="43.26495" lon="5.97002">
        <ele>232.3984375</ele>
        <time>2019-05-12T10:27:46Z</time>
      </trkpt>
      <trkpt lat="43.26496" lon="5.96969">
        <ele>229.01171875</ele>
        <time>2019-05-12T10:27:52Z</time>
      </trkpt>
      <trkpt lat="43.26497" lon="5.96964">
        <ele>228.45703125</ele>
        <time>2019-05-12T10:27:53Z</time>
      </trkpt>
      <trkpt lat="43.26499" lon="5.96942">
        <ele>226.79296875</ele>
        <time>2019-05-12T10:27:58Z</time>
      </trkpt>
      <trkpt lat="43.2651" lon="5.96925">
        <ele>226.05078125</ele>
        <time>2019-05-12T10:28:11Z</time>
      </trkpt>
      <trkpt lat="43.26511" lon="5.96919">
        <ele>226.38671875</ele>
        <time>2019-05-12T10:28:35Z</time>
      </trkpt>
      <trkpt lat="43.26511" lon="5.96916">
        <ele>226.59375</ele>
        <time>2019-05-12T10:28:55Z</time>
      </trkpt>
      <trkpt lat="43.26522" lon="5.96902">
        <ele>226.72265625</ele>
        <time>2019-05-12T10:29:04Z</time>
      </trkpt>
      <trkpt lat="43.26526" lon="5.96899">
        <ele>226.3984375</ele>
        <time>2019-05-12T10:29:06Z</time>
      </trkpt>
      <trkpt lat="43.26529" lon="5.96892">
        <ele>226.16796875</ele>
        <time>2019-05-12T10:29:09Z</time>
      </trkpt>
      <trkpt lat="43.26536" lon="5.96876">
        <ele>226.28125</ele>
        <time>2019-05-12T10:29:15Z</time>
      </trkpt>
      <trkpt lat="43.26527" lon="5.96843">
        <ele>227.20703125</ele>
        <time>2019-05-12T10:29:26Z</time>
      </trkpt>
      <trkpt lat="43.26511" lon="5.9682">
        <ele>228.3203125</ele>
        <time>2019-05-12T10:29:36Z</time>
      </trkpt>
      <trkpt lat="43.26493" lon="5.96765">
        <ele>227.57421875</ele>
        <time>2019-05-12T10:29:45Z</time>
      </trkpt>
      <trkpt lat="43.26463" lon="5.9673">
        <ele>230.0234375</ele>
        <time>2019-05-12T10:29:55Z</time>
      </trkpt>
      <trkpt lat="43.26459" lon="5.96723">
        <ele>230.03515625</ele>
        <time>2019-05-12T10:30:06Z</time>
      </trkpt>
      <trkpt lat="43.26455" lon="5.96716">
        <ele>230.1015625</ele>
        <time>2019-05-12T10:30:21Z</time>
      </trkpt>
      <trkpt lat="43.26449" lon="5.96715">
        <ele>231.0234375</ele>
        <time>2019-05-12T10:30:43Z</time>
      </trkpt>
      <trkpt lat="43.26449" lon="5.96714">
        <ele>231.13671875</ele>
        <time>2019-05-12T10:30:45Z</time>
      </trkpt>
      <trkpt lat="43.26445" lon="5.96709">
        <ele>231.4921875</ele>
        <time>2019-05-12T10:30:59Z</time>
      </trkpt>
      <trkpt lat="43.26442" lon="5.967">
        <ele>231.49609375</ele>
        <time>2019-05-12T10:31:13Z</time>
      </trkpt>
      <trkpt lat="43.26439" lon="5.96704">
        <ele>233.08203125</ele>
        <time>2019-05-12T10:31:41Z</time>
      </trkpt>
      <trkpt lat="43.26438" lon="5.96694">
        <ele>231.9765625</ele>
        <time>2019-05-12T10:32:03Z</time>
      </trkpt>
      <trkpt lat="43.26432" lon="5.96697">
        <ele>234.26953125</ele>
        <time>2019-05-12T10:32:08Z</time>
      </trkpt>
      <trkpt lat="43.26421" lon="5.96688">
        <ele>236.22265625</ele>
        <time>2019-05-12T10:32:18Z</time>
      </trkpt>
      <trkpt lat="43.26421" lon="5.9668">
        <ele>235.19921875</ele>
        <time>2019-05-12T10:32:22Z</time>
      </trkpt>
      <trkpt lat="43.26425" lon="5.96673">
        <ele>233.5</ele>
        <time>2019-05-12T10:32:24Z</time>
      </trkpt>
      <trkpt lat="43.2643" lon="5.96653">
        <ele>230.671875</ele>
        <time>2019-05-12T10:32:27Z</time>
      </trkpt>
      <trkpt lat="43.26435" lon="5.96613">
        <ele>229.4140625</ele>
        <time>2019-05-12T10:32:36Z</time>
      </trkpt>
      <trkpt lat="43.26437" lon="5.96599">
        <ele>229.69921875</ele>
        <time>2019-05-12T10:32:38Z</time>
      </trkpt>
      <trkpt lat="43.26439" lon="5.96566">
        <ele>230.8125</ele>
        <time>2019-05-12T10:32:42Z</time>
      </trkpt>
      <trkpt lat="43.26444" lon="5.96543">
        <ele>231.55859375</ele>
        <time>2019-05-12T10:32:45Z</time>
      </trkpt>
      <trkpt lat="43.26447" lon="5.96527">
        <ele>231.9765625</ele>
        <time>2019-05-12T10:32:47Z</time>
      </trkpt>
      <trkpt lat="43.26449" lon="5.96521">
        <ele>232.62109375</ele>
        <time>2019-05-12T10:32:48Z</time>
      </trkpt>
      <trkpt lat="43.26447" lon="5.96498">
        <ele>233.015625</ele>
        <time>2019-05-12T10:32:52Z</time>
      </trkpt>
      <trkpt lat="43.2643" lon="5.96476">
        <ele>233.44140625</ele>
        <time>2019-05-12T10:33:00Z</time>
      </trkpt>
      <trkpt lat="43.26407" lon="5.96464">
        <ele>234.78515625</ele>
        <time>2019-05-12T10:33:12Z</time>
      </trkpt>
      <trkpt lat="43.26396" lon="5.96458">
        <ele>235.67578125</ele>
        <time>2019-05-12T10:33:17Z</time>
      </trkpt>
      <trkpt lat="43.26386" lon="5.96449">
        <ele>235.9453125</ele>
        <time>2019-05-12T10:33:31Z</time>
      </trkpt>
      <trkpt lat="43.26382" lon="5.96446">
        <ele>236.03515625</ele>
        <time>2019-05-12T10:33:56Z</time>
      </trkpt>
      <trkpt lat="43.26379" lon="5.96446">
        <ele>236.5390625</ele>
        <time>2019-05-12T10:34:26Z</time>
      </trkpt>
      <trkpt lat="43.26378" lon="5.96446">
        <ele>236.66796875</ele>
        <time>2019-05-12T10:34:27Z</time>
      </trkpt>
      <trkpt lat="43.26369" lon="5.96437">
        <ele>236.60546875</ele>
        <time>2019-05-12T10:34:32Z</time>
      </trkpt>
      <trkpt lat="43.2635" lon="5.96403">
        <ele>235.51953125</ele>
        <time>2019-05-12T10:34:43Z</time>
      </trkpt>
      <trkpt lat="43.26345" lon="5.96392">
        <ele>234.89453125</ele>
        <time>2019-05-12T10:34:46Z</time>
      </trkpt>
      <trkpt lat="43.26337" lon="5.96382">
        <ele>234.53515625</ele>
        <time>2019-05-12T10:34:50Z</time>
      </trkpt>
      <trkpt lat="43.26328" lon="5.96368">
        <ele>234.0703125</ele>
        <time>2019-05-12T10:35:04Z</time>
      </trkpt>
      <trkpt lat="43.26322" lon="5.96364">
        <ele>233.734375</ele>
        <time>2019-05-12T10:35:16Z</time>
      </trkpt>
      <trkpt lat="43.26317" lon="5.96364">
        <ele>233.921875</ele>
        <time>2019-05-12T10:35:28Z</time>
      </trkpt>
      <trkpt lat="43.26312" lon="5.96356">
        <ele>232.5625</ele>
        <time>2019-05-12T10:35:41Z</time>
      </trkpt>
      <trkpt lat="43.26304" lon="5.9635">
        <ele>232.0703125</ele>
        <time>2019-05-12T10:35:52Z</time>
      </trkpt>
      <trkpt lat="43.26298" lon="5.96352">
        <ele>232.87890625</ele>
        <time>2019-05-12T10:36:01Z</time>
      </trkpt>
      <trkpt lat="43.26295" lon="5.96353">
        <ele>233.46875</ele>
        <time>2019-05-12T10:36:04Z</time>
      </trkpt>
      <trkpt lat="43.26287" lon="5.96352">
        <ele>233.89453125</ele>
        <time>2019-05-12T10:36:10Z</time>
      </trkpt>
      <trkpt lat="43.26293" lon="5.96343">
        <ele>231.796875</ele>
        <time>2019-05-12T10:36:16Z</time>
      </trkpt>
      <trkpt lat="43.26294" lon="5.9634">
        <ele>231.171875</ele>
        <time>2019-05-12T10:36:17Z</time>
      </trkpt>
      <trkpt lat="43.26296" lon="5.96337">
        <ele>230.453125</ele>
        <time>2019-05-12T10:36:18Z</time>
      </trkpt>
      <trkpt lat="43.26298" lon="5.96332">
        <ele>229.578125</ele>
        <time>2019-05-12T10:36:19Z</time>
      </trkpt>
      <trkpt lat="43.263" lon="5.96328">
        <ele>229.44140625</ele>
        <time>2019-05-12T10:36:20Z</time>
      </trkpt>
      <trkpt lat="43.26303" lon="5.96329">
        <ele>229.3046875</ele>
        <time>2019-05-12T10:36:27Z</time>
      </trkpt>
      <trkpt lat="43.26304" lon="5.96332">
        <ele>229.33984375</ele>
        <time>2019-05-12T10:36:45Z</time>
      </trkpt>
      <trkpt lat="43.26303" lon="5.9633">
        <ele>229.21875</ele>
        <time>2019-05-12T10:37:08Z</time>
      </trkpt>
      <trkpt lat="43.26306" lon="5.96325">
        <ele>229.47265625</ele>
        <time>2019-05-12T10:37:40Z</time>
      </trkpt>
      <trkpt lat="43.26305" lon="5.96321">
        <ele>229.73046875</ele>
        <time>2019-05-12T10:37:53Z</time>
      </trkpt>
      <trkpt lat="43.26303" lon="5.96326">
        <ele>229.4921875</ele>
        <time>2019-05-12T10:38:27Z</time>
      </trkpt>
      <trkpt lat="43.26302" lon="5.96327">
        <ele>229.48828125</ele>
        <time>2019-05-12T10:38:45Z</time>
      </trkpt>
      <trkpt lat="43.26304" lon="5.96328">
        <ele>229.33203125</ele>
        <time>2019-05-12T10:38:54Z</time>
      </trkpt>
      <trkpt lat="43.26305" lon="5.96335">
        <ele>229.6796875</ele>
        <time>2019-05-12T10:39:16Z</time>
      </trkpt>
      <trkpt lat="43.26305" lon="5.96335">
        <ele>229.74609375</ele>
        <time>2019-05-12T10:39:42Z</time>
      </trkpt>
    </trkseg>
  </trk>
</gpx>